GFSSW_850_spd_000.txt.gz
Wind_Speed
18 19 19 20 20 22 24 23 21 20 16 14 13 13 11 13 14 16 16 10 12 11 7 6 6 7 6 6 3 4 5 7 8 8 10 13 12 8 9 13 6 3 15 23 29
18 18 20 21 21 22 24 24 21 20 17 14 13 13 11 11 12 18 17 12 13 13 11 11 9 8 8 4 3 8 5 9 6 7 11 8 8 10 10 12 12 16 19 27 28
19 18 19 21 22 23 25 24 22 21 18 14 13 12 10 9 8 12 16 15 15 15 11 10 8 7 6 5 5 1 11 6 6 7 12 14 11 7 6 8 9 19 27 26 26
20 20 19 21 23 24 25 25 23 21 19 15 13 11 10 8 5 4 13 21 20 15 11 9 9 10 6 8 5 7 9 11 11 11 13 14 14 17 17 13 15 23 23 23 21
20 21 20 20 22 24 25 25 23 23 15 10 9 11 11 9 11 6 12 23 22 17 12 11 10 9 8 10 8 13 12 13 12 12 15 16 16 15 19 18 22 22 19 18 16
20 22 22 21 22 24 25 22 23 14 8 7 7 11 11 12 11 8 13 24 21 18 12 10 7 6 9 11 4 11 16 16 14 15 17 17 14 13 13 17 19 18 17 15 14
21 21 23 22 21 23 24 20 20 10 7 7 1 11 9 4 6 8 17 22 18 15 13 8 7 7 12 12 14 18 16 12 13 9 16 17 14 15 15 15 16 16 15 13 12
22 21 23 22 21 21 23 19 19 10 6 4 3 5 3 8 6 12 16 16 17 12 9 8 5 8 5 17 12 12 14 11 10 14 7 8 12 11 14 14 14 14 14 12 11
22 21 22 22 21 20 20 18 19 9 7 5 2 2 6 4 8 13 16 18 17 12 11 8 6 7 11 14 12 13 12 11 13 14 2 9 14 14 14 13 14 13 13 12 12
22 22 21 22 20 19 16 18 13 9 8 6 8 5 6 11 12 14 14 17 17 15 10 10 10 10 12 14 13 15 11 12 12 14 8 5 12 14 15 14 15 14 12 12 12
23 24 19 21 18 18 12 11 8 1 6 9 0 3 10 12 13 14 16 18 17 18 13 14 12 15 17 17 11 13 16 12 10 5 10 6 12 14 16 14 14 16 14 13 13
23 24 19 20 17 14 8 5 2 8 11 12 15 11 8 16 15 18 20 18 20 17 17 10 17 17 12 7 11 12 12 11 6 6 11 8 11 12 14 16 15 15 16 15 14
23 23 21 17 18 10 9 10 7 11 7 6 12 12 16 17 22 25 24 16 20 20 17 16 19 12 12 13 15 14 15 12 13 9 11 8 10 12 14 13 15 14 15 15 16
22 22 22 15 12 5 8 7 7 2 5 11 11 11 16 20 15 24 26 17 10 18 20 13 12 14 16 16 14 14 10 13 15 14 12 16 10 18 17 16 17 20 18 18 17
22 21 22 15 17 12 6 8 8 3 5 10 14 15 22 27 24 21 24 13 19 13 10 12 15 14 14 14 10 6 8 9 12 17 7 13 9 3 16 18 20 22 22 21 20
22 20 24 16 16 12 5 4 3 7 7 8 11 15 21 21 24 28 19 12 5 13 14 12 8 11 8 6 6 13 13 7 8 7 10 12 12 12 10 18 19 24 24 23 22
22 19 23 16 7 6 4 2 7 9 4 8 14 21 23 15 19 20 21 18 11 14 14 10 14 9 19 14 11 12 15 8 9 8 10 5 7 13 2 5 13 21 27 27 25
22 20 19 16 11 17 8 7 9 6 9 3 7 20 21 19 18 23 20 18 14 14 17 16 13 14 14 12 12 17 15 6 7 9 6 3 7 6 2 4 13 14 23 28 26
21 18 16 11 11 15 14 9 9 6 3 3 10 15 18 18 11 18 20 20 18 15 8 14 12 12 14 8 10 11 10 5 1 3 8 7 6 9 8 8 10 12 17 28 26
21 17 9 10 10 18 11 13 7 4 6 3 9 17 21 20 15 19 20 21 18 16 15 9 11 14 8 10 4 8 11 9 9 6 9 6 6 3 5 7 8 14 19 25 26
13 7 7 9 13 13 12 15 12 12 8 4 4 9 17 19 21 22 20 12 19 18 14 13 12 10 10 12 15 8 11 8 5 5 7 6 3 6 2 2 4 10 18 23 29
3 5 5 15 11 16 13 11 6 9 6 8 5 8 11 17 20 19 21 18 15 12 14 18 11 12 16 5 6 15 18 16 10 11 6 7 8 4 4 3 3 5 13 21 28
7 6 4 10 8 10 11 10 10 7 6 4 5 3 2 12 14 19 17 8 13 14 11 13 11 14 12 9 5 11 11 13 16 10 7 8 3 6 4 4 5 8 13 18 24
5 3 5 10 5 6 10 12 10 4 5 5 8 7 6 8 5 12 12 8 12 15 3 10 15 18 16 18 14 18 15 17 16 12 11 11 13 10 5 7 8 10 13 17 23
3 3 2 3 6 3 4 2 10 7 2 2 6 6 6 7 9 8 10 13 10 8 8 11 12 15 20 17 14 15 18 19 20 17 15 12 7 11 8 11 12 12 11 18 23
5 5 3 1 2 6 3 3 3 2 2 4 4 3 6 8 5 5 5 5 7 9 10 6 9 9 15 12 15 14 17 17 18 12 9 9 11 8 9 13 16 19 16 17 23
7 5 4 3 1 5 2 0 2 4 3 2 6 7 6 4 9 9 8 7 5 4 9 8 7 8 14 11 10 15 14 16 12 10 10 9 8 10 12 14 17 18 18 17 19

GFSSW_850_spd_006.txt.gz
Wind_Speed
21 21 22 21 21 21 22 22 23 22 20 20 20 20 19 19 18 19 20 13 11 14 11 10 12 13 13 21 25 47 8 8 8 16 20 23 17 21 19 20 17 13 29 28 25
21 21 22 22 21 22 22 23 24 24 21 21 21 20 18 18 18 24 21 16 16 15 12 13 13 11 16 22 9 7 2 14 10 13 21 34 9 19 13 15 16 22 28 27 25
21 21 22 23 22 22 23 24 24 24 25 22 19 18 15 14 17 25 18 20 20 15 13 13 13 16 18 17 5 4 11 7 19 18 35 37 22 24 31 15 20 30 31 27 24
21 22 22 23 23 23 22 24 25 24 23 18 14 13 11 10 5 5 17 14 17 15 14 13 14 19 16 8 2 6 15 15 11 22 15 19 32 26 34 16 22 26 27 25 23
22 21 22 23 24 23 23 24 25 23 21 17 15 11 9 10 25 13 6 18 20 18 17 15 15 20 17 7 3 9 14 9 13 20 22 23 20 22 27 16 24 25 24 22 20
22 23 22 23 24 24 23 24 24 23 21 16 15 10 10 16 9 9 7 18 20 20 19 17 18 21 18 3 7 12 12 10 16 13 13 16 18 20 18 22 23 22 20 19 17
23 23 23 23 23 24 23 24 24 22 23 14 12 7 10 20 9 9 11 20 21 20 19 18 21 15 16 8 13 10 10 9 12 18 13 21 16 15 19 19 21 20 18 17 14
24 23 24 24 23 23 24 24 25 21 21 11 7 4 11 11 8 13 14 19 20 20 20 15 14 17 21 6 7 13 14 11 16 21 6 9 11 15 18 18 19 18 18 16 14
25 24 24 24 24 23 24 24 26 23 17 10 5 6 18 10 19 14 19 23 22 21 19 12 15 19 19 12 11 14 13 14 13 23 12 4 11 17 20 18 17 18 17 17 14
25 25 24 24 24 22 22 22 28 19 9 11 11 10 20 16 16 17 21 24 23 21 19 12 13 16 18 12 15 17 18 20 13 13 15 14 11 14 21 20 18 18 16 17 18
25 26 25 23 22 22 22 20 11 1 7 14 9 14 5 15 17 20 24 26 24 24 19 21 15 18 19 18 18 15 12 17 14 22 25 13 16 18 21 21 19 21 19 19 18
25 25 26 23 21 19 21 14 18 17 18 21 28 26 18 18 16 22 27 25 23 20 21 17 20 21 18 20 20 19 9 11 15 17 11 17 17 17 17 20 23 23 21 21 21
25 25 26 24 21 13 13 18 19 17 19 32 27 30 23 16 19 25 28 28 22 23 23 21 22 22 17 16 16 15 10 10 14 12 4 8 20 11 14 18 22 22 23 23 24
26 25 24 25 13 9 17 8 8 14 10 20 25 31 29 22 19 27 30 28 16 24 22 23 23 21 18 17 17 18 12 18 16 13 11 15 13 18 22 17 16 25 26 26 27
26 24 22 20 21 18 16 14 12 11 6 9 26 21 29 26 24 25 30 32 20 19 18 22 21 24 21 19 16 13 16 17 12 12 14 14 9 15 16 17 17 25 28 28 29
26 24 24 13 21 11 11 17 12 7 11 5 17 18 25 24 27 28 29 33 28 20 21 22 21 19 20 19 16 18 9 14 8 11 14 17 12 6 10 18 18 13 29 29 29
27 23 24 23 23 4 8 11 8 10 16 13 20 21 22 17 24 22 25 26 23 18 21 23 24 16 15 18 20 14 12 8 10 11 13 16 15 11 19 19 20 21 44 30 28
29 24 22 26 18 11 9 9 16 16 25 20 16 21 22 22 25 25 25 23 27 23 15 17 19 21 16 20 16 13 16 10 13 11 13 13 9 16 14 24 33 37 44 33 33
30 22 19 19 9 15 15 13 17 23 22 25 18 15 21 22 21 22 24 25 26 27 21 18 21 22 22 18 17 16 17 18 18 14 7 6 9 10 8 7 4 8 12 27 25
30 24 22 16 19 15 12 20 22 29 30 17 17 16 21 23 27 25 25 25 26 26 27 19 14 21 18 17 16 17 17 13 12 10 11 8 10 10 15 9 10 8 6 9 30
19 10 11 19 18 19 14 22 25 38 29 19 16 17 16 21 25 22 22 22 27 28 27 25 17 21 22 16 21 15 12 9 13 11 9 10 4 13 11 9 7 7 9 5 12
7 6 13 16 13 16 15 25 34 27 34 17 15 19 18 19 24 25 26 26 35 27 28 25 8 13 27 21 24 20 17 11 9 9 8 10 4 13 11 11 10 7 1 6 4
9 19 17 18 13 14 20 25 30 26 23 19 17 22 21 21 18 26 26 27 32 28 25 18 13 10 14 20 20 18 16 20 18 14 13 11 4 8 9 9 8 7 4 9 15
8 5 18 22 24 20 20 23 24 29 26 20 14 18 23 21 19 19 24 21 34 28 21 19 18 13 14 16 17 21 22 22 20 11 14 12 6 9 9 9 11 7 7 7 15
6 8 12 7 14 18 21 21 19 22 21 21 14 22 12 14 15 17 18 24 24 15 15 16 12 17 18 21 20 17 24 21 21 19 16 9 19 4 7 7 2 3 3 6 8
11 9 20 22 26 16 15 23 18 20 17 20 18 19 17 17 7 11 14 11 21 16 12 11 9 12 19 20 19 22 22 23 24 23 23 20 14 22 17 17 9 0 4 9 8
13 15 11 13 17 12 12 11 18 22 17 13 11 8 12 16 15 9 12 12 5 7 16 14 13 13 16 18 20 21 21 22 18 16 14 11 7 14 14 7 2 1 4 8 9

GFSSW_850_spd_009.txt.gz
Wind_Speed
19 20 21 21 21 21 20 21 21 22 21 22 23 24 23 21 19 21 23 17 10 9 12 10 9 11 8 14 13 7 2 9 14 3 3 24 17 21 34 34 30 9 29 30 36
20 20 21 21 22 22 21 20 22 23 23 23 23 23 22 21 20 26 23 16 17 15 11 11 9 12 23 20 27 7 4 13 16 14 17 19 16 10 12 26 29 31 29 35 35
20 20 21 21 21 22 22 21 21 23 24 23 21 20 17 15 18 16 6 18 20 16 13 11 15 23 25 27 17 18 9 21 17 20 26 13 12 10 11 13 34 35 33 31 33
21 21 21 22 22 22 23 22 22 23 24 23 21 19 15 10 4 5 3 14 17 15 12 14 14 22 10 11 5 9 24 24 21 31 16 8 15 9 17 6 36 35 32 26 27
22 22 22 22 23 22 22 23 22 22 24 22 21 18 13 8 23 3 5 11 15 17 17 18 19 21 12 8 8 8 12 29 36 31 29 26 15 7 11 21 32 32 28 25 21
23 23 23 23 23 23 23 23 23 22 24 22 20 17 9 8 2 10 6 10 18 20 19 21 18 20 24 18 6 6 13 27 27 29 29 25 11 13 10 21 30 29 26 24 22
23 24 24 24 23 24 23 22 24 23 24 21 16 14 12 24 4 10 9 13 18 21 20 20 20 21 25 11 19 12 8 13 19 29 22 34 14 11 25 26 25 26 25 24 23
23 24 24 24 24 24 23 22 25 24 24 20 12 12 11 1 10 12 10 8 18 16 17 14 17 24 28 21 13 7 8 6 10 15 19 18 14 16 26 25 25 25 27 25 23
25 24 24 24 25 25 23 22 25 24 26 15 7 9 14 3 17 14 15 16 17 19 21 20 24 27 19 5 3 6 6 14 6 8 6 7 16 24 31 29 27 28 27 27 24
25 26 24 24 24 26 23 21 25 22 11 5 8 7 19 13 19 17 15 19 19 18 22 25 25 6 5 2 7 8 6 16 12 9 7 9 10 19 31 30 28 27 29 27 26
27 26 26 23 22 24 23 22 11 3 6 11 11 17 32 14 17 19 20 22 23 24 9 20 4 7 12 12 12 11 10 10 7 9 8 8 15 17 25 24 21 27 30 30 26
28 28 26 23 21 20 20 16 20 14 24 29 30 34 36 27 17 21 25 24 22 10 9 7 9 13 17 18 12 10 12 12 14 17 9 9 12 12 11 6 30 27 28 30 29
27 28 28 25 21 17 16 17 21 29 10 37 37 37 34 28 22 24 27 30 9 10 12 11 11 19 21 18 12 11 6 13 13 18 13 11 3 4 13 25 28 34 31 30 32
27 26 27 27 14 10 19 16 17 21 4 13 13 30 34 32 12 26 29 27 8 16 15 12 15 22 21 16 11 7 5 5 4 17 9 12 6 7 20 15 18 30 34 32 38
27 26 23 22 25 20 17 17 13 12 4 8 18 11 31 28 17 22 32 32 13 12 10 14 17 19 20 16 7 7 8 6 8 5 5 11 5 9 18 13 10 19 33 35 43
27 26 24 19 27 14 9 7 10 2 8 7 12 16 18 22 21 18 32 31 24 13 16 13 25 16 16 12 9 6 4 5 7 1 2 7 8 6 15 19 17 20 31 38 43
30 27 25 24 25 7 14 10 1 5 7 6 17 21 20 10 19 19 21 19 17 12 12 16 20 16 14 9 9 5 4 2 3 1 7 8 7 8 20 19 21 16 31 31 45
32 29 26 25 20 15 6 2 7 12 24 17 17 13 17 17 15 19 18 17 20 17 6 9 14 17 16 10 11 8 9 6 7 4 10 12 8 6 22 31 32 34 35 33 34
34 28 27 19 14 15 4 6 6 14 17 20 20 16 10 18 12 18 14 19 19 20 14 10 12 12 11 6 11 10 6 10 3 4 3 4 6 6 13 15 22 28 28 36 39
33 30 24 14 16 20 4 8 10 24 23 22 23 19 19 20 19 21 19 21 19 21 18 10 7 15 11 12 13 11 8 4 3 3 6 6 2 3 6 10 10 14 23 34 38
22 12 13 11 28 17 8 9 15 31 29 21 25 28 25 8 18 16 21 17 23 22 23 19 7 13 13 10 10 2 5 4 7 6 6 2 3 4 9 10 10 10 26 34 36
9 4 4 29 9 8 10 7 19 20 28 25 23 25 24 8 8 20 16 22 29 20 23 23 6 11 16 10 13 9 9 10 5 6 2 5 5 12 11 9 16 14 18 16 13
15 11 13 16 7 10 10 22 26 22 23 26 26 25 23 9 7 9 15 22 30 24 24 15 13 10 7 12 14 15 11 9 6 4 5 4 3 1 8 7 19 18 16 18 12
8 4 7 14 17 11 14 17 20 30 24 28 26 15 16 11 13 12 14 9 34 25 41 18 7 8 8 10 11 12 15 8 8 5 6 6 6 6 9 7 7 17 12 13 19
5 5 11 6 9 17 15 16 24 23 22 26 18 7 16 8 12 9 9 8 16 31 21 14 9 8 8 7 5 8 8 8 8 8 7 5 11 11 12 10 14 12 9 6 8
7 7 11 16 18 13 13 17 21 24 14 8 16 14 21 6 4 6 10 6 4 5 22 14 6 7 4 3 6 6 10 17 17 11 8 7 7 16 24 19 17 15 16 10 9
11 12 9 11 8 9 10 24 19 22 7 8 19 8 9 6 9 10 16 19 10 3 3 10 7 4 5 2 4 6 5 5 7 13 11 10 8 9 8 7 12 16 11 6 8

GFSSW_850_spd_012.txt.gz
Wind_Speed
18 19 19 19 19 18 18 19 18 18 20 22 21 21 21 20 20 21 25 20 11 14 11 10 6 4 1 2 12 8 5 4 4 2 1 17 24 22 21 34 16 7 30 36 34
18 19 20 21 20 20 19 19 20 19 19 21 21 22 20 19 19 25 21 19 15 17 11 9 7 5 6 6 7 5 4 8 3 4 4 18 29 23 19 25 23 26 31 37 36
19 19 20 21 21 21 20 19 20 20 20 21 21 22 19 18 18 9 5 14 21 20 15 12 11 9 9 21 13 8 3 9 6 11 17 17 18 16 28 14 36 35 42 41 42
20 20 20 21 22 22 22 21 20 21 21 22 20 21 18 14 6 2 3 9 22 19 18 16 11 4 4 6 18 6 4 14 16 18 17 12 15 8 19 22 33 42 45 42 40
20 21 21 22 22 23 23 21 22 21 22 22 22 20 16 10 21 9 3 6 21 22 23 16 7 5 3 2 10 8 14 22 27 23 18 15 11 11 20 32 34 40 38 40 35
22 22 22 22 23 23 24 23 22 23 22 22 23 20 12 6 4 11 4 7 17 24 23 18 7 3 9 5 4 23 28 28 29 22 17 17 10 14 25 34 34 33 34 35 31
23 23 23 23 22 24 24 24 24 23 24 22 22 19 15 24 9 6 10 6 13 21 22 19 18 12 4 10 15 35 16 15 16 20 11 30 9 12 29 34 31 30 25 25 28
26 25 24 24 24 24 24 23 24 25 25 24 19 17 13 16 8 12 11 10 14 19 19 15 13 16 16 15 6 10 15 8 7 23 16 12 6 11 32 32 27 30 29 27 26
25 26 26 24 24 25 24 23 24 26 24 19 9 8 14 7 12 13 16 12 8 19 17 12 12 17 14 0 5 5 9 16 8 8 10 6 9 18 33 32 29 31 31 33 31
25 27 27 25 24 26 24 22 23 20 11 4 5 6 11 4 9 17 13 14 13 16 15 14 8 3 4 4 5 5 9 17 14 11 3 11 9 21 29 29 30 31 30 29 36
27 26 28 26 23 25 24 20 10 4 14 14 24 24 34 30 20 18 17 15 19 12 6 6 3 7 10 8 7 4 11 13 13 11 10 18 13 20 28 28 28 29 30 32 36
27 28 27 26 24 22 21 14 9 14 15 33 32 34 39 32 20 21 21 15 12 7 5 4 7 11 7 5 5 4 7 12 3 12 7 13 17 20 25 30 32 31 32 35 35
27 28 28 25 23 20 15 13 12 24 6 19 32 32 39 16 26 30 26 28 5 7 7 7 8 6 5 7 4 5 10 13 9 7 7 12 1 6 14 25 24 32 43 44 41
26 27 28 27 16 11 16 5 16 15 3 9 8 16 26 23 10 25 25 27 5 14 6 7 13 9 8 8 6 8 11 18 9 15 7 8 7 7 14 15 10 24 33 38 43
25 27 26 22 26 21 15 11 8 1 4 6 6 6 20 18 4 18 33 27 11 7 8 9 10 14 10 16 8 12 9 11 12 16 7 5 4 18 7 14 14 18 35 39 45
28 27 27 21 27 17 8 7 1 5 8 7 4 6 7 10 11 18 29 31 20 6 5 10 17 8 12 18 10 14 4 7 5 5 2 11 12 4 10 26 18 18 33 37 45
31 27 26 28 26 16 15 11 4 4 5 6 3 5 8 7 6 7 15 11 15 8 6 7 19 10 15 7 8 5 6 1 2 0 7 8 10 14 21 24 23 25 38 41 49
34 28 26 27 21 16 8 3 5 10 19 4 12 14 4 4 9 7 9 14 13 5 6 6 16 17 7 13 11 8 10 6 7 3 6 7 6 10 17 35 40 34 46 44 48
35 30 28 23 16 16 14 3 9 7 3 3 6 6 4 4 2 9 10 16 16 12 12 6 9 7 12 11 9 9 4 9 7 1 3 4 8 8 6 17 25 26 36 41 46
35 32 25 11 15 25 3 8 7 5 7 8 0 4 5 6 7 6 12 14 16 11 9 8 3 8 13 6 7 13 7 3 3 6 4 5 5 6 5 13 14 16 28 34 43
26 17 7 6 22 16 4 8 6 20 17 3 2 6 10 12 9 15 17 13 24 19 13 12 5 11 1 7 12 1 3 3 6 5 6 3 6 7 9 16 18 17 32 32 43
12 5 10 22 3 5 3 5 3 11 22 9 8 16 15 16 18 17 18 17 31 24 13 10 7 14 20 14 11 9 10 8 6 5 2 5 6 4 11 16 22 21 29 34 37
23 10 8 15 2 3 5 7 10 9 11 8 11 15 15 16 14 20 12 10 22 27 21 10 6 9 10 7 3 7 6 7 5 4 7 6 6 4 5 9 17 20 23 24 29
7 4 6 2 9 2 6 6 8 12 13 19 20 21 17 17 11 6 7 5 15 29 42 16 6 10 15 9 5 5 8 7 8 5 6 6 4 5 8 12 12 30 33 30 27
4 4 6 4 4 11 4 6 10 11 8 12 11 10 11 14 8 4 5 6 5 27 24 14 10 7 9 19 12 14 16 9 6 8 9 8 11 10 14 16 22 33 28 26 30
6 6 9 9 16 5 6 3 12 17 7 9 5 7 7 5 4 5 1 3 3 7 6 6 8 10 16 17 8 7 9 11 9 6 1 6 8 9 22 18 22 33 33 28 21
8 8 4 8 5 5 3 11 19 20 8 9 5 3 7 5 15 14 13 8 8 4 3 11 7 6 11 6 7 2 5 3 3 4 5 7 10 11 5 7 16 23 25 25 20

GFSSW_850_spd_015.txt.gz
Wind_Speed
17 17 18 17 17 18 18 18 19 19 20 19 19 18 19 19 20 21 26 22 15 16 13 9 9 5 2 3 4 6 5 3 6 7 6 19 6 17 5 20 12 9 20 33 29
19 18 18 19 18 18 18 18 19 20 20 21 20 18 20 20 21 26 22 18 17 14 15 14 10 5 2 3 4 5 3 6 8 7 12 16 21 18 13 18 12 23 29 32 31
20 20 19 19 20 20 19 19 20 21 21 20 21 20 19 19 22 11 7 13 22 22 16 13 9 4 1 4 4 5 6 6 9 14 29 23 18 14 24 7 31 34 39 38 35
22 22 22 22 21 21 21 21 20 21 21 22 21 21 20 15 6 1 3 5 21 26 22 16 9 4 2 2 10 4 8 10 13 20 20 18 20 12 17 10 33 38 39 40 36
20 22 23 24 23 23 23 22 21 21 22 22 22 21 20 9 23 16 18 7 18 29 27 16 13 9 5 7 5 8 6 14 19 21 23 19 8 9 13 23 29 37 37 38 35
21 20 23 24 25 25 24 24 22 23 22 22 22 22 16 7 8 8 12 8 17 30 27 20 10 12 3 8 5 10 6 12 16 17 14 14 12 15 18 27 33 37 37 37 37
24 23 22 24 24 26 26 25 25 24 23 22 22 21 18 26 16 14 9 10 14 25 23 20 15 3 2 4 5 18 5 7 6 6 6 22 4 8 31 33 33 33 37 36 35
24 25 24 24 25 26 27 26 26 25 24 22 21 18 13 16 15 15 12 12 11 17 16 13 10 5 3 6 5 9 5 6 4 7 13 6 5 13 30 34 32 31 34 36 35
25 24 25 25 25 26 26 25 25 26 24 17 9 7 12 7 9 13 14 11 10 13 15 10 8 7 6 3 5 5 13 5 6 10 4 2 5 18 30 30 29 29 34 34 35
26 27 26 25 25 27 25 24 23 16 7 4 5 5 11 2 7 8 14 14 10 10 12 10 7 4 4 5 6 11 8 8 11 16 6 6 6 18 30 29 29 29 31 33 33
27 27 27 25 25 26 25 23 8 4 13 11 17 21 32 19 16 13 9 17 16 13 6 7 4 7 11 9 7 10 8 17 10 8 5 8 8 20 30 27 26 28 28 32 37
26 27 28 25 25 23 20 6 5 7 16 28 33 36 37 30 16 19 15 12 9 6 5 3 8 12 6 7 9 8 9 13 2 9 5 7 8 18 24 29 33 33 32 36 39
25 26 28 24 24 18 11 5 3 15 6 18 34 33 43 22 21 28 13 9 4 7 7 7 6 8 7 6 8 5 8 10 8 10 5 9 4 12 13 19 26 30 36 34 40
25 26 27 26 14 10 9 9 10 16 3 8 5 8 19 21 9 24 25 14 4 12 7 6 7 7 5 6 7 4 8 8 10 17 8 8 5 9 13 15 15 26 31 34 37
28 27 27 25 25 17 11 11 11 3 5 5 5 3 6 21 10 18 27 17 11 5 7 8 7 7 5 7 8 9 9 9 9 15 5 5 4 6 13 10 21 26 32 36 41
29 25 28 25 27 15 6 10 3 4 8 6 5 2 4 6 9 8 18 21 18 5 3 10 5 7 10 6 9 2 4 8 6 5 5 12 8 5 10 27 26 24 32 38 43
32 27 25 31 25 18 12 9 2 5 4 5 3 5 3 3 9 5 6 8 10 10 5 4 8 4 4 4 4 5 7 2 3 2 6 9 7 11 18 24 28 27 35 39 44
33 30 27 29 22 19 8 3 6 6 13 5 7 9 3 3 4 6 7 8 5 5 4 7 9 9 3 8 8 7 10 6 7 5 6 7 7 12 18 28 38 34 39 34 41
35 31 27 19 12 18 14 3 7 6 4 3 5 3 4 4 5 4 5 12 16 10 8 7 8 3 6 6 11 4 4 9 5 1 3 5 6 8 7 11 24 33 29 35 42
38 33 14 13 7 22 4 5 7 6 4 2 0 2 2 4 6 7 2 6 8 12 7 8 3 7 13 5 6 13 7 1 2 6 5 4 3 5 6 6 12 14 25 37 43
28 15 9 6 13 13 4 8 7 17 14 3 2 5 4 4 5 2 7 9 11 11 14 8 6 6 4 8 12 3 3 3 5 4 7 4 7 9 8 8 14 19 36 39 40
14 4 10 17 1 2 3 7 6 5 9 5 5 6 6 2 6 5 8 8 14 9 11 10 7 12 14 5 3 7 10 9 7 6 1 4 7 3 9 9 18 23 30 35 45
18 9 4 10 1 3 6 5 5 3 7 5 7 8 5 5 5 8 6 17 26 14 16 9 4 7 8 4 1 4 5 6 3 4 9 6 6 1 4 7 19 20 30 40 46
7 4 4 4 2 2 4 5 4 9 8 8 8 9 9 8 11 6 11 13 27 11 36 20 6 15 16 9 5 5 6 8 8 5 6 7 7 4 7 9 10 26 30 39 43
3 3 3 3 3 6 2 4 4 4 4 9 4 13 11 6 7 5 10 19 10 8 10 15 9 8 19 16 6 7 9 7 8 12 10 11 10 10 12 12 20 37 36 35 39
5 5 8 9 10 5 2 3 4 4 4 7 8 10 11 8 11 5 8 6 7 7 0 4 7 10 8 11 15 11 14 13 17 2 3 6 7 7 16 6 13 29 35 35 35
6 6 5 7 4 4 2 4 8 12 11 18 9 4 5 8 8 14 21 17 8 6 3 6 11 6 17 6 6 4 11 6 6 5 7 5 10 7 4 7 18 29 37 42 38

GFSSW_850_spd_021.txt.gz
Wind_Speed
17 18 17 16 15 16 17 19 18 18 18 18 18 19 19 19 19 21 22 18 7 14 12 12 12 12 15 8 7 4 2 5 7 9 6 14 7 8 6 15 5 6 11 16 26
18 18 18 19 18 16 16 17 19 18 19 19 18 19 20 21 23 23 17 17 13 16 20 20 17 16 8 6 6 6 3 11 10 10 9 14 12 12 5 17 7 7 15 26 27
17 18 18 19 21 20 18 17 18 19 18 19 19 20 20 19 23 1 2 4 12 19 16 24 13 16 10 7 7 4 3 6 10 15 18 16 12 10 11 13 12 15 25 30 26
17 17 19 19 20 21 21 20 18 19 20 18 18 19 20 17 7 2 9 10 8 17 21 17 19 11 8 9 8 5 4 8 11 18 20 20 15 9 18 3 14 20 29 28 26
20 20 19 20 21 21 21 21 20 19 19 19 18 18 18 10 22 18 12 12 12 10 27 23 19 12 10 8 6 4 4 6 6 18 19 20 17 8 16 2 15 25 29 27 26
22 22 22 21 20 21 22 22 21 21 20 19 18 18 15 11 11 7 10 9 9 12 27 25 14 13 8 5 8 5 6 9 10 17 20 18 12 12 13 13 20 27 28 26 25
23 24 25 25 24 22 21 22 23 21 21 19 18 17 17 28 22 24 18 18 8 13 28 27 10 10 8 7 7 14 9 10 12 17 9 18 9 13 16 17 22 26 25 24 24
22 22 23 25 27 27 23 22 23 22 20 18 15 14 11 16 14 13 12 8 8 12 23 22 11 9 2 10 7 5 6 7 8 14 11 18 13 13 20 23 24 25 24 25 23
26 27 25 23 24 26 24 22 21 21 17 14 9 6 9 6 3 4 6 8 9 14 17 17 12 3 5 9 6 3 7 10 10 12 9 14 6 14 22 24 24 26 26 25 23
24 26 28 25 25 24 22 18 18 14 10 7 8 4 10 4 6 6 6 8 9 19 9 6 5 6 4 10 13 12 8 8 8 13 9 13 9 6 19 23 25 26 26 26 26
23 24 25 24 26 23 16 12 6 4 5 8 5 8 6 5 9 6 7 15 13 9 9 5 9 15 17 15 12 15 15 16 9 10 11 14 12 7 17 22 24 25 27 27 29
25 27 28 22 24 17 13 5 3 5 12 21 26 32 30 19 7 14 9 9 8 9 7 6 15 14 14 13 9 15 15 14 7 12 12 11 14 10 17 27 28 27 28 29 28
26 26 29 24 23 7 11 5 4 11 5 14 14 13 11 21 17 20 14 11 11 11 13 13 8 10 13 12 12 12 17 14 14 12 4 6 15 15 14 22 24 28 29 28 30
26 25 30 27 8 18 2 2 14 12 3 6 4 4 7 8 8 28 22 13 4 16 12 10 9 17 13 18 15 17 15 16 16 12 13 12 11 11 16 18 22 29 31 32 30
27 24 27 25 22 14 7 10 10 2 5 1 3 2 6 8 2 10 26 16 12 9 7 9 11 14 21 20 15 12 12 18 17 18 9 9 7 14 8 16 23 31 35 36 33
27 25 27 26 21 9 1 7 1 3 8 3 2 5 4 8 2 6 14 14 15 12 4 14 4 14 15 17 18 10 12 6 5 9 9 17 14 13 9 15 22 27 35 36 35
29 27 24 26 17 15 10 2 4 6 1 4 5 3 8 5 6 8 15 16 13 17 15 12 14 7 11 18 15 14 16 7 8 7 9 12 12 17 11 19 22 20 34 41 39
31 29 25 19 15 14 9 4 11 5 12 1 1 6 5 2 5 12 14 19 18 18 13 16 14 17 14 18 15 21 20 11 17 10 10 4 11 13 17 29 18 21 20 28 36
30 28 20 12 9 11 11 10 9 9 4 5 7 10 8 3 4 11 12 20 21 22 15 15 17 4 12 9 18 15 13 17 9 1 7 7 6 10 13 15 18 27 21 27 33
31 27 6 9 8 15 6 13 8 7 4 4 8 5 4 3 3 8 9 8 14 21 21 10 7 15 17 14 9 16 15 10 8 17 15 8 5 7 6 13 16 15 22 28 33
24 13 7 2 10 8 6 8 10 14 9 8 12 12 8 4 3 2 2 2 8 18 21 15 12 6 8 18 21 8 9 5 7 9 15 15 13 8 13 13 12 16 23 28 28
11 4 3 9 4 3 4 5 4 6 16 13 5 14 13 8 8 5 8 5 2 10 13 14 13 14 15 7 9 24 20 18 11 12 6 11 14 5 14 14 12 18 20 16 21
12 8 8 11 4 4 4 6 6 9 8 9 15 12 10 14 8 11 12 12 17 5 7 9 9 11 15 16 9 8 17 21 19 14 18 15 12 4 6 10 19 22 20 17 15
5 4 3 7 4 4 4 6 5 7 12 16 7 7 8 9 10 4 6 5 7 13 10 10 6 12 16 20 16 16 12 17 19 15 16 17 18 10 10 12 16 22 23 20 17
3 3 3 3 2 8 4 5 10 5 4 3 9 18 14 14 17 19 15 16 15 11 5 7 10 16 20 22 23 24 22 21 19 23 19 18 18 17 15 17 20 26 17 17 18
5 3 6 8 12 9 6 4 8 5 3 8 7 4 12 14 15 12 17 15 14 1 12 7 5 8 15 25 23 27 27 23 23 24 20 22 16 13 17 16 16 22 18 19 23
5 6 5 7 4 4 4 4 3 9 7 14 11 10 10 11 9 11 18 18 11 6 9 7 5 5 7 17 20 22 25 24 20 21 21 20 14 11 12 15 21 23 26 30 31

GFSSW_850_spd_024.txt.gz
Wind_Speed
14 14 14 15 15 16 17 18 16 15 15 15 16 17 17 18 17 19 15 8 9 11 10 14 14 12 14 9 7 5 7 4 5 5 10 15 10 9 7 14 9 7 11 22 25
16 16 15 16 16 16 16 18 19 17 16 16 15 16 18 19 19 18 16 15 15 14 18 20 17 17 13 12 8 10 8 3 5 7 13 15 10 12 10 15 13 10 16 25 26
17 17 17 17 17 17 16 16 18 19 18 17 17 15 16 17 17 4 7 5 16 17 15 17 13 17 16 11 11 10 10 3 5 8 17 16 11 11 9 13 15 15 22 28 26
17 17 18 18 18 17 17 18 18 19 19 18 17 16 16 12 5 6 5 11 5 17 16 21 19 21 15 13 13 9 3 1 7 11 16 16 15 10 12 8 13 14 25 27 25
20 19 19 19 19 19 19 19 19 19 19 19 18 16 16 10 17 13 16 6 9 15 23 24 28 25 18 15 11 12 5 5 4 12 13 15 14 10 14 4 14 18 27 27 25
20 21 22 22 21 21 20 21 20 19 18 19 19 17 13 16 10 8 7 6 3 18 23 26 23 26 12 14 15 11 6 3 7 13 14 14 15 12 13 8 18 23 26 26 25
21 21 22 23 24 23 21 21 22 20 19 18 17 16 14 22 12 15 18 10 10 14 18 28 19 22 16 12 8 8 9 6 9 14 11 15 13 13 17 15 18 23 25 24 24
21 22 22 22 22 24 23 21 21 21 19 17 14 11 11 12 14 15 12 13 12 13 18 23 19 19 13 8 11 13 11 10 11 15 10 17 14 16 19 19 19 23 24 24 24
23 24 23 23 23 21 21 21 19 19 18 12 8 6 10 9 8 7 12 10 11 11 14 20 18 18 15 16 14 13 14 15 11 16 10 15 7 18 19 20 20 22 24 24 23
26 27 25 24 23 22 19 18 17 15 11 7 8 6 12 7 8 4 9 14 13 16 18 20 18 13 15 17 17 17 18 16 13 16 12 16 9 4 18 22 21 22 23 24 25
25 26 26 25 23 20 13 11 6 5 7 12 4 9 3 4 8 6 13 15 14 20 17 25 17 22 24 22 20 15 15 15 14 14 16 15 14 11 13 19 21 24 25 26 27
25 28 27 24 23 9 14 4 2 6 14 20 26 27 24 10 9 14 17 16 19 19 18 15 22 22 20 22 23 18 18 17 13 9 15 13 15 13 14 19 22 25 26 27 26
25 27 30 24 16 10 9 3 4 11 8 14 17 17 17 22 24 23 22 23 18 20 20 19 20 20 21 20 23 21 20 18 14 12 15 9 14 15 16 19 20 25 27 29 29
27 25 30 26 6 16 3 5 11 10 5 6 8 8 11 10 11 30 29 23 16 22 20 20 18 22 19 24 22 23 21 18 16 14 13 14 11 13 16 18 19 25 29 31 31
26 24 27 25 21 10 8 9 9 2 6 7 7 7 12 13 3 18 30 28 20 18 18 20 21 20 24 24 23 23 17 17 18 18 17 14 9 13 5 14 18 25 30 32 31
26 24 25 22 20 10 4 3 2 7 9 6 9 11 10 14 8 7 29 29 22 20 16 22 17 19 23 21 23 20 12 15 18 16 19 21 14 14 13 15 16 18 29 33 34
25 25 21 24 10 14 10 3 6 9 4 9 10 14 9 10 14 13 22 26 22 21 22 22 21 17 18 23 24 21 18 12 15 15 15 20 16 16 9 12 14 14 23 30 32
27 25 22 19 18 14 11 8 14 4 17 4 7 13 14 9 10 17 19 24 28 24 16 21 22 26 18 26 26 28 26 15 25 16 14 18 16 19 19 24 24 19 14 21 31
29 22 19 15 15 12 15 15 11 16 12 13 12 13 18 14 7 14 20 24 29 27 24 20 27 27 25 19 26 28 27 25 23 20 17 18 15 22 14 17 19 19 18 20 26
29 20 13 9 11 12 11 25 21 17 10 13 21 15 18 19 13 13 16 14 25 30 25 14 15 21 24 22 27 28 23 24 21 25 23 21 21 13 17 19 19 17 16 21 24
16 11 6 8 8 13 14 22 22 30 19 18 21 19 15 12 14 15 14 11 17 25 25 24 15 18 20 26 25 21 20 25 23 22 18 18 18 16 14 13 12 12 15 17 17
9 6 4 5 9 13 14 18 8 16 27 21 18 21 21 19 16 15 13 11 3 17 28 27 15 17 25 26 27 25 25 27 18 25 20 21 17 18 20 18 24 25 20 14 14
10 14 9 8 7 13 15 15 15 20 20 22 26 22 21 22 20 20 18 12 8 8 17 22 21 15 19 19 24 29 27 28 26 21 27 20 19 16 11 12 14 17 17 14 11
7 5 8 10 16 11 15 13 20 18 19 23 21 22 23 23 21 15 17 14 15 17 15 8 19 23 18 24 21 21 27 29 28 20 22 25 22 23 22 18 19 15 17 20 15
6 4 3 5 6 9 12 15 15 14 17 17 19 24 22 23 23 24 20 14 10 9 9 15 18 17 25 23 24 25 25 26 29 29 27 24 29 22 23 18 22 24 22 21 14
7 5 4 17 20 14 13 13 15 15 13 16 17 12 26 22 20 18 19 20 17 14 16 14 14 18 21 24 24 21 25 27 28 28 29 31 30 22 27 34 28 28 26 25 21
8 9 11 10 9 8 11 13 8 10 12 18 15 11 10 8 9 10 14 10 16 16 17 17 14 16 19 21 23 25 27 27 29 28 28 28 25 24 28 24 30 30 31 28 27

GFSSW_850_spd_027.txt.gz
Wind_Speed
16 16 16 16 16 17 17 16 16 16 17 17 18 17 17 17 16 17 13 13 14 13 11 12 13 14 12 15 18 11 4 12 6 10 15 11 11 8 10 16 12 8 21 26 25
16 17 17 17 17 17 17 18 18 17 17 17 17 18 18 19 19 20 20 20 18 14 15 18 18 15 17 16 17 13 4 8 6 13 16 10 12 12 13 16 15 11 23 26 26
17 17 17 18 18 18 19 18 18 19 18 18 17 17 17 17 21 10 10 15 19 20 17 18 15 16 18 18 17 17 8 10 9 7 16 12 14 11 14 12 18 20 25 27 26
18 17 17 18 18 19 20 20 20 20 19 19 17 16 16 13 7 5 7 4 3 19 19 20 20 20 18 16 16 16 15 7 10 6 12 12 15 11 11 14 17 18 25 27 25
19 19 19 19 19 18 20 21 21 20 20 19 17 15 15 11 21 16 14 15 8 16 22 24 25 24 20 18 18 14 8 4 6 8 13 15 11 14 9 10 17 18 26 27 24
21 21 22 21 21 20 20 20 21 20 20 20 18 15 14 20 10 12 11 10 12 20 24 25 24 26 21 22 17 12 13 1 5 13 10 10 15 13 14 11 19 21 26 26 25
23 24 24 23 23 24 21 20 21 20 19 19 16 15 14 23 7 10 14 13 12 19 23 27 27 24 25 19 20 18 5 8 8 14 12 13 15 14 19 15 20 21 24 25 24
21 23 24 23 24 24 24 22 20 19 18 17 13 10 13 9 12 21 19 17 16 17 21 20 26 25 24 24 18 15 15 14 15 13 13 19 18 18 20 19 21 22 23 24 24
25 24 25 23 23 23 23 22 20 19 17 14 5 7 21 9 14 16 20 20 19 18 18 20 24 30 21 19 15 17 16 20 15 16 13 18 12 18 22 19 20 22 24 24 24
27 26 26 25 24 22 19 18 19 18 13 8 9 8 21 14 9 11 15 18 20 19 18 23 23 19 19 19 17 21 21 20 19 17 12 14 7 18 18 21 20 22 23 24 25
29 29 27 25 23 22 16 9 8 5 12 17 9 15 7 9 9 10 13 19 21 22 19 27 19 25 28 26 22 22 20 11 15 23 18 17 13 13 18 18 21 25 25 26 26
28 31 27 25 22 11 14 9 4 8 16 23 31 31 25 10 12 16 16 21 22 19 23 19 25 26 26 26 26 27 22 18 14 20 19 18 18 15 20 17 20 23 27 27 27
28 28 30 23 15 6 13 6 4 14 10 21 30 33 32 27 27 20 23 27 21 23 26 24 25 27 28 26 26 26 25 17 17 20 17 18 19 18 17 21 21 21 24 28 29
27 25 29 27 6 12 5 4 8 12 7 12 10 14 26 25 24 32 29 29 19 24 24 26 22 27 28 30 27 25 25 19 19 16 13 19 15 21 20 21 20 24 25 27 30
25 24 25 20 18 8 8 10 10 4 7 12 12 11 20 24 8 30 36 31 25 22 19 25 23 28 30 29 28 25 25 22 22 18 23 23 17 12 21 24 19 22 27 27 29
25 23 23 13 13 15 14 7 5 7 12 10 12 14 19 26 14 12 34 34 28 23 23 25 27 28 24 27 25 23 24 24 23 19 16 19 18 19 17 19 20 26 27 27 28
28 25 21 21 11 5 7 7 7 11 4 12 16 20 22 21 21 15 26 27 25 24 23 23 28 24 21 22 26 29 25 16 17 17 19 26 20 20 16 15 18 19 24 26 27
31 27 19 16 14 11 10 10 17 11 29 2 16 20 23 21 22 21 24 24 29 26 18 22 22 30 22 29 28 31 28 20 26 18 20 25 23 21 18 10 20 15 18 27 28
29 21 17 13 15 14 17 17 14 22 17 19 15 19 23 22 17 24 26 25 28 28 25 21 26 22 28 27 28 30 29 27 27 24 20 20 23 19 7 19 17 18 19 18 26
25 22 20 10 11 14 14 29 22 32 15 15 26 19 23 25 21 21 24 24 27 30 29 23 18 24 26 25 28 34 24 27 23 28 26 25 23 16 20 17 18 16 19 21 20
17 11 3 4 8 16 16 24 27 44 36 23 25 25 26 24 27 25 25 20 23 26 28 27 20 16 25 31 31 22 28 25 26 24 21 19 19 19 19 18 22 22 26 23 25
16 7 4 4 11 13 18 27 29 30 33 28 26 28 25 27 27 27 29 22 22 19 30 27 18 18 21 23 28 28 29 31 18 28 20 22 19 14 17 15 13 20 19 15 22
14 21 19 15 11 14 23 28 28 27 28 27 26 30 27 28 24 23 17 23 10 10 21 23 24 18 21 22 27 30 33 32 32 22 27 22 21 17 4 17 26 23 21 24 7
12 7 14 19 22 17 20 21 21 24 23 21 27 26 27 29 26 22 24 24 17 12 17 10 22 27 20 24 18 28 30 32 30 24 21 26 26 23 23 14 11 12 14 15 14
10 12 5 10 10 10 18 15 14 17 26 25 25 28 26 27 27 28 27 23 26 21 19 16 21 26 30 27 23 24 30 30 34 29 28 25 31 28 24 23 20 27 24 26 21
7 9 13 19 23 20 18 18 18 20 15 20 24 22 23 27 23 26 27 28 19 20 19 22 19 21 24 26 27 25 25 26 28 30 30 31 30 24 30 31 21 22 27 23 20
14 16 16 12 16 12 13 23 18 13 8 18 11 15 19 21 22 21 26 25 23 22 23 24 19 19 22 22 21 25 26 27 28 28 28 29 27 23 25 25 25 28 30 29 30

GFSSW_850_spd_030.txt.gz
Wind_Speed
18 18 17 17 17 17 18 18 18 17 17 17 17 18 18 21 20 21 22 16 19 20 16 11 16 17 19 21 21 15 5 7 9 17 16 10 12 22 21 21 23 17 27 30 26
19 19 19 18 18 18 18 19 19 19 19 18 17 17 18 21 23 27 24 17 15 18 19 18 18 19 23 20 19 13 5 6 18 12 15 13 12 15 14 16 20 27 28 28 30
19 20 20 20 20 20 20 20 20 20 20 19 18 17 16 19 22 15 12 21 24 23 19 19 18 19 22 19 23 5 5 24 34 20 19 14 15 12 20 14 14 32 30 28 28
21 21 21 20 21 21 22 22 21 20 20 20 18 17 16 13 7 1 2 7 18 24 20 22 23 23 19 18 9 13 25 29 2 9 18 15 18 9 13 20 22 25 28 28 26
21 21 21 21 22 22 22 23 22 21 20 20 18 17 16 11 27 17 14 9 4 17 23 24 25 24 20 19 20 16 24 37 10 6 12 22 15 12 10 23 23 26 28 29 26
23 22 21 22 23 23 22 23 24 22 20 20 18 17 14 18 12 15 18 15 14 15 23 24 22 23 25 20 20 21 24 20 6 11 13 15 18 15 13 20 24 27 29 28 27
25 25 24 23 23 24 23 22 23 23 21 19 18 16 14 29 8 14 12 17 16 18 22 24 23 22 24 22 24 25 19 14 7 11 10 8 14 12 21 16 23 27 28 27 26
25 25 25 24 24 25 25 23 22 20 20 19 14 13 14 17 14 19 15 18 17 19 19 20 22 26 27 23 25 22 20 14 16 14 13 16 4 8 22 21 23 26 27 27 26
27 26 24 25 25 25 24 22 22 19 18 16 9 7 17 10 20 22 23 22 20 19 19 20 23 26 25 21 18 20 16 17 9 13 16 11 13 19 10 21 24 25 27 27 26
31 30 27 24 24 24 22 19 18 19 13 10 12 10 25 19 15 18 22 23 22 20 21 22 22 17 19 17 17 22 19 20 17 18 18 21 13 17 34 21 25 26 27 27 28
33 32 31 25 23 21 18 11 12 4 9 18 11 17 18 14 17 14 18 23 23 24 20 27 16 21 26 25 24 24 20 24 14 18 19 19 17 16 39 27 25 27 27 28 28
32 33 31 28 22 12 11 9 9 10 17 25 37 34 32 18 15 17 19 22 25 20 22 20 25 26 24 26 26 28 26 24 22 26 27 17 25 32 32 24 27 29 28 29 29
33 33 34 28 16 5 13 15 11 14 12 24 38 41 43 30 26 22 26 26 23 23 24 25 24 25 26 26 28 27 26 22 10 24 23 16 18 22 23 27 26 27 33 31 31
32 30 31 31 6 8 9 6 10 13 7 11 16 29 35 37 34 31 29 27 19 24 24 25 25 26 27 29 28 26 26 26 14 17 13 20 14 17 21 23 22 27 27 34 33
28 27 26 19 22 16 9 13 13 6 7 4 16 7 23 37 9 38 37 32 25 24 17 24 25 28 29 31 30 25 26 24 22 17 19 18 13 14 18 20 24 22 29 29 35
26 24 24 17 14 12 15 15 9 6 11 7 12 11 18 30 35 17 42 37 31 24 24 24 28 28 27 27 29 26 25 25 22 18 14 16 13 25 19 19 7 24 30 30 30
27 25 19 20 20 8 5 8 6 10 9 14 17 15 20 21 27 18 27 30 26 24 24 25 27 25 25 24 27 28 25 15 17 17 17 23 22 14 12 15 5 12 27 35 34
26 25 18 16 16 9 9 8 16 11 28 12 12 19 22 22 25 28 23 25 31 25 18 22 21 29 24 29 25 25 26 16 20 18 19 23 20 14 23 23 15 36 37 37 34
27 23 23 16 16 13 16 15 11 20 16 19 23 20 23 25 23 27 28 26 31 32 25 21 25 20 30 23 27 26 26 26 25 23 17 18 17 21 17 16 28 40 12 11 17
30 27 20 12 13 17 14 28 19 28 26 25 25 22 26 24 27 28 28 27 28 32 29 24 18 23 24 27 29 28 18 24 20 26 25 20 20 12 19 20 15 17 22 29 32
21 15 21 7 13 18 16 23 26 40 38 30 29 29 29 26 27 28 28 26 29 28 29 27 22 20 24 27 27 20 23 24 21 21 17 17 16 16 18 22 19 22 25 29 19
18 9 11 7 14 15 17 27 32 31 40 32 29 30 31 30 28 29 31 27 24 28 29 27 18 20 27 26 29 30 29 28 18 22 18 19 16 16 7 21 20 19 23 22 22
16 23 24 26 16 14 22 29 30 28 28 31 31 31 28 30 28 30 29 25 28 26 26 22 22 17 24 25 25 30 28 27 27 23 21 19 17 22 8 12 20 17 24 29 29
10 7 21 24 33 19 14 19 25 31 28 28 24 23 30 30 28 29 28 29 31 30 8 19 21 28 19 20 19 24 29 29 27 19 22 20 20 26 10 20 18 16 22 13 15
7 8 19 9 14 9 9 14 22 26 23 25 17 20 15 14 26 28 30 31 31 15 12 15 16 20 28 31 27 27 29 28 28 26 22 23 21 24 23 12 13 10 13 12 10
6 12 15 25 28 22 15 20 18 26 20 24 17 19 20 18 14 17 28 25 24 21 20 19 18 17 24 28 30 28 27 27 30 29 29 26 25 20 26 28 14 27 22 19 18
11 17 13 13 18 17 16 13 14 20 15 19 11 14 19 19 27 33 36 37 32 25 17 20 16 16 21 23 24 26 30 24 24 26 23 24 23 17 16 13 14 21 24 22 30

GFSSW_850_spd_033.txt.gz
Wind_Speed
20 20 19 18 18 18 18 19 18 18 18 19 19 19 20 22 22 24 30 26 20 18 17 12 12 14 16 18 12 25 2 9 8 7 8 17 14 27 33 44 31 10 37 37 35
19 19 19 19 19 20 20 20 20 20 18 18 18 19 20 23 25 30 27 22 18 14 22 21 16 10 16 18 11 7 3 8 11 0 1 25 31 28 26 29 12 34 31 44 37
19 19 19 19 20 21 21 21 21 21 21 18 19 18 18 19 25 16 13 13 22 16 15 15 17 19 22 15 13 12 8 11 14 22 10 18 20 28 27 16 34 37 37 47 38
21 21 20 20 20 21 22 22 22 23 22 21 19 18 17 14 6 5 5 1 14 17 21 19 20 23 14 6 11 6 21 12 7 18 20 12 24 22 25 27 42 43 46 46 39
23 22 22 22 22 22 22 22 22 22 22 22 21 18 17 10 29 12 11 10 6 17 26 22 23 23 13 11 15 6 7 13 30 33 20 22 16 18 22 41 42 39 37 39 38
25 24 24 24 23 24 24 23 23 23 21 21 21 18 15 12 17 7 19 21 16 15 20 24 21 23 19 18 13 18 16 16 17 28 17 12 13 20 31 42 39 37 34 29 31
28 27 26 25 25 25 25 24 22 22 21 19 19 19 19 37 9 6 15 16 16 18 16 23 23 24 19 14 29 11 10 13 18 19 17 22 9 10 35 40 38 35 32 28 26
32 30 28 27 26 26 26 25 23 21 19 19 17 16 18 29 13 15 20 19 14 16 19 18 19 23 23 19 22 14 9 8 10 10 20 19 3 16 31 37 34 36 33 32 32
35 35 33 30 28 29 27 24 21 20 18 16 11 10 17 13 19 28 24 25 20 21 22 14 19 26 19 8 8 8 10 10 3 3 5 8 6 11 13 30 32 35 34 33 34
34 35 35 33 27 27 27 20 14 15 9 7 10 7 21 19 17 19 23 22 22 19 19 23 19 10 9 7 11 10 8 11 7 10 7 9 7 11 16 11 32 35 36 34 36
36 34 31 30 26 23 22 16 14 5 3 11 11 14 33 15 13 20 24 29 26 21 11 21 8 16 13 15 13 14 15 13 5 11 7 4 12 16 18 15 19 35 37 37 39
34 35 36 31 23 14 11 11 13 20 17 23 37 43 41 26 16 25 27 24 21 13 10 10 19 12 14 12 18 21 18 19 12 7 9 16 16 16 15 22 24 31 37 39 39
29 32 34 33 20 5 10 16 16 16 10 23 38 32 43 37 36 23 30 32 15 18 19 17 9 18 18 19 19 23 20 15 10 5 7 7 11 11 13 20 25 27 42 43 45
28 27 29 33 8 8 4 10 8 18 5 9 10 14 25 29 13 38 36 30 14 19 18 16 18 19 22 22 18 20 21 21 15 15 8 13 8 15 15 19 16 28 39 41 44
30 27 25 20 26 19 16 12 13 14 6 7 8 6 16 29 14 32 36 34 18 18 11 19 19 21 20 24 19 23 13 18 18 7 14 12 3 8 18 17 21 24 38 42 45
28 28 26 22 20 17 12 7 10 2 10 7 10 8 12 24 18 8 37 33 24 16 18 17 20 19 20 15 20 15 15 20 15 6 4 16 9 8 9 23 23 24 36 46 45
28 26 26 23 23 13 13 6 2 7 8 8 6 12 18 11 21 17 22 23 18 19 18 20 23 16 21 17 16 20 15 12 10 10 5 20 15 13 13 10 26 23 30 36 46
33 26 19 23 22 6 3 3 10 8 14 17 16 10 17 14 20 24 23 23 25 18 8 14 17 22 15 25 15 18 17 13 10 11 9 7 10 10 16 18 27 37 34 28 30
34 30 23 17 12 12 12 9 6 9 8 17 19 10 14 17 15 20 22 21 25 23 20 14 19 8 23 17 20 8 20 14 6 10 6 7 9 6 19 7 13 23 31 31 32
34 32 25 8 14 24 11 16 8 14 24 16 11 9 9 14 14 17 20 17 21 27 23 16 7 21 18 22 17 18 6 14 12 15 18 15 9 7 18 14 14 12 15 14 21
23 13 14 11 15 24 16 13 17 28 32 13 14 23 24 23 19 23 14 22 22 25 26 25 20 18 19 18 22 8 17 10 7 14 9 8 14 6 10 20 19 20 33 33 37
12 5 10 22 13 11 12 17 29 26 33 25 20 26 26 25 27 25 23 20 19 26 25 24 17 17 24 15 23 24 14 11 9 5 5 10 15 8 7 23 27 27 31 36 51
12 20 20 12 5 10 14 21 24 21 17 16 23 24 22 25 24 15 23 27 29 22 25 16 20 12 15 17 20 24 20 15 13 5 15 5 12 17 14 14 23 27 26 27 39
8 5 10 22 12 13 11 12 13 20 16 19 17 22 20 24 17 16 23 20 21 19 23 9 20 28 20 19 5 7 22 19 19 16 10 23 9 15 5 8 14 29 29 15 19
5 6 16 7 12 17 4 7 19 10 15 19 10 17 17 11 15 9 12 15 21 22 15 4 15 21 27 16 16 25 14 26 25 21 17 14 16 14 14 10 11 20 20 23 24
6 6 9 18 19 17 14 11 17 13 9 11 13 22 14 8 17 20 19 15 11 14 16 10 8 11 10 20 27 20 19 24 26 24 21 16 17 5 8 17 14 17 34 14 15
9 12 10 6 10 13 12 17 18 14 12 11 13 13 21 19 15 27 27 26 21 22 20 9 4 4 9 7 4 11 30 22 13 18 19 19 12 7 9 4 11 23 30 34 32

GFSSW_850_spd_036.txt.gz
Wind_Speed
18 18 18 18 18 18 19 19 19 19 19 20 19 19 19 21 22 24 31 24 18 19 16 8 17 23 22 14 10 14 4 3 7 3 11 30 16 23 17 30 16 5 30 37 36
20 20 20 20 20 20 20 20 21 20 19 20 21 20 20 22 24 29 22 19 19 18 17 20 22 28 13 16 11 6 3 6 10 5 8 27 34 25 17 26 10 26 32 35 38
21 21 21 21 22 22 22 21 22 22 21 20 20 20 18 20 24 10 7 4 15 25 23 12 14 25 15 18 13 6 6 5 13 4 12 25 31 26 33 15 36 37 38 39 40
25 25 24 23 24 23 23 22 22 22 22 21 20 19 17 15 7 2 2 6 11 24 20 15 23 22 11 11 15 5 10 13 14 28 6 14 28 24 35 21 45 44 46 44 40
26 25 25 25 25 26 24 24 23 23 22 22 21 19 15 12 31 19 10 0 9 18 20 22 23 16 8 10 14 7 7 22 22 20 13 17 24 25 21 37 37 43 46 45 43
26 26 27 27 26 26 26 25 24 23 23 23 21 18 14 12 21 10 16 21 12 12 16 23 14 22 7 9 15 13 13 20 31 24 17 15 18 17 29 39 39 47 47 44 45
30 29 27 26 27 27 27 26 24 24 23 22 21 19 20 40 11 0 9 16 20 18 16 17 27 14 3 1 23 22 7 15 16 27 9 18 6 16 41 45 43 45 42 39 43
33 33 33 30 28 27 26 24 24 23 22 20 19 18 18 22 18 20 23 23 17 21 18 10 19 24 19 15 6 3 2 4 14 17 8 9 11 21 43 43 40 42 39 37 41
32 32 33 33 30 27 27 23 22 18 16 14 12 11 16 12 18 17 22 22 18 22 16 13 16 20 12 2 5 2 4 7 5 13 6 4 5 24 41 38 37 37 39 36 36
31 32 33 31 29 26 25 20 13 9 5 4 7 6 16 13 8 9 28 24 22 20 24 18 10 5 1 4 7 6 3 2 4 17 29 11 5 22 35 36 37 38 38 38 37
34 34 34 32 26 23 19 13 9 3 15 15 16 18 26 15 10 12 27 26 26 20 10 13 5 13 11 7 7 5 7 7 4 7 18 17 14 23 32 30 31 34 37 38 44
33 33 34 32 30 16 7 8 14 15 19 25 33 41 44 36 13 10 24 22 15 8 5 5 12 9 9 7 10 12 15 13 5 3 2 11 16 19 16 30 38 36 35 38 40
33 33 35 33 24 5 11 6 15 20 7 17 31 33 32 29 25 31 17 32 8 7 10 13 7 11 9 10 11 13 17 8 6 3 4 7 2 6 6 6 23 31 40 40 45
31 32 34 37 9 26 7 9 13 11 4 8 7 11 19 15 12 43 28 30 7 18 7 10 14 13 17 14 14 14 15 9 7 5 9 8 5 8 15 12 14 29 35 39 44
28 28 29 28 31 28 18 13 10 2 6 4 5 3 16 19 12 24 39 30 17 9 9 9 18 19 17 18 17 14 10 9 9 6 3 3 3 6 10 19 13 22 36 43 46
31 26 26 24 32 14 20 9 2 4 8 7 6 6 7 7 3 9 26 27 12 13 9 19 17 15 19 14 17 11 8 6 4 4 10 13 13 6 9 10 20 22 37 41 42
35 32 22 26 26 21 19 10 3 5 5 2 6 8 6 7 7 3 19 17 15 12 17 10 17 9 9 10 10 11 6 5 5 6 10 11 11 12 19 13 21 25 36 37 46
36 35 29 24 27 22 7 3 6 5 9 9 12 9 5 3 7 6 5 20 17 4 7 11 9 16 11 18 14 10 16 9 8 4 5 6 9 10 12 20 38 44 46 41 47
35 35 30 25 12 7 5 4 7 6 6 14 12 5 6 5 12 6 15 11 19 17 10 8 10 4 15 14 19 10 11 11 7 3 2 4 7 8 12 8 19 36 36 40 48
33 29 27 16 8 9 2 4 5 4 14 10 3 4 9 14 11 17 5 10 13 14 10 7 3 11 22 9 17 19 7 5 1 12 15 5 7 6 8 14 17 24 33 43 47
27 13 21 5 21 10 7 7 5 27 15 8 15 15 15 12 7 9 11 15 5 10 20 20 9 10 4 13 16 8 11 3 6 9 13 8 15 8 10 12 14 21 44 45 43
12 4 18 20 7 3 7 7 16 20 29 13 11 16 10 10 14 10 12 10 24 18 13 9 12 16 26 9 12 21 16 13 11 8 5 16 19 3 10 10 15 24 37 42 38
16 15 22 19 4 6 9 10 9 10 9 6 5 5 5 4 7 7 12 9 24 14 7 8 10 11 8 12 12 8 12 18 6 4 20 7 2 9 6 5 14 15 17 25 35
7 4 8 8 9 11 11 6 11 17 7 11 6 4 8 3 4 9 11 11 30 19 23 13 6 12 21 11 6 7 17 13 17 12 11 21 5 6 1 7 9 25 32 34 37
3 4 6 4 6 10 8 5 11 8 10 7 5 6 6 4 5 4 7 16 13 10 15 6 6 5 10 16 19 11 11 22 22 21 20 8 10 10 9 9 9 24 28 40 44
4 5 7 8 10 5 5 3 7 8 5 6 7 9 5 3 7 12 14 9 5 8 10 4 5 7 7 12 23 22 19 21 17 21 19 8 8 10 14 19 14 21 31 33 29
11 17 11 6 3 3 3 8 14 11 9 12 13 8 10 13 14 23 26 27 14 6 6 4 3 7 6 6 18 17 33 16 12 9 10 11 8 9 8 8 12 18 27 29 36

GFSSW_850_spd_039.txt.gz
Wind_Speed
18 18 18 17 17 18 18 18 19 18 19 19 18 18 19 20 20 22 27 22 17 19 8 23 19 25 25 16 8 7 3 4 5 8 4 20 7 15 4 20 9 7 22 35 34
20 20 20 20 19 19 19 20 20 19 18 19 19 18 19 21 24 27 18 18 20 21 23 23 30 33 12 10 9 5 4 8 5 4 12 22 20 20 8 15 3 14 27 36 34
21 21 21 21 21 21 21 20 20 21 20 20 19 17 18 18 21 2 3 4 21 26 23 22 28 26 7 9 11 6 5 3 5 12 21 23 16 11 23 8 15 34 40 39 37
23 23 23 23 23 22 22 22 21 21 21 20 20 16 17 13 6 3 3 1 17 29 26 30 34 12 8 7 12 4 15 10 3 3 27 18 18 9 27 11 32 40 46 43 40
24 25 24 24 24 24 24 23 22 21 20 21 21 17 15 11 28 12 8 6 16 35 35 34 34 17 7 8 7 5 12 12 15 4 18 26 22 15 27 9 32 37 42 44 42
26 26 25 25 25 25 25 24 23 22 22 21 20 17 14 11 15 7 13 21 14 30 33 29 24 30 6 5 14 8 25 20 17 12 10 20 22 16 27 25 35 40 41 42 43
29 29 28 27 27 27 25 23 23 23 24 22 19 17 20 34 9 6 13 17 21 23 29 28 18 26 10 3 15 24 3 9 16 10 9 20 7 17 24 34 35 38 38 42 42
31 32 32 30 29 29 27 21 20 22 22 18 16 16 14 11 13 32 23 17 14 19 22 13 24 24 8 5 5 3 5 4 11 16 17 16 9 16 33 36 34 36 35 37 41
31 32 34 33 31 31 27 19 19 16 15 11 8 10 12 10 14 18 27 29 23 20 24 15 19 14 9 3 4 5 4 6 2 11 7 11 6 9 38 37 33 35 36 35 34
34 35 35 35 34 34 24 15 6 4 3 4 4 4 13 7 1 3 16 24 22 22 15 16 11 6 4 5 9 5 3 2 5 5 13 7 5 19 34 34 35 36 35 36 35
35 36 37 36 39 24 18 4 6 1 7 11 6 10 16 11 9 6 10 28 21 16 8 10 7 12 9 7 5 6 3 4 4 8 1 13 6 21 31 28 28 32 34 36 39
31 32 34 34 32 21 20 8 15 11 17 24 30 38 41 34 11 13 13 21 12 8 6 2 14 8 8 8 8 6 6 6 5 6 9 10 9 19 22 32 37 37 37 40 37
31 31 32 28 22 23 17 7 18 21 7 15 26 25 24 28 21 30 22 25 6 9 9 11 6 11 9 6 9 6 10 5 7 0 2 5 3 12 18 12 24 30 37 40 42
32 30 31 34 12 28 5 17 16 14 4 8 6 7 14 12 9 44 26 29 5 19 8 6 9 10 7 10 10 10 5 6 8 5 5 6 5 14 17 18 17 27 33 36 39
35 31 29 26 30 27 17 18 11 1 6 3 3 4 13 17 3 18 39 23 14 9 9 10 14 17 13 14 8 9 6 7 6 5 1 5 2 7 18 16 21 25 39 40 42
35 34 30 28 31 12 23 18 4 3 9 5 3 4 4 6 5 8 17 19 11 5 4 15 9 14 17 9 13 5 3 2 0 3 7 12 8 9 10 26 23 26 38 46 46
35 34 29 32 33 24 20 12 3 5 6 5 5 7 3 3 4 4 18 12 11 8 15 5 18 4 7 9 6 6 7 4 3 4 11 10 7 15 9 15 21 24 40 46 49
37 34 28 24 19 6 4 3 6 3 4 5 6 10 1 10 4 6 12 18 13 4 9 9 5 17 7 10 11 10 14 6 8 4 7 5 10 13 16 18 30 31 42 45 46
34 32 30 14 15 7 6 3 6 4 4 10 8 4 6 7 10 10 7 15 17 11 8 9 9 4 12 7 17 8 12 12 3 2 3 5 8 6 9 11 14 20 23 34 44
32 30 14 9 27 9 3 4 4 3 9 5 4 6 6 9 8 11 6 4 9 12 5 7 2 8 10 11 10 14 8 4 2 11 14 5 7 6 10 17 12 10 23 34 40
25 15 12 24 18 6 3 6 6 20 9 7 5 4 2 5 7 5 5 7 14 11 7 1 4 4 7 8 19 3 9 4 7 6 10 2 10 9 9 11 13 15 30 38 41
12 4 18 23 8 4 3 12 7 14 23 7 4 5 2 5 3 2 6 3 20 10 6 7 2 15 18 5 14 19 14 12 5 10 6 11 10 3 17 14 9 15 28 41 45
19 7 12 10 4 6 9 9 14 11 8 6 4 5 5 3 4 3 5 8 21 11 7 8 4 2 6 3 3 8 10 16 13 1 21 7 6 8 7 7 15 18 25 27 34
8 5 7 5 7 3 4 5 10 10 9 7 3 4 5 3 3 5 9 4 16 10 15 4 3 5 11 4 5 8 10 15 16 11 14 20 4 4 7 11 9 15 22 25 34
3 2 2 4 3 5 7 4 7 9 8 11 4 6 3 2 2 3 3 9 7 8 7 4 4 4 7 11 15 15 15 25 19 24 16 14 14 13 10 10 11 18 18 19 29
4 3 3 9 10 4 4 3 3 6 5 4 6 10 4 4 4 4 4 2 5 6 6 5 4 5 6 10 13 16 19 24 29 23 14 7 8 9 17 25 16 25 22 23 32
6 9 6 6 3 2 3 1 9 15 7 6 15 14 7 8 11 17 18 18 14 5 2 2 2 5 5 6 10 12 31 20 12 13 18 14 8 8 8 10 15 30 32 31 30

GFSSW_850_spd_042.txt.gz
Wind_Speed
18 18 18 18 18 17 18 18 18 18 18 17 17 17 18 19 18 22 27 20 15 12 16 26 24 20 24 15 8 7 2 4 3 5 3 16 5 10 7 17 5 4 14 28 37
20 20 20 19 19 18 18 19 19 18 18 18 17 17 18 20 22 26 21 20 19 25 26 29 29 28 11 10 6 4 3 6 5 5 5 18 12 14 5 16 4 12 18 35 37
20 20 21 21 21 21 20 19 19 19 17 17 17 17 16 17 20 4 1 4 20 25 26 22 24 24 7 8 8 6 5 3 4 8 15 20 13 12 12 5 13 28 37 39 39
22 22 22 22 22 22 21 22 21 20 19 18 16 17 16 12 5 3 2 3 17 27 28 26 30 11 6 6 12 3 14 12 9 5 18 14 17 7 22 4 17 26 45 44 40
25 24 23 23 23 23 23 23 23 20 19 18 17 17 15 10 27 10 8 7 16 31 33 34 33 12 7 8 10 6 5 8 11 9 20 19 20 11 24 4 16 35 42 43 41
28 28 28 27 26 25 24 24 23 21 19 18 18 16 14 7 11 8 21 22 13 36 35 34 27 23 4 5 10 9 11 14 9 9 10 16 10 11 15 12 27 36 40 40 41
30 30 31 30 30 30 27 24 23 21 20 19 18 18 19 28 11 9 13 18 13 37 39 36 18 21 5 3 13 13 7 6 6 8 7 12 4 12 11 23 33 32 34 37 38
32 32 32 32 32 34 27 23 21 17 18 15 13 17 13 9 21 23 12 19 17 30 34 32 27 24 17 4 5 2 4 0 7 6 9 16 13 16 23 30 30 31 30 36 36
31 32 33 33 33 30 26 22 14 11 10 6 8 11 9 10 19 20 29 25 26 27 29 12 29 10 9 3 5 4 4 5 6 7 4 12 7 12 34 33 29 32 32 32 37
32 33 32 32 31 24 25 13 7 6 2 3 5 5 14 5 5 8 26 32 25 26 22 16 8 5 1 5 10 5 4 4 5 3 7 8 11 11 33 33 33 34 32 33 38
32 33 34 30 31 21 22 6 7 2 6 10 4 7 3 10 6 8 16 29 21 25 8 11 5 11 13 8 4 6 4 6 4 3 5 9 5 9 25 25 25 30 33 34 42
33 34 36 29 29 18 12 11 13 13 16 21 29 38 31 9 4 13 16 20 12 7 8 5 19 11 9 8 8 6 3 5 5 7 3 5 9 8 16 27 34 34 34 38 34
33 33 35 33 19 19 5 16 21 19 6 17 19 19 21 30 19 23 24 18 7 9 18 17 6 12 10 6 12 6 12 5 5 6 2 5 4 8 10 8 20 26 32 34 37
33 33 34 35 11 28 5 15 23 11 3 7 5 5 11 12 8 42 30 24 6 20 9 6 8 20 10 12 11 9 7 6 8 1 4 5 5 5 13 19 17 25 33 37 38
33 33 32 33 32 24 15 18 18 1 6 0 2 6 12 11 1 12 37 22 10 8 9 11 14 13 19 15 10 8 7 9 6 5 1 3 1 6 11 13 19 24 34 38 43
34 31 36 31 24 21 22 15 3 3 9 3 4 3 4 7 4 5 16 12 10 6 1 8 5 12 10 8 12 9 6 6 5 4 7 10 8 5 8 20 20 25 35 38 40
33 31 33 17 22 20 17 7 2 5 6 5 4 5 4 5 2 4 9 13 11 8 9 5 11 4 7 8 5 8 6 1 1 2 11 10 7 15 11 18 24 26 41 42 45
34 32 16 15 21 21 8 3 5 2 3 4 5 8 2 8 4 6 8 17 5 5 8 8 6 16 6 10 11 9 10 6 7 5 11 6 10 8 13 18 29 34 42 40 40
33 28 15 17 22 19 6 2 4 3 7 9 8 4 5 5 5 5 4 6 8 4 7 7 9 4 10 6 16 6 9 10 5 2 2 5 6 6 5 12 15 28 30 35 41
32 23 19 21 22 8 4 4 4 5 12 6 4 6 5 7 6 7 6 8 11 7 6 3 2 7 18 6 12 10 11 4 1 6 6 5 4 6 10 12 14 9 25 36 40
24 11 16 23 9 4 2 5 6 15 14 4 5 6 4 4 4 5 5 7 12 10 7 6 3 3 8 11 16 4 5 3 6 6 6 1 6 8 10 15 19 19 29 36 39
13 4 18 17 8 3 3 8 13 12 13 5 3 4 3 5 3 4 5 4 14 9 5 2 1 6 7 2 14 20 14 7 8 7 5 4 8 4 10 11 11 15 31 34 35
17 6 10 16 4 4 6 6 5 7 8 6 4 4 3 4 4 4 5 6 20 9 5 5 2 2 4 8 3 5 10 7 4 2 18 7 6 8 6 7 15 18 24 22 23
8 4 7 7 4 4 5 5 8 13 5 9 9 6 6 5 5 4 4 5 13 6 9 2 1 3 3 3 3 6 8 9 15 11 13 20 3 4 8 10 10 22 25 29 27
5 2 3 4 5 8 4 4 7 7 5 7 4 12 9 3 4 2 4 5 6 8 5 3 0 2 4 11 8 12 16 14 20 21 13 10 15 10 9 10 18 34 26 21 22
4 3 3 7 10 6 4 3 4 6 2 5 4 12 12 3 2 4 4 1 5 5 5 5 3 2 4 10 14 13 14 17 14 12 17 12 9 9 18 21 14 19 21 24 23
5 9 5 6 4 4 2 3 7 9 8 9 5 10 10 6 9 12 16 19 12 1 3 3 2 2 4 6 9 12 13 13 10 10 12 17 11 7 9 10 16 30 33 30 33

GFSSW_850_spd_045.txt.gz
Wind_Speed
18 18 18 19 19 19 18 18 17 17 17 17 16 17 17 17 17 21 26 17 12 19 12 19 22 21 17 9 6 1 2 2 3 4 2 13 7 7 6 17 5 5 12 20 31
19 20 20 20 20 20 20 20 20 18 18 17 17 16 17 18 20 25 19 20 20 17 19 30 26 25 10 10 5 3 2 5 4 5 4 13 12 14 7 17 7 10 17 31 33
20 21 21 20 20 20 21 21 21 21 19 18 17 16 15 15 19 11 5 6 22 21 20 26 26 22 10 9 8 7 4 2 4 8 5 12 11 12 12 12 13 21 29 34 34
22 23 22 22 22 22 22 22 23 22 21 19 18 16 14 10 6 6 4 6 16 26 25 23 26 14 10 9 12 5 13 9 3 2 3 13 11 10 13 4 14 22 34 38 34
25 24 24 24 23 23 23 25 25 23 21 19 19 16 13 9 24 9 7 1 23 32 33 27 31 17 12 10 10 11 5 4 12 12 8 12 16 10 15 3 15 25 33 33 33
27 27 27 25 25 25 28 24 26 24 21 19 19 17 13 9 10 12 23 16 14 34 29 24 22 16 11 6 13 6 13 11 9 12 7 12 10 8 11 15 20 30 34 32 31
29 29 30 28 27 28 22 27 25 22 20 18 18 18 18 25 13 11 15 21 19 27 34 29 11 20 6 5 12 12 9 7 12 11 6 10 8 13 13 18 24 26 32 30 30
29 29 29 30 30 29 25 26 22 15 14 15 17 17 13 9 24 12 15 17 22 25 25 25 14 21 4 3 1 4 5 7 6 12 9 17 12 16 22 26 26 27 28 30 30
30 31 29 30 29 29 25 21 14 12 6 6 10 12 8 10 20 27 12 20 25 25 17 15 16 8 6 11 7 2 7 9 4 15 7 15 13 14 29 26 27 30 29 30 29
30 32 30 29 30 24 21 17 13 11 4 3 4 6 12 5 8 21 25 20 22 22 15 11 15 11 10 12 13 8 8 5 9 6 11 16 17 5 29 29 30 32 30 30 32
31 32 33 29 30 21 17 8 8 4 7 10 4 7 3 6 8 15 34 24 16 23 14 18 12 22 24 17 13 9 7 13 9 6 6 13 16 13 23 27 27 30 32 32 35
32 32 33 32 25 20 10 8 11 13 16 18 25 35 23 3 3 15 40 18 17 16 15 8 25 20 14 17 19 17 17 17 9 6 4 7 11 10 17 27 32 34 34 35 29
33 32 32 31 17 24 11 5 16 24 7 13 13 12 22 25 9 20 36 25 20 21 27 24 6 20 17 15 19 23 23 18 8 4 5 8 12 6 13 19 24 29 31 28 34
35 34 33 31 13 22 5 12 21 16 4 6 5 5 11 11 10 21 33 24 12 26 22 21 20 22 21 23 21 23 20 21 17 9 10 4 13 8 13 18 21 28 31 34 34
35 34 31 26 21 17 21 18 13 1 6 5 4 6 7 12 1 15 34 22 20 18 15 18 24 21 25 29 20 17 14 17 19 14 12 15 9 16 8 15 22 27 34 36 38
33 32 28 18 17 24 23 13 1 4 9 2 3 2 5 11 3 4 21 21 15 11 19 18 10 22 18 20 22 11 10 8 3 9 16 22 14 16 12 19 18 25 33 34 36
34 29 18 14 22 22 22 6 4 6 8 6 4 7 6 2 5 5 18 26 17 16 16 20 13 15 18 17 20 20 17 8 10 11 14 14 13 19 9 17 19 21 33 37 39
32 23 12 17 19 20 18 2 8 5 5 10 9 14 3 6 1 2 13 23 22 19 14 18 15 20 19 19 13 28 23 9 15 16 14 7 15 13 17 24 22 26 29 32 33
32 19 15 25 20 17 7 4 3 6 9 13 12 3 1 3 6 4 2 20 20 12 14 19 18 13 20 18 20 19 25 23 12 1 5 12 15 12 11 17 24 24 25 26 32
31 17 19 27 19 8 2 4 3 10 15 8 5 7 6 10 5 4 3 7 6 3 4 5 7 13 27 18 22 14 19 10 13 14 15 8 10 14 18 20 19 20 25 28 31
23 9 19 18 11 6 3 5 6 11 16 7 7 7 7 6 7 5 6 8 13 6 5 2 6 3 15 23 23 11 20 13 12 12 10 9 11 7 16 19 22 23 31 32 31
15 3 18 14 8 4 4 12 12 9 10 5 6 5 3 5 4 5 3 6 16 11 1 4 3 11 13 12 21 24 19 26 12 12 15 8 8 2 12 11 15 22 27 28 27
12 5 10 13 4 7 8 7 10 9 8 6 5 6 5 4 4 4 5 4 16 12 7 6 3 11 10 9 9 24 22 24 21 14 19 12 7 9 10 8 14 14 17 19 23
8 4 5 6 2 5 8 6 8 10 3 8 6 6 6 1 2 3 5 4 12 9 10 4 1 9 14 9 4 5 14 23 24 17 17 22 17 9 11 9 13 19 22 15 16
6 2 3 4 5 11 5 6 12 8 8 6 2 7 6 2 3 4 6 6 4 9 6 4 2 5 6 8 8 10 13 11 19 25 23 21 24 19 15 13 16 14 13 18 15
4 4 3 8 9 8 6 4 9 9 9 8 4 10 11 3 4 7 8 4 3 5 4 6 2 3 10 10 12 14 15 15 17 19 18 22 25 8 17 28 25 27 29 25 27
6 8 6 3 4 6 4 4 8 17 8 6 9 15 12 11 11 17 16 16 14 9 5 4 2 3 7 8 13 15 21 20 17 16 16 22 18 16 19 13 21 28 29 27 25

GFSSW_850_spd_048.txt.gz
Wind_Speed
18 18 18 18 18 18 18 18 18 18 18 18 17 18 17 17 19 23 27 20 11 19 11 16 19 18 18 13 8 5 6 7 4 4 10 13 11 8 7 15 8 6 11 24 32
18 19 19 19 19 20 20 20 20 19 19 19 18 17 17 17 19 27 26 21 19 16 20 24 26 23 21 15 9 10 8 2 5 1 5 12 8 12 10 15 12 9 16 31 33
21 21 21 20 20 20 21 22 23 22 21 20 19 16 15 14 16 13 12 13 23 22 21 21 22 24 17 12 13 8 5 1 3 3 3 11 9 9 10 11 15 17 27 34 33
23 22 22 21 21 21 22 23 24 25 24 22 20 16 12 9 5 4 4 10 12 24 23 23 26 25 16 12 15 8 12 5 5 5 1 5 8 10 11 6 15 19 29 36 34
24 24 24 22 22 23 23 25 23 24 24 23 21 15 10 10 18 9 7 3 18 27 28 28 29 26 17 15 12 16 8 7 10 8 7 6 10 7 12 7 16 22 29 33 32
25 26 27 26 25 26 27 25 25 23 21 21 20 15 10 14 11 13 19 14 21 28 29 27 27 23 13 9 15 10 16 10 9 9 6 9 8 10 12 11 19 25 29 32 31
26 26 28 28 28 29 29 24 25 20 17 17 18 14 14 23 13 10 14 18 23 27 30 26 17 25 8 11 11 13 10 11 13 12 7 9 11 12 16 17 21 25 28 30 30
28 28 28 29 29 30 28 23 23 17 13 10 13 12 12 10 16 15 15 19 22 22 21 23 16 25 11 2 8 14 15 14 16 14 9 15 11 16 19 21 22 25 28 29 30
30 30 29 30 31 26 25 24 21 17 11 4 5 9 8 12 17 18 19 21 23 22 19 20 20 22 24 12 12 13 14 19 11 16 9 15 9 16 22 23 23 27 29 30 29
32 32 32 31 30 22 23 24 18 14 6 2 3 6 12 5 9 23 20 17 26 24 19 20 19 16 17 17 17 17 18 16 16 15 13 15 15 6 22 23 24 26 28 30 31
32 32 33 31 29 19 25 15 9 4 7 11 3 7 1 3 8 21 25 26 21 27 17 29 19 26 27 24 20 13 12 18 15 9 13 16 15 12 16 22 23 26 28 30 31
34 34 33 30 22 21 15 6 8 9 18 20 26 30 22 3 10 20 30 22 25 23 21 18 28 23 22 22 21 22 17 19 13 7 9 16 15 13 13 22 25 26 29 30 28
33 33 34 31 16 20 10 8 13 14 10 16 16 19 19 25 15 26 39 31 25 28 30 24 14 24 24 23 23 23 23 18 15 11 14 13 15 15 11 17 23 26 28 27 30
32 31 30 28 9 18 6 18 17 9 6 7 7 6 14 17 15 23 38 36 20 29 28 24 15 26 22 26 25 25 24 18 16 12 13 15 15 19 20 17 18 25 27 31 33
29 27 25 19 16 11 19 21 13 2 7 7 6 6 7 21 7 29 32 40 22 18 28 21 25 23 27 25 24 21 17 18 21 18 17 21 10 16 12 18 19 21 29 31 33
30 27 20 16 12 16 22 19 1 6 9 3 5 6 8 17 10 15 28 37 29 23 24 26 17 23 23 19 23 11 18 15 15 17 19 24 20 17 17 18 18 22 27 31 32
28 22 13 16 16 22 20 8 7 9 6 5 7 5 10 10 18 13 26 31 21 23 28 24 28 19 18 23 20 23 20 11 14 17 20 19 21 20 9 17 20 19 26 30 33
27 17 10 13 20 20 13 8 13 4 8 17 13 18 12 4 12 17 20 26 31 26 17 20 21 29 27 25 23 29 25 13 20 15 18 18 17 22 22 24 8 23 23 25 30
23 12 8 17 18 13 10 8 10 13 14 15 19 11 10 5 6 9 21 23 31 29 26 21 27 26 21 22 24 25 27 25 17 9 10 15 19 16 13 18 25 24 22 27 27
21 8 11 20 14 7 7 5 8 11 16 17 16 5 8 5 8 7 15 6 15 34 7 17 17 20 26 27 26 19 24 22 17 22 20 13 18 13 18 23 19 22 28 25 27
13 5 12 18 10 9 5 8 14 17 14 10 15 14 14 12 9 6 1 7 8 1 6 16 14 22 21 26 26 22 18 23 17 17 13 14 13 16 17 17 22 21 27 29 29
14 4 15 16 4 6 7 10 13 15 16 14 15 17 14 12 11 4 3 9 10 8 12 12 10 13 26 24 25 27 24 27 14 23 20 15 10 8 5 12 18 21 25 27 26
12 7 11 12 5 6 10 12 11 10 10 10 8 15 14 14 6 3 1 5 12 10 2 1 13 15 14 18 24 26 27 24 25 16 21 18 5 8 7 4 3 9 10 15 20
9 5 5 4 3 10 12 10 11 10 5 10 5 12 14 17 12 5 3 3 10 9 12 8 11 21 19 16 18 26 27 29 28 20 19 19 15 13 8 4 7 8 9 7 9
5 4 5 6 8 11 10 12 11 8 10 10 2 6 9 7 10 13 6 10 4 7 6 7 12 7 15 3 5 11 29 30 29 27 26 19 20 19 11 10 8 7 6 4 5
7 6 3 14 8 11 8 8 10 11 12 11 9 12 11 8 12 9 11 7 5 5 5 5 3 6 15 11 9 11 14 16 21 28 27 26 24 13 12 15 24 21 19 18 18
6 8 5 7 9 6 7 8 12 14 9 5 13 15 11 9 14 18 18 18 16 11 8 5 5 7 15 12 11 16 22 21 19 20 18 23 17 16 20 16 17 19 16 18 20

GFSSW_850_spd_051.txt.gz
Wind_Speed
18 18 19 19 19 18 19 20 21 20 20 21 19 20 18 18 19 21 26 17 12 18 13 14 21 21 20 19 16 9 11 8 7 13 7 12 13 9 11 16 9 3 20 30 32
20 20 20 21 21 21 21 22 22 22 22 21 21 19 17 18 20 26 27 21 19 16 17 21 26 25 24 22 17 16 11 12 12 21 8 13 16 12 12 14 13 15 26 31 31
21 21 21 22 22 23 23 24 25 26 23 22 20 18 16 13 17 19 16 21 23 21 20 21 22 25 25 20 22 20 6 27 10 1 25 14 19 11 15 11 15 21 30 34 32
23 24 24 24 24 25 25 25 27 24 23 25 20 15 13 7 6 3 5 10 18 27 23 25 25 28 23 22 21 18 12 9 6 7 5 10 19 15 6 15 16 19 29 35 34
24 25 25 26 26 27 28 27 26 22 25 23 20 12 10 12 24 18 9 6 17 27 30 30 30 30 23 20 16 18 16 14 6 8 7 3 11 11 13 10 17 21 28 32 31
26 27 27 27 28 29 29 28 25 23 21 19 16 11 11 19 9 14 11 12 17 30 30 29 30 30 27 20 18 15 19 13 15 14 12 14 12 15 19 14 19 24 28 30 30
27 28 28 28 29 30 30 27 25 22 18 17 12 10 14 25 8 9 15 17 19 26 28 28 24 27 22 18 16 19 13 16 15 13 12 19 18 18 24 20 22 24 27 29 29
29 29 29 30 30 30 27 27 25 23 18 13 6 9 13 6 20 16 15 20 19 22 23 24 24 25 28 19 6 17 18 17 20 19 18 18 14 16 23 23 23 24 27 29 29
29 30 30 30 29 28 24 29 26 18 14 5 3 10 13 11 18 21 21 25 24 21 22 21 23 19 28 18 14 17 17 21 19 21 17 18 9 21 24 24 24 25 27 29 30
31 31 30 30 29 25 26 21 25 16 9 4 7 8 15 11 13 20 24 24 27 24 22 22 21 18 18 20 19 22 22 20 20 21 20 17 10 9 24 23 25 24 26 28 31
31 32 32 30 26 23 27 18 9 4 9 16 7 17 7 9 6 18 26 26 29 28 22 28 19 26 30 28 23 22 22 22 20 13 20 18 14 20 21 23 25 28 28 29 30
29 30 30 28 19 23 19 15 10 12 19 26 36 35 32 11 12 18 28 26 28 26 25 19 28 27 26 26 28 27 22 22 14 18 19 18 18 19 19 22 22 27 29 29 28
29 29 28 23 15 17 11 18 15 14 10 24 32 32 30 30 23 25 37 36 29 30 31 29 19 28 26 25 26 27 25 19 19 17 13 10 16 16 19 20 22 26 28 28 30
27 26 25 22 8 15 8 20 17 11 7 9 8 8 24 24 19 30 38 42 19 32 30 30 24 27 27 29 27 28 26 22 20 19 17 22 15 20 18 17 17 26 30 32 31
28 27 21 19 11 13 20 20 15 4 7 10 9 4 8 26 7 33 38 42 26 23 28 31 24 21 28 27 28 26 23 23 21 18 18 20 18 16 24 23 22 22 31 30 32
26 24 19 12 12 16 20 18 7 7 14 3 5 6 10 23 29 23 34 42 39 24 25 29 24 23 20 26 23 21 21 20 23 19 19 24 20 16 14 19 23 25 28 30 33
24 21 13 11 15 20 18 12 8 9 7 10 15 19 18 13 22 20 30 31 30 30 30 27 32 23 21 23 23 23 20 14 17 18 17 25 23 19 16 20 19 20 30 30 31
22 16 8 9 17 17 12 12 12 15 17 21 21 25 23 21 17 25 24 27 34 30 17 22 24 33 22 28 24 26 25 16 22 19 18 24 25 23 24 22 15 28 29 32 32
23 10 4 14 15 13 14 10 11 14 19 20 26 22 15 15 8 22 26 27 30 34 31 25 31 30 32 26 27 24 27 26 23 23 17 21 21 25 21 24 20 14 25 31 32
20 14 6 17 13 10 10 12 13 15 18 17 20 17 24 22 9 17 20 20 26 34 32 29 19 32 28 26 29 30 22 24 18 24 19 20 15 16 21 16 19 24 19 28 29
17 12 5 17 9 15 9 8 14 15 16 16 19 24 23 16 24 26 20 5 10 12 26 33 24 18 27 28 27 25 24 28 21 19 17 12 11 14 15 19 22 20 30 28 30
14 7 15 15 12 3 8 8 10 15 13 14 15 21 23 19 21 22 23 7 13 14 18 36 12 22 30 28 27 28 30 27 18 24 18 13 8 9 5 9 15 22 24 32 29
18 18 6 13 6 8 10 14 19 11 11 7 6 10 21 19 6 14 10 9 10 12 12 3 16 17 25 26 25 30 28 28 26 20 22 17 10 13 7 1 12 16 22 23 27
13 7 11 15 9 12 12 13 15 8 9 7 6 9 18 17 17 11 9 11 9 11 14 10 17 23 20 24 23 29 31 30 27 19 19 20 17 12 10 8 5 4 7 13 21
8 6 9 7 13 11 12 16 13 12 5 11 0 6 10 8 17 8 10 13 18 3 10 7 15 19 25 19 8 26 29 31 31 23 25 16 21 15 15 10 11 15 10 6 5
8 6 10 18 18 11 13 15 13 9 13 16 8 4 13 11 10 12 15 12 6 13 8 7 13 19 22 21 8 14 19 33 28 28 23 23 17 15 12 10 5 7 7 6 9
13 19 10 10 13 11 10 12 15 19 13 11 11 14 12 9 14 17 19 23 17 13 13 11 10 9 15 17 12 18 19 16 20 26 25 21 19 15 8 6 5 5 7 7 9

GFSSW_850_spd_054.txt.gz
Wind_Speed
21 21 21 22 22 22 22 22 21 20 21 20 19 19 17 19 20 22 32 23 13 17 15 12 19 20 22 24 22 20 9 11 13 7 12 18 15 21 20 24 17 11 35 41 42
22 22 23 23 23 24 24 25 26 23 23 20 17 17 16 17 21 29 33 23 21 15 22 20 23 23 27 26 23 15 8 7 21 4 4 10 14 16 13 18 20 32 38 37 38
23 23 24 25 25 25 25 27 25 25 25 19 18 16 13 12 17 12 11 18 24 23 22 19 20 25 27 22 25 24 2 11 8 4 21 10 5 15 17 14 31 36 39 37 39
24 24 25 26 26 27 27 28 26 24 22 21 18 15 10 7 6 2 2 9 21 22 22 23 25 29 24 22 25 16 14 25 23 17 9 3 19 16 17 22 27 32 37 39 38
26 26 26 26 27 28 28 28 26 23 21 20 15 12 10 11 23 13 19 7 16 27 28 28 29 29 24 23 26 21 24 35 38 35 28 36 17 10 20 25 27 32 35 36 36
26 27 27 28 28 28 29 28 26 23 21 18 15 10 13 16 14 15 13 14 17 29 30 29 28 29 27 26 23 20 22 23 15 8 30 24 19 11 15 26 27 32 34 34 34
28 28 28 29 29 28 27 27 27 25 21 17 13 9 14 28 7 10 14 15 18 25 29 30 28 28 29 23 31 24 14 17 15 16 13 20 10 12 2 26 28 31 33 32 34
29 29 29 30 30 28 26 27 25 23 21 14 8 8 12 9 18 17 13 18 17 20 26 25 26 26 28 26 21 19 16 15 21 22 23 21 16 12 23 26 25 28 32 33 33
29 30 30 31 30 28 27 23 24 21 17 5 2 7 11 6 20 23 22 21 21 21 23 24 25 27 24 21 18 19 17 23 22 18 18 19 18 21 13 22 26 27 31 32 32
31 30 29 28 26 26 28 28 21 14 10 5 9 9 15 14 12 21 25 21 25 23 24 26 25 18 20 19 20 19 21 20 21 18 24 22 16 19 23 37 38 29 30 32 33
31 31 30 28 21 23 28 24 29 1 13 22 12 18 17 5 2 13 24 25 27 28 22 29 18 24 28 25 22 20 22 23 21 21 24 21 20 24 17 8 23 33 35 33 33
30 30 28 25 19 20 17 22 17 16 24 28 36 41 40 28 23 16 24 30 28 26 24 21 28 26 25 24 26 27 25 23 21 12 6 20 25 25 23 37 51 30 27 34 32
31 30 28 22 13 18 12 21 20 20 14 27 37 39 39 31 31 22 31 37 27 29 29 28 18 26 26 26 27 28 27 24 21 17 11 22 10 27 29 32 40 36 41 34 35
32 31 27 26 9 14 18 23 21 18 7 9 11 5 26 29 28 35 32 37 25 30 31 29 26 28 27 28 27 27 28 27 24 18 14 20 9 26 16 20 23 33 35 34 37
32 31 25 15 18 12 23 23 19 11 8 9 7 6 10 31 1 31 36 37 31 25 26 30 28 31 27 29 27 26 25 25 25 19 17 20 16 14 20 18 21 22 35 34 38
31 29 24 12 14 17 23 22 13 6 7 10 27 25 26 11 28 32 38 39 36 30 27 32 32 28 30 23 27 24 22 24 23 18 17 22 18 19 16 20 20 22 29 38 38
35 26 13 9 8 21 19 16 7 8 16 16 25 28 27 26 21 24 23 30 27 28 27 27 34 29 25 21 25 24 23 14 17 17 17 21 20 14 16 23 18 21 29 31 39
40 15 13 9 14 18 16 11 10 11 15 20 18 25 26 24 19 23 23 27 32 31 19 24 23 34 23 28 24 28 26 14 24 17 18 22 21 19 21 18 27 29 36 32 32
39 20 12 5 16 15 15 10 11 11 16 19 23 20 23 27 18 27 26 25 29 30 30 23 29 22 34 24 25 26 25 24 20 21 17 18 22 24 25 23 19 14 31 35 35
34 21 16 8 17 12 11 15 13 13 15 17 23 20 23 25 23 21 18 15 24 30 31 30 21 31 30 26 28 30 21 21 17 22 22 19 22 18 23 20 26 20 19 26 36
23 17 2 12 15 16 11 14 14 18 16 15 19 21 20 24 21 19 18 30 25 27 22 30 27 25 29 32 27 21 22 25 20 16 15 15 14 16 24 25 20 19 26 23 33
17 10 21 16 15 11 7 11 13 18 20 12 12 17 20 20 20 20 21 22 31 23 21 18 26 21 31 30 31 27 28 26 12 20 16 14 10 14 11 23 18 16 30 30 26
22 26 14 14 9 11 17 14 14 15 12 11 6 13 14 19 19 10 13 26 40 26 15 14 10 18 27 25 29 33 30 30 23 17 20 15 12 7 9 9 17 20 23 19 28
15 7 18 19 16 18 19 15 15 14 10 13 23 6 11 16 17 11 13 13 36 32 28 9 10 19 19 21 18 27 30 29 29 16 16 17 14 10 9 6 1 11 19 20 26
11 6 16 8 12 20 21 18 18 12 2 7 16 5 11 14 16 8 9 18 19 24 16 15 16 17 23 23 25 28 27 29 29 23 20 19 20 14 13 11 6 14 11 7 21
9 4 9 16 18 16 19 12 20 15 14 15 19 6 18 12 12 15 12 13 9 16 22 17 11 12 17 22 21 24 32 31 29 29 23 24 18 12 16 22 12 14 11 10 6
7 11 7 6 9 9 12 13 18 24 19 22 11 14 17 13 15 22 19 21 18 19 16 12 11 10 16 17 20 21 15 15 26 24 24 19 16 19 20 19 17 12 10 4 5

GFSSW_850_spd_057.txt.gz
Wind_Speed
23 24 24 24 23 23 24 24 23 21 20 19 19 15 15 18 19 23 31 28 18 20 13 12 16 16 19 16 29 28 8 8 1 2 8 12 6 26 25 37 13 16 35 44 40
23 24 25 25 25 25 25 26 27 23 21 20 16 15 15 17 20 29 26 24 23 18 20 19 19 20 23 25 16 17 5 5 8 8 4 19 9 25 18 26 27 33 35 43 39
23 24 25 25 26 26 27 27 26 24 23 19 16 16 15 14 18 23 4 14 24 24 26 21 17 20 23 24 27 20 10 2 8 13 17 10 8 13 27 20 41 41 44 41 40
24 25 26 26 27 27 27 27 25 23 23 21 15 13 11 9 4 5 3 1 19 28 21 21 24 26 13 14 28 14 9 9 12 15 7 5 3 18 26 24 42 51 45 41 37
26 26 26 27 27 27 27 26 25 24 23 21 16 11 7 9 26 10 9 4 13 29 31 27 27 26 18 17 23 16 13 21 15 18 20 22 2 4 38 44 44 46 40 36 36
27 27 27 28 28 27 26 25 27 26 22 20 17 12 10 8 13 5 18 13 13 33 30 28 19 26 20 23 19 21 23 25 21 14 11 12 12 7 35 44 42 42 40 36 33
28 28 28 29 29 28 26 24 25 26 23 20 17 13 14 30 7 5 22 17 16 28 33 32 27 24 27 11 35 29 16 17 17 22 1 16 5 8 14 41 41 39 40 38 32
29 29 30 30 29 27 25 26 24 25 21 17 13 10 14 13 12 16 24 16 12 15 28 26 27 30 31 23 24 20 19 16 12 23 15 22 5 12 12 6 33 36 38 39 40
31 30 29 28 28 25 24 29 26 24 12 9 0 4 15 7 19 25 22 22 16 18 20 21 28 33 30 16 14 11 13 10 7 11 12 19 12 20 33 18 14 34 35 39 41
33 32 31 29 26 21 22 28 32 11 19 15 5 8 14 10 10 17 26 21 24 20 26 24 21 16 17 12 16 11 8 9 15 18 21 14 15 20 32 27 18 17 23 37 42
33 32 30 27 24 18 24 30 27 6 17 24 27 26 49 19 15 20 23 25 23 27 17 25 12 22 21 18 9 14 17 12 14 17 14 10 19 25 25 27 29 29 26 27 40
35 35 33 28 20 14 19 23 20 22 28 36 39 40 45 37 19 15 21 24 23 19 15 13 25 15 15 17 18 19 20 17 15 18 12 19 23 21 23 17 33 35 31 33 38
38 37 36 29 15 12 14 23 24 25 11 26 13 19 26 17 23 38 15 33 14 20 21 21 9 19 21 19 21 19 19 19 14 13 10 16 9 14 8 10 19 27 45 42 44
40 38 37 32 9 17 14 29 28 22 5 9 6 15 18 13 8 27 31 27 18 20 21 23 20 21 24 22 21 18 21 21 21 11 5 11 8 12 17 17 16 33 40 39 42
39 36 32 18 24 20 29 34 25 20 5 9 17 13 33 11 20 16 30 28 21 19 15 25 24 25 22 24 19 18 11 19 21 15 9 7 6 11 25 23 21 32 43 44 43
39 38 26 13 13 18 22 27 23 2 5 8 13 20 23 23 23 26 17 30 20 20 23 19 21 20 24 21 21 16 15 17 18 14 13 9 11 7 22 24 25 35 46 51 47
38 38 14 10 14 19 26 27 4 4 12 10 16 20 18 14 22 23 21 12 14 15 24 20 25 26 24 20 18 19 12 7 9 9 11 10 6 8 10 11 30 34 51 55 54
38 32 12 8 12 17 20 9 5 10 12 18 17 16 12 22 17 24 24 18 17 23 8 21 22 27 21 22 19 19 20 7 11 6 10 8 8 8 11 2 23 46 59 53 54
42 25 15 6 6 15 16 4 5 9 12 15 19 13 19 21 15 21 20 18 11 25 21 12 28 11 27 18 22 12 19 11 4 6 2 5 8 12 18 10 8 16 44 51 52
36 29 8 8 8 17 5 10 15 9 11 11 10 9 16 17 17 15 11 13 26 26 28 13 22 23 20 24 22 19 11 13 9 9 11 9 9 14 13 17 10 12 26 41 50
28 16 5 22 16 15 7 13 16 17 16 9 13 10 13 16 13 15 11 24 10 25 24 20 6 26 18 23 27 12 12 15 6 6 6 5 11 11 17 21 18 16 23 37 36
18 6 24 27 11 10 6 12 22 17 13 9 7 9 10 12 11 14 18 16 27 25 21 18 8 7 28 20 15 18 19 11 11 13 4 4 10 5 10 26 22 15 27 34 40
16 15 18 20 6 8 14 18 22 14 13 12 10 8 4 12 8 10 13 17 18 17 10 15 6 6 12 12 20 21 22 20 6 6 10 8 11 4 11 18 27 17 25 34 35
9 5 13 14 19 12 12 11 18 28 20 4 4 6 8 16 10 9 6 7 20 22 30 25 12 15 11 13 6 8 20 22 17 8 8 12 6 9 7 9 8 18 18 33 35
5 5 7 5 11 16 13 13 15 12 16 16 3 5 4 8 11 7 6 16 9 14 16 12 13 14 20 21 15 15 21 22 20 18 13 9 8 9 5 8 8 16 18 25 28
8 3 4 12 15 16 10 8 16 12 15 13 14 11 4 4 6 18 9 7 3 8 13 18 10 17 10 11 11 11 15 29 21 21 14 10 11 9 9 16 17 23 23 23 24
4 10 8 5 7 8 5 9 15 20 11 23 19 18 11 16 19 35 18 17 12 9 11 19 12 10 5 6 5 6 11 8 19 19 20 15 9 6 8 11 13 26 22 21 22

GFSSW_850_spd_060.txt.gz
Wind_Speed
22 22 23 23 23 23 23 22 22 21 20 18 17 15 14 18 19 23 30 25 20 11 12 17 16 16 19 14 15 6 3 5 5 2 4 6 13 17 5 23 5 10 22 50 44
23 24 24 25 25 25 25 25 23 21 20 19 17 16 15 17 22 29 24 19 20 21 22 21 23 23 14 16 8 10 4 7 7 9 4 12 16 13 10 13 13 21 37 45 42
23 23 24 25 25 26 26 26 23 22 22 20 18 15 14 14 16 13 1 9 26 26 27 19 17 21 16 15 15 13 6 6 8 14 12 6 11 15 23 7 31 42 46 42 40
25 25 25 25 26 27 26 25 24 23 24 22 18 14 13 9 4 3 4 7 22 30 29 25 23 15 8 11 18 6 13 21 16 8 7 5 5 14 16 12 30 45 56 47 44
25 25 26 26 27 26 24 24 24 25 24 22 20 13 10 8 23 9 10 3 16 33 31 33 28 18 8 10 19 12 17 15 18 10 8 5 9 16 11 29 34 44 45 47 41
28 28 28 27 27 26 24 24 26 24 24 23 20 17 9 6 7 7 21 11 10 32 33 29 23 31 8 16 9 8 22 16 7 10 4 10 6 8 18 36 40 43 38 41 42
30 30 29 28 28 26 22 24 25 30 28 18 16 16 15 27 4 4 9 19 14 20 35 35 19 24 14 4 39 25 15 11 14 16 3 20 7 8 27 31 41 37 36 33 35
30 30 30 28 27 25 22 25 28 23 17 13 13 11 13 10 11 21 19 22 16 17 27 31 32 19 11 15 11 6 11 13 16 12 12 8 1 8 32 36 35 37 35 34 36
34 33 31 29 27 24 20 25 31 13 13 16 5 5 15 7 11 9 21 24 18 15 24 22 22 14 8 3 5 2 7 7 14 22 14 7 12 13 30 31 32 36 39 38 34
37 37 33 30 25 21 20 24 28 12 13 16 5 9 10 4 12 8 11 23 24 18 17 18 14 5 6 4 9 5 4 6 10 5 18 8 13 13 22 30 32 35 37 41 40
35 38 36 31 24 16 21 21 29 10 19 28 32 28 48 27 24 11 13 25 26 21 8 19 9 16 18 10 8 6 7 10 8 16 25 23 22 20 28 19 30 35 36 39 46
37 38 42 33 23 12 14 20 19 21 20 28 18 25 30 26 14 12 3 18 12 11 7 4 20 12 8 9 14 13 14 16 14 10 10 20 23 25 22 28 29 36 38 42 40
41 41 42 40 19 13 10 18 19 24 5 19 10 11 12 5 11 20 5 6 6 7 12 17 8 17 13 17 17 16 16 14 13 6 7 14 5 11 13 15 21 28 36 37 39
40 41 39 38 12 18 13 21 18 26 4 7 5 11 22 2 2 16 15 16 6 15 8 15 17 14 20 17 18 16 16 15 16 5 4 12 5 12 16 21 18 27 30 34 38
41 38 36 25 20 16 22 22 19 2 4 5 8 11 19 18 15 26 23 10 12 12 9 18 18 20 18 27 17 15 11 12 13 5 4 11 1 7 18 20 23 27 35 38 41
40 39 30 14 15 19 25 25 4 5 3 7 9 12 15 22 13 26 22 31 7 11 16 13 21 18 24 13 18 11 9 11 3 4 8 10 9 5 15 29 25 25 35 38 42
41 34 18 8 11 21 25 23 5 3 8 6 6 8 5 14 8 15 13 16 13 10 8 6 23 16 18 16 17 15 6 6 3 6 9 10 6 14 24 29 25 29 37 40 44
43 22 12 5 12 18 23 5 3 7 4 2 4 3 5 15 4 14 7 6 17 8 5 6 17 19 12 20 13 12 17 9 12 5 9 4 9 12 13 32 40 42 48 45 47
42 11 21 23 17 12 12 4 3 5 6 8 6 4 5 8 6 9 8 4 9 16 8 8 7 5 18 18 20 9 16 14 4 2 1 4 7 7 9 12 16 36 41 42 52
40 7 13 19 10 11 3 5 4 6 7 6 5 3 5 6 6 9 4 8 5 14 14 3 9 16 19 11 20 24 7 6 3 16 10 5 6 12 9 11 9 16 36 48 50
28 11 16 32 8 4 2 3 5 21 23 4 3 2 5 4 4 5 4 8 17 13 14 4 4 14 12 11 14 15 16 5 6 5 10 4 10 8 10 11 11 15 38 44 49
17 4 19 19 9 5 3 7 14 16 23 6 4 5 3 3 3 3 3 4 16 15 9 8 5 6 12 10 5 7 10 13 9 11 3 5 14 6 12 12 10 17 40 53 51
16 7 15 15 4 4 6 7 8 14 11 11 6 4 4 2 1 3 3 5 8 8 5 6 3 7 11 3 3 5 5 7 5 5 9 11 15 5 7 7 22 28 33 50 49
8 4 9 8 8 3 5 4 10 12 6 14 15 2 2 4 2 3 4 5 5 6 7 6 3 10 10 16 17 11 17 9 9 7 7 12 21 8 14 12 16 18 32 39 53
4 2 3 4 6 11 9 5 8 7 5 5 6 10 3 2 5 4 3 4 11 3 3 3 6 13 20 23 24 24 22 20 14 14 13 11 9 8 10 11 10 18 31 37 43
5 4 3 6 9 9 4 3 9 11 8 10 6 12 4 6 8 6 6 5 7 6 4 3 5 14 21 20 18 19 18 12 11 16 8 7 8 9 10 12 5 14 23 28 41
3 7 5 6 3 3 3 8 17 18 10 7 11 12 12 11 14 20 28 26 10 7 4 3 1 7 7 7 10 2 14 10 3 11 7 16 11 3 3 9 15 14 33 24 28

GFSSW_850_spd_063.txt.gz
Wind_Speed
22 23 24 24 24 24 24 22 20 19 17 18 17 16 16 17 16 20 27 23 20 9 14 20 23 15 17 15 8 4 1 3 3 3 3 2 4 13 6 15 4 7 14 38 46
24 25 25 25 26 26 25 23 21 20 20 21 18 18 15 16 20 27 20 21 16 22 21 28 27 20 11 8 8 4 2 5 6 4 2 2 14 14 6 12 5 14 21 48 42
24 24 24 25 25 26 26 24 23 23 23 24 21 17 15 14 17 4 3 13 26 30 22 21 24 23 9 7 9 7 5 6 5 6 5 5 5 5 18 4 10 38 48 51 41
25 26 25 25 24 25 24 22 24 26 25 20 21 18 13 10 2 4 5 8 31 30 27 25 28 13 6 7 14 4 14 17 8 11 9 4 11 8 20 5 22 35 57 52 45
27 27 26 25 25 24 23 20 23 24 27 27 24 16 12 8 15 6 6 6 32 34 34 33 32 15 7 9 4 12 9 11 18 13 13 7 10 9 14 2 22 45 41 43 43
29 29 28 27 26 25 23 19 23 26 26 23 16 13 8 5 3 8 17 4 23 36 37 34 24 25 15 5 15 6 16 20 20 13 8 9 3 14 9 21 34 43 40 37 40
29 30 29 28 27 25 22 19 23 28 17 17 15 11 12 23 5 4 11 11 13 28 36 39 15 23 8 1 22 18 8 8 9 12 6 13 5 2 22 30 34 37 36 35 35
33 35 35 33 28 26 21 20 23 27 14 17 21 9 11 6 9 15 14 11 17 27 31 32 23 29 5 3 3 3 4 2 7 6 9 6 3 9 22 28 29 30 31 34 34
35 36 34 36 31 28 21 21 23 14 12 19 13 8 11 3 5 1 5 16 17 24 27 16 30 7 6 2 4 2 4 7 3 11 5 5 4 12 23 26 28 30 31 33 31
36 35 35 34 31 24 20 22 17 8 8 12 7 7 4 6 20 16 3 15 19 18 18 11 11 4 1 5 10 5 4 4 6 9 9 12 4 16 28 28 30 31 32 34 36
36 37 37 33 29 16 20 16 16 3 28 10 21 12 21 20 16 2 4 20 16 16 7 11 4 18 22 7 4 2 4 5 4 7 15 18 12 20 29 25 26 31 32 34 38
39 40 38 33 23 13 11 16 14 13 14 21 13 13 15 11 6 6 3 13 10 6 6 5 14 11 8 8 10 7 8 7 5 4 6 14 16 16 20 31 35 34 34 36 35
40 38 35 31 14 15 8 15 18 18 3 12 6 14 17 7 3 16 13 7 5 7 13 7 7 15 11 10 13 11 14 10 4 4 8 10 7 10 14 19 25 32 37 35 40
39 38 34 26 7 16 10 16 17 6 4 6 7 12 16 1 2 16 20 4 3 13 7 9 18 10 14 16 12 12 11 15 9 6 6 7 5 7 20 20 19 31 39 39 40
39 35 32 13 9 17 20 21 8 2 3 5 7 9 9 11 12 20 15 4 4 6 6 13 10 11 14 20 11 11 6 10 5 7 6 8 2 6 12 19 22 26 36 41 44
38 29 23 9 12 19 24 21 3 5 3 6 6 7 7 10 6 20 14 12 8 4 5 8 20 9 20 10 14 4 5 5 2 4 10 10 10 6 7 18 23 28 35 38 42
36 17 17 9 20 18 22 8 4 3 6 4 5 6 4 7 8 10 10 15 6 7 8 9 8 7 8 9 11 12 5 4 3 6 10 9 8 18 11 20 24 23 37 41 40
32 5 10 16 14 15 21 5 3 3 2 2 4 1 4 6 5 8 4 4 12 5 3 4 6 5 2 14 10 12 13 6 6 4 9 7 7 11 13 20 31 39 40 42 45
32 6 4 11 16 14 12 5 0 6 7 5 4 3 4 4 4 4 5 3 4 7 4 4 6 10 14 13 8 8 15 10 2 1 2 3 6 10 7 10 15 26 27 36 40
30 6 10 23 17 9 5 2 1 10 10 5 2 2 3 4 4 3 3 3 3 4 2 1 6 3 8 9 12 16 6 5 1 15 10 4 4 8 9 10 10 12 28 35 42
20 6 18 23 3 6 3 3 4 14 14 6 5 3 2 2 1 2 1 3 2 3 1 2 3 7 6 5 3 1 12 4 6 6 12 4 7 6 9 11 14 14 29 36 42
13 3 20 22 9 4 3 6 8 10 11 5 3 3 2 2 2 2 4 4 7 1 2 1 3 5 9 14 19 9 7 11 8 9 4 3 16 6 10 9 9 15 30 41 42
16 6 12 18 4 3 7 5 5 7 5 5 5 8 3 3 3 2 1 2 8 3 3 1 0 4 9 2 5 6 8 10 8 3 9 9 12 6 7 6 11 16 22 32 39
7 4 6 13 10 3 5 4 5 9 4 6 4 9 8 3 2 2 3 4 2 5 5 5 3 5 5 3 8 12 22 22 4 5 16 17 3 8 8 8 10 18 21 23 36
5 2 3 4 2 2 3 4 7 4 5 4 3 1 4 5 5 4 4 3 3 9 4 2 3 7 8 10 16 21 26 27 15 14 8 14 12 12 10 11 8 20 37 32 34
4 3 2 3 6 8 4 3 7 6 3 4 4 9 7 7 8 10 8 3 5 3 3 1 2 2 5 11 23 21 23 19 22 18 17 13 12 6 8 8 15 19 25 27 34
2 3 2 2 2 3 2 3 5 13 8 7 6 8 9 13 18 17 21 16 9 7 5 4 2 2 6 7 17 10 6 13 12 14 4 8 2 8 9 13 18 24 19 15 33

GFSSW_850_spd_069.txt.gz
Wind_Speed
22 23 22 22 21 20 18 17 17 16 18 16 18 16 15 15 14 15 17 12 15 10 24 23 20 18 15 12 6 3 2 4 2 2 2 6 4 7 7 18 5 11 8 23 32
25 25 25 23 22 22 21 19 17 17 19 18 21 19 17 17 16 17 9 12 11 19 30 30 24 21 9 9 7 6 3 5 2 2 1 7 8 12 8 16 6 8 15 34 35
26 26 26 25 24 23 21 20 19 16 18 21 22 19 15 14 13 3 3 5 20 25 27 24 23 16 11 10 9 7 4 4 3 4 4 6 6 8 12 10 12 24 29 37 36
26 26 26 26 26 26 23 21 19 18 18 19 20 16 11 7 2 3 3 5 24 30 28 24 21 14 9 8 14 6 12 8 2 4 6 6 7 8 16 1 12 25 33 42 37
27 26 25 26 25 26 24 22 18 18 20 21 12 12 10 5 8 7 7 2 31 33 30 25 26 15 12 10 7 13 7 6 10 12 8 5 10 4 13 3 15 26 35 39 37
29 29 28 27 26 25 23 20 18 17 18 15 12 12 8 4 3 5 2 8 32 33 27 23 19 13 10 3 12 4 19 12 9 10 9 8 7 9 5 13 21 28 35 38 36
31 31 29 28 27 25 21 18 19 18 15 10 14 10 7 7 5 5 5 14 30 22 27 21 7 16 7 6 8 10 2 5 11 8 5 7 6 8 13 17 24 27 32 36 34
32 33 30 28 26 22 20 20 19 15 9 14 11 8 2 5 1 3 3 9 27 23 19 20 9 13 3 2 2 6 6 4 3 12 5 11 5 6 17 22 24 27 31 33 34
33 34 31 29 23 19 20 21 15 7 9 8 13 6 4 5 10 2 4 6 22 25 12 13 9 7 5 4 5 5 9 15 5 11 6 11 4 11 17 20 23 26 29 32 32
32 33 31 30 20 17 19 17 11 5 16 6 13 3 10 11 11 1 4 9 15 19 10 11 10 7 8 10 11 11 13 7 14 9 12 13 9 11 19 21 23 26 28 30 33
32 34 33 27 12 13 18 9 9 3 7 4 5 2 10 10 12 5 7 13 11 19 11 10 13 21 21 15 10 7 5 12 7 8 13 16 15 13 19 19 23 26 29 31 35
33 34 29 19 10 9 16 12 13 9 9 4 4 9 9 9 6 14 16 5 10 12 10 6 19 17 15 11 15 12 6 8 9 5 9 12 17 12 19 26 29 29 29 31 29
30 31 24 11 11 12 16 18 18 10 3 5 4 10 9 8 5 11 5 3 10 11 18 12 2 16 16 14 15 18 18 9 6 4 9 5 11 12 16 17 22 25 26 27 31
27 27 21 10 3 14 11 20 16 2 1 4 5 8 10 2 1 10 6 5 6 13 14 12 14 13 18 23 18 19 15 14 11 5 9 10 11 10 15 19 19 27 29 31 32
25 23 12 10 6 14 17 19 4 4 2 5 5 7 10 7 9 5 12 3 5 9 9 9 10 15 16 19 18 13 8 16 18 13 11 12 7 14 14 16 21 27 32 33 33
24 22 8 8 7 13 14 14 3 2 2 2 4 7 5 8 7 11 9 5 2 1 3 12 2 11 13 14 18 11 5 11 12 13 17 19 12 14 13 18 18 23 31 34 35
25 20 3 7 14 12 14 1 2 2 2 4 5 5 2 6 5 8 5 11 5 2 1 2 12 6 6 11 17 16 13 5 8 11 17 16 15 17 8 17 18 19 30 35 37
26 14 2 13 15 12 11 1 3 3 3 3 5 2 1 6 4 6 2 2 8 4 2 3 8 10 4 10 10 21 18 8 12 12 15 16 12 15 23 17 12 18 24 29 35
23 2 12 19 15 5 1 2 2 3 4 6 6 2 1 1 4 2 3 1 4 7 3 2 4 3 3 1 7 11 21 19 9 2 9 14 17 16 7 17 21 21 18 25 32
19 3 22 20 8 5 4 5 3 5 6 2 2 2 3 1 3 2 2 2 3 3 1 2 5 1 3 5 11 9 7 16 13 19 13 8 17 13 20 20 14 11 20 24 28
12 2 19 14 4 8 4 3 3 8 9 4 3 4 2 2 2 3 1 2 2 1 2 1 2 2 4 5 7 8 10 8 9 17 15 10 9 5 17 15 20 24 27 24 25
7 1 21 11 6 4 3 3 5 7 10 4 1 3 2 4 2 3 3 3 3 0 2 1 1 5 5 2 8 6 5 10 11 13 15 16 17 2 8 7 6 11 18 23 25
7 6 16 11 4 4 3 3 3 7 5 5 4 4 4 3 4 2 2 2 3 1 1 2 1 4 6 4 4 2 2 0 2 1 13 13 13 9 18 18 14 15 15 10 18
5 3 9 18 12 7 5 5 5 7 4 4 3 2 2 4 1 4 4 3 5 4 0 2 3 8 8 9 8 5 3 2 4 10 16 16 14 9 10 14 13 11 9 7 6
6 4 4 4 8 8 3 4 8 5 4 4 1 0 1 2 4 5 5 4 3 8 2 2 5 8 15 14 15 16 18 15 12 9 10 15 16 14 12 13 16 11 10 12 10
4 3 5 4 2 5 4 3 3 5 3 2 2 1 7 6 7 9 8 7 6 0 2 1 3 5 15 10 11 17 18 18 17 18 12 16 16 7 14 12 12 11 13 11 14
6 9 5 3 1 2 3 2 1 8 6 9 7 9 10 10 7 11 13 16 13 5 5 3 2 3 8 9 14 11 16 19 13 8 15 13 10 10 9 6 12 17 14 14 16

GFSSW_850_spd_075.txt.gz
Wind_Speed
20 20 20 20 20 18 17 16 14 13 11 12 14 14 15 14 11 10 9 10 17 11 19 14 18 19 17 17 16 11 10 7 5 8 8 13 5 3 10 12 6 7 10 27 36
21 22 21 21 20 20 19 18 15 13 11 10 14 15 14 14 10 13 13 15 15 15 20 23 24 21 21 21 17 17 12 0 6 13 13 16 16 11 9 12 9 9 17 33 38
22 23 23 22 22 21 20 18 15 13 12 11 12 13 11 10 6 6 15 17 15 21 19 20 19 21 21 17 21 18 15 10 28 10 8 6 18 20 10 13 17 19 30 35 38
22 23 24 23 23 22 21 18 15 13 13 11 12 9 9 4 1 2 5 9 16 23 20 22 21 23 19 18 19 17 14 16 15 3 5 8 6 12 11 7 16 24 29 37 38
22 23 24 24 22 22 20 17 16 15 14 11 8 7 6 6 4 5 6 9 17 26 23 25 24 22 18 17 16 18 17 12 13 5 6 6 17 0 16 12 18 26 29 35 35
23 24 24 24 23 21 18 17 15 14 12 9 5 6 3 11 2 5 3 9 17 27 24 25 21 21 14 17 15 11 20 16 11 11 9 11 13 8 17 13 20 26 31 34 34
24 24 25 25 23 20 16 16 14 11 6 4 7 5 5 5 3 3 2 7 14 23 23 23 17 19 12 15 15 19 11 17 18 13 8 12 12 15 19 16 22 24 29 32 32
24 24 24 24 21 17 16 15 11 6 7 3 2 3 2 3 2 1 6 9 12 18 19 18 17 16 20 8 6 16 18 16 20 20 19 16 18 17 21 20 22 24 28 31 31
24 24 23 22 16 16 17 15 8 2 4 6 7 2 5 3 0 3 5 8 14 15 16 15 16 18 20 13 13 14 16 21 18 22 18 17 10 12 22 19 22 25 27 30 31
25 23 21 18 14 14 14 10 6 5 5 4 2 6 3 4 1 5 5 8 16 13 16 15 14 16 17 14 15 18 19 19 20 19 21 19 10 21 38 22 23 24 27 30 33
24 22 19 14 10 13 14 9 3 2 8 4 5 3 3 2 4 3 7 13 16 15 15 21 15 19 23 20 21 15 17 21 18 16 17 22 16 17 18 22 23 25 26 29 33
24 21 17 12 6 9 12 6 5 5 5 3 1 1 1 1 5 3 10 12 13 16 18 14 21 20 19 17 19 20 14 16 20 17 16 19 17 20 17 19 23 24 25 27 30
22 20 15 9 4 6 4 7 6 4 8 10 4 1 1 4 1 4 9 13 11 18 21 21 11 20 20 18 17 18 18 15 16 15 18 17 20 19 8 18 22 23 25 26 31
22 19 14 4 1 4 1 10 7 5 6 12 10 5 5 4 7 1 4 10 11 17 20 21 21 8 22 20 17 18 17 18 16 17 16 20 16 22 27 27 19 20 27 28 30
21 18 10 2 2 3 7 10 2 4 6 2 6 3 3 11 2 8 3 8 14 13 14 21 20 21 16 20 18 18 16 17 18 16 16 19 18 17 24 20 22 23 27 30 31
20 15 4 6 3 4 8 8 2 8 1 7 2 1 8 5 4 1 6 7 6 11 15 18 21 20 25 16 15 18 17 16 16 15 17 23 20 19 17 22 22 26 30 30 32
20 7 4 3 4 11 9 5 7 7 4 7 3 3 5 1 6 6 7 11 9 11 14 17 20 20 19 20 21 16 19 13 14 14 18 23 23 17 18 21 19 27 31 32 33
17 2 6 2 12 9 5 8 7 5 7 4 2 5 9 4 9 7 9 11 11 11 15 14 17 23 20 20 22 21 21 13 21 16 17 23 25 21 20 12 13 28 34 32 33
12 2 3 10 9 2 9 9 7 10 6 6 10 9 9 6 8 1 7 12 8 9 13 11 18 6 23 22 23 24 22 23 23 21 18 18 26 20 27 21 16 17 28 32 34
6 4 3 11 4 2 8 3 4 9 8 6 11 2 6 2 3 5 2 6 2 4 9 8 12 14 10 12 15 21 16 22 17 23 23 18 19 19 23 22 23 14 18 26 34
3 7 6 8 2 10 6 7 5 7 7 5 5 6 6 7 7 10 8 7 3 7 8 13 8 18 10 8 18 17 19 16 17 21 18 15 13 13 23 19 17 23 22 22 24
3 3 13 5 8 4 5 5 1 4 3 2 4 5 5 6 8 12 10 3 7 9 13 10 9 14 20 16 20 24 19 27 15 21 20 16 13 8 14 19 23 23 30 27 26
4 8 13 5 2 6 6 8 6 4 6 4 2 4 4 8 4 7 7 9 7 10 7 11 10 13 17 15 18 17 19 19 24 22 21 18 16 10 5 2 11 25 23 17 12
5 1 8 14 8 6 5 5 4 5 4 4 5 4 6 7 5 6 5 5 7 13 10 9 14 18 15 6 12 12 24 22 19 17 22 19 19 16 12 8 11 12 11 10 8
8 5 5 6 8 8 6 1 3 4 3 3 4 5 6 5 4 6 7 10 7 15 12 12 18 19 19 19 16 14 15 13 16 18 19 18 19 15 10 12 15 7 4 5 4
4 3 7 7 3 4 3 7 6 5 2 6 2 2 6 6 9 14 14 12 10 4 10 15 12 17 19 19 16 19 17 18 19 20 22 22 19 18 19 10 2 2 4 5 6
8 7 4 1 3 3 8 7 6 4 4 3 2 9 7 8 10 16 18 18 16 13 11 6 8 11 17 18 20 22 23 20 21 22 21 21 18 17 11 6 14 12 5 7 9

GFSSW_850_spd_078.txt.gz
Wind_Speed
19 20 20 21 21 19 18 17 16 14 13 13 11 13 14 13 12 11 12 9 15 9 15 11 14 17 18 19 20 16 11 10 9 8 4 2 15 13 4 15 16 8 25 33 39
20 21 22 22 22 21 20 18 16 14 12 11 12 12 14 13 13 15 11 14 18 16 19 18 18 20 21 22 20 16 13 10 8 10 2 19 4 14 7 11 18 16 29 37 38
21 22 22 23 22 22 21 19 16 14 13 11 11 12 10 12 7 2 12 19 15 20 20 17 16 20 20 20 22 20 14 7 9 21 20 20 16 20 6 17 23 28 33 40 39
22 23 24 24 23 22 21 18 16 15 15 13 10 9 9 7 2 4 7 9 18 21 21 21 21 21 19 19 20 18 21 11 16 27 24 12 8 7 28 11 10 27 34 41 38
23 24 25 25 24 22 20 17 15 13 14 11 9 6 7 6 7 4 5 6 17 23 22 20 23 21 17 18 21 17 16 19 18 26 17 11 12 3 3 22 21 27 33 39 38
24 23 24 25 24 22 17 16 14 13 11 8 5 7 6 13 1 3 3 8 11 23 20 21 20 19 18 21 17 19 17 20 18 24 14 19 14 10 26 29 26 28 33 35 35
24 24 23 23 23 19 16 15 13 10 6 6 5 7 9 13 6 5 5 9 14 22 19 19 20 18 19 13 17 17 18 12 17 17 11 11 13 12 28 29 31 28 32 33 32
24 23 22 21 20 17 16 15 10 5 7 3 2 2 8 6 5 4 6 8 11 18 20 15 18 16 19 16 19 13 17 16 16 18 16 10 14 15 20 19 29 29 33 34 31
25 24 21 19 16 15 14 11 8 2 1 4 4 2 6 5 1 3 5 10 11 15 17 15 16 18 15 17 14 13 14 19 19 20 18 15 8 9 8 8 29 29 33 35 32
25 23 20 17 12 12 11 10 4 2 2 6 6 9 7 3 2 2 4 7 14 16 14 14 13 13 14 14 15 16 17 18 17 18 19 18 12 13 33 20 15 31 31 36 35
24 22 19 15 9 7 11 9 5 3 9 12 3 6 2 1 3 2 6 8 14 13 14 20 11 16 19 20 20 20 20 17 17 18 19 16 16 15 12 6 15 21 30 36 37
23 21 18 13 8 2 6 8 5 6 11 8 5 5 2 3 5 4 7 11 13 14 16 14 19 18 18 20 21 21 21 19 17 18 17 18 19 20 12 15 44 42 33 31 38
22 20 16 10 1 2 2 7 9 6 8 14 10 4 2 5 3 7 8 12 12 15 17 19 15 21 20 18 19 18 19 18 17 17 16 16 15 15 9 5 18 38 33 31 36
21 19 14 3 2 4 2 9 8 3 5 13 10 6 7 5 6 3 4 11 12 13 17 19 22 18 20 21 18 19 16 19 18 16 13 17 15 26 20 14 17 16 13 34 33
19 18 9 4 5 7 7 9 5 3 5 9 10 5 2 11 5 9 2 7 12 13 11 17 21 21 19 17 21 18 16 14 16 18 18 22 14 9 26 25 13 19 40 31 35
19 14 2 5 5 5 10 9 4 6 2 5 3 6 10 8 7 3 5 7 9 10 16 16 20 20 22 18 14 16 17 18 17 15 16 20 18 17 17 19 14 27 39 31 37
18 8 4 2 5 12 10 7 6 7 9 8 4 4 4 8 3 4 8 11 9 9 13 16 19 20 19 19 22 18 15 12 14 14 16 19 19 14 15 28 26 25 34 39 37
17 5 1 2 8 12 6 7 7 8 16 6 3 2 5 8 5 5 7 10 11 11 13 14 11 21 17 20 20 18 19 14 18 13 16 20 19 18 23 24 40 45 38 43 41
12 2 6 6 9 4 8 9 6 12 14 6 10 10 12 7 3 5 7 13 6 14 9 10 14 18 13 24 20 20 21 21 23 20 17 17 17 23 21 18 9 12 12 16 16
7 4 4 9 4 4 8 9 7 10 9 8 7 5 12 4 3 6 7 7 5 9 11 10 17 19 15 17 25 21 18 20 15 21 22 19 19 15 19 19 19 16 9 16 39
3 7 2 9 3 10 8 8 8 10 9 7 8 7 7 9 9 8 7 7 7 7 10 13 12 20 19 11 15 13 19 21 14 17 16 15 15 15 23 21 18 21 29 34 38
8 2 11 3 10 3 11 7 2 8 6 5 4 5 7 9 7 6 8 8 13 14 8 16 8 14 18 20 14 14 18 19 12 15 14 16 16 17 13 22 19 16 33 35 16
8 7 10 7 5 8 5 8 10 10 8 7 5 6 8 5 5 4 4 17 15 9 11 12 7 11 15 16 19 15 17 20 20 19 20 15 18 6 10 6 21 20 16 11 36
8 1 8 13 11 7 2 4 6 5 5 3 5 3 6 4 5 3 5 4 3 5 8 9 12 17 16 14 18 15 19 22 20 16 18 19 19 2 6 22 12 20 21 16 16
8 7 5 8 10 9 8 4 3 6 5 7 6 9 6 4 7 2 3 5 6 1 3 8 15 18 22 22 23 21 21 18 18 22 20 18 18 14 20 23 21 12 13 14 13
10 7 8 8 5 1 3 7 6 3 5 5 2 1 5 5 6 10 11 11 11 9 7 3 13 13 20 22 19 24 23 21 19 15 19 19 18 18 7 21 25 25 20 18 18
8 10 5 2 9 6 7 9 3 5 2 3 3 7 10 9 11 14 17 18 18 15 12 9 8 8 12 17 20 20 23 19 19 18 16 18 16 8 10 6 16 24 15 20 20

GFSSW_850_spd_081.txt.gz
Wind_Speed
20 21 22 22 22 21 20 19 17 14 15 13 12 12 14 16 13 15 18 10 14 7 15 7 9 14 17 11 20 21 4 4 5 7 6 15 8 7 9 15 29 11 38 47 43
20 21 22 23 23 23 21 20 17 14 13 14 12 13 15 15 17 18 7 13 13 11 12 15 12 14 17 20 14 14 5 6 7 6 4 6 9 21 9 9 13 21 37 40 38
22 22 23 23 24 23 22 20 17 15 14 13 14 13 13 15 11 5 1 11 13 14 14 15 14 15 19 19 22 16 10 10 7 11 5 10 22 19 8 12 19 40 47 41 41
23 24 23 23 23 23 21 19 17 16 14 13 11 10 10 10 3 2 6 7 12 14 16 17 20 21 11 12 25 12 22 15 19 7 6 3 5 5 8 13 36 49 50 48 40
23 24 24 23 22 22 19 18 17 16 13 11 8 8 8 5 9 3 7 4 8 17 20 20 14 19 12 12 19 14 13 18 23 21 12 16 12 6 14 10 31 42 45 41 36
25 25 24 22 21 20 17 17 16 15 11 8 6 5 6 5 1 5 6 6 6 17 21 20 13 19 17 17 12 19 21 18 30 24 10 9 9 18 20 5 25 41 42 36 34
26 26 24 21 20 19 16 15 14 10 7 8 4 6 8 15 3 8 5 11 7 14 21 20 21 24 17 9 20 16 9 9 10 21 15 28 14 10 27 10 18 32 37 38 37
26 26 24 20 18 17 15 13 10 7 7 5 2 2 7 3 14 8 4 10 10 11 19 16 16 25 22 14 17 8 7 6 9 8 15 25 9 14 20 25 20 23 31 38 38
26 25 23 18 15 14 13 11 8 2 2 1 2 5 8 7 2 1 5 11 8 12 17 16 19 22 15 4 6 7 6 8 11 15 10 10 13 19 34 24 20 28 30 34 34
25 24 21 16 13 11 9 13 5 4 5 6 6 9 5 1 1 1 6 6 12 10 13 19 16 4 4 3 6 8 6 8 9 12 13 10 15 17 31 32 30 27 32 28 28
23 22 19 15 9 7 9 7 8 3 5 9 14 9 2 2 2 3 4 5 10 14 8 11 3 6 8 9 11 14 13 10 9 13 8 15 15 20 28 23 21 24 7 30 27
23 22 19 13 6 2 5 10 9 7 10 16 18 9 6 7 7 7 4 9 8 5 5 6 9 7 10 14 12 16 14 14 12 10 9 15 16 16 16 11 25 31 27 20 34
22 21 18 9 3 2 3 6 11 6 5 12 14 14 5 5 6 11 7 13 7 7 9 10 11 16 14 12 14 13 10 10 10 17 9 13 6 5 6 7 14 21 26 22 28
21 21 16 4 3 6 8 5 10 5 3 5 10 3 2 5 3 5 3 6 5 8 10 8 14 15 12 15 13 8 9 10 11 8 4 4 5 11 14 10 11 14 16 28 29
20 20 10 6 4 6 10 10 11 3 2 10 7 9 0 4 7 4 1 4 7 10 4 8 10 12 13 11 13 11 10 8 6 8 6 17 2 6 9 12 18 24 33 34 52
19 17 6 4 2 10 16 12 6 2 2 5 7 7 5 10 2 8 6 4 8 6 10 9 19 6 7 13 11 5 8 9 6 2 4 11 3 2 12 20 18 30 43 48 44
17 12 6 4 3 10 15 10 2 4 8 5 6 4 7 7 5 4 2 3 4 2 5 8 10 10 13 8 10 4 3 4 4 4 6 9 8 9 22 17 19 25 40 43 39
14 5 3 8 10 10 8 3 2 10 12 7 5 3 4 5 4 4 2 5 6 8 4 3 8 4 6 8 6 7 6 5 6 4 8 9 6 10 12 25 30 37 48 39 45
8 3 1 9 11 8 8 3 5 8 10 12 11 3 5 3 4 3 3 5 6 12 5 7 7 17 15 18 6 8 7 11 6 9 8 7 8 11 15 7 26 27 26 31 37
9 1 2 6 4 4 3 3 6 10 9 7 5 5 7 10 2 5 3 17 9 11 11 8 5 6 15 16 10 4 6 3 4 4 7 7 10 5 10 19 17 19 28 27 24
7 5 6 7 1 7 3 5 9 13 12 8 9 7 10 10 8 7 9 14 16 14 13 12 7 10 9 5 11 15 7 5 2 4 9 4 8 6 20 11 17 21 32 40 21
5 1 9 6 4 2 6 3 9 9 17 5 5 8 7 9 7 7 10 8 17 18 5 8 3 5 14 18 16 14 15 2 2 7 3 2 8 16 21 21 23 28 35 39 48
13 2 13 16 4 6 7 8 9 11 10 11 11 9 8 7 5 6 6 11 15 8 4 8 4 5 10 6 6 7 18 22 6 5 6 3 6 10 19 24 42 26 12 28 39
7 3 11 21 21 14 6 6 5 9 10 7 9 7 8 3 4 4 6 6 10 14 8 3 3 3 5 13 12 15 22 21 17 6 7 10 12 11 15 21 31 43 46 13 26
5 5 12 5 7 8 11 10 11 6 10 10 5 10 7 6 8 7 9 9 12 7 4 3 3 7 11 14 16 20 18 20 19 16 8 10 12 6 9 11 26 32 30 35 29
6 6 9 4 15 8 10 9 8 8 7 6 6 5 2 3 6 7 9 7 4 11 7 2 1 5 7 13 15 19 20 18 20 18 15 12 4 4 19 28 31 34 34 29 31
9 5 5 10 12 7 6 7 5 8 5 5 6 4 7 11 13 12 13 14 13 6 6 1 4 1 3 9 14 12 11 16 19 18 15 10 10 8 9 15 22 29 35 29 31

GFSSW_850_spd_084.txt.gz
Wind_Speed
19 19 20 20 19 20 19 17 15 14 14 11 11 11 12 14 14 15 17 8 15 6 13 12 9 15 11 9 15 4 2 3 3 2 3 2 5 13 5 22 11 12 22 42 43
20 21 21 21 20 20 20 17 15 13 14 13 12 12 12 14 16 17 8 10 13 14 12 13 15 19 8 7 6 8 4 4 1 4 4 3 6 13 2 15 3 8 33 42 44
22 21 21 21 20 20 20 17 16 14 13 14 13 12 11 11 12 3 8 6 17 14 12 13 12 12 10 10 8 5 6 6 5 9 12 8 7 3 5 5 11 28 40 43 42
22 23 23 22 20 19 19 16 16 15 14 11 12 9 9 7 1 3 7 1 9 13 14 16 16 5 5 6 12 3 12 14 16 15 16 9 3 8 6 3 7 35 46 46 39
23 24 24 23 21 19 17 16 17 15 12 10 8 8 5 4 5 1 6 3 6 15 16 18 16 8 3 7 14 9 15 14 21 16 12 18 9 4 7 4 11 38 39 41 38
25 25 24 23 20 18 17 14 15 13 9 7 9 4 4 3 2 1 6 4 2 15 18 22 17 18 6 12 7 8 12 15 24 16 17 13 9 8 7 5 26 39 36 38 37
26 25 23 21 19 17 15 13 12 11 8 7 5 6 7 8 3 4 8 5 4 9 18 24 19 7 3 6 18 17 6 4 16 21 8 21 6 2 6 13 32 31 31 31 34
25 24 22 20 17 16 13 12 10 10 6 4 1 3 6 1 4 10 8 8 7 4 12 17 15 13 15 14 10 4 3 3 5 21 14 6 4 8 10 12 29 30 30 31 33
24 23 21 18 16 14 11 11 10 6 3 0 2 4 5 2 4 6 7 9 10 5 3 9 5 9 7 3 5 7 2 4 7 24 10 9 5 14 30 25 34 33 31 29 33
22 21 20 17 14 12 8 11 4 5 4 5 6 6 3 5 7 5 7 4 17 9 9 6 6 2 3 5 3 4 3 5 4 3 7 11 6 21 28 19 26 35 34 27 35
22 21 19 16 11 7 10 5 6 2 8 8 9 10 8 3 1 5 7 5 11 11 4 5 4 3 7 5 6 4 4 8 14 10 6 16 14 23 26 17 20 26 35 38 29
20 21 19 13 5 1 7 8 8 9 9 13 17 19 13 10 4 7 7 3 3 4 3 3 2 8 7 6 7 6 7 12 11 5 2 9 13 15 19 19 25 30 29 34 40
20 20 18 6 3 3 7 7 7 10 3 11 11 11 9 5 4 10 12 3 3 5 5 6 9 9 6 6 6 6 6 11 10 6 8 12 8 12 12 16 21 29 39 37 40
20 19 16 1 2 7 12 12 12 5 4 6 4 5 8 2 1 9 4 0 1 9 7 6 16 10 9 8 6 7 7 10 6 3 1 4 3 8 14 13 15 30 35 36 43
17 16 11 6 2 8 12 8 7 5 3 4 3 5 1 4 6 2 2 1 1 2 5 7 4 6 6 10 7 11 10 7 2 3 5 3 5 4 14 12 14 32 37 36 49
16 13 6 4 3 9 11 8 6 5 2 4 5 4 3 3 5 9 2 1 2 2 2 6 6 5 5 5 5 7 4 7 5 3 4 7 4 2 13 26 20 28 30 38 45
13 7 4 4 3 8 8 7 5 2 6 9 1 3 4 4 3 4 4 4 3 2 4 6 5 6 9 5 6 3 6 3 4 4 5 2 4 8 19 18 25 26 32 40 39
7 7 9 10 8 10 12 4 8 7 6 5 6 4 3 4 4 4 5 6 8 4 4 4 6 8 6 1 3 3 7 5 5 3 4 6 4 5 11 24 35 40 45 42 30
7 7 6 8 9 7 6 6 1 5 6 7 8 7 8 5 4 6 9 11 10 8 5 4 4 4 6 7 2 8 2 7 6 1 4 3 8 9 17 15 14 33 34 40 41
6 4 6 10 7 6 5 5 3 8 6 6 7 7 7 8 6 5 6 8 5 16 9 6 3 4 8 8 9 7 6 3 3 5 3 4 5 3 16 20 21 13 32 41 37
5 3 10 8 3 4 4 2 5 20 19 7 6 5 4 3 4 5 4 4 6 5 15 4 4 8 4 6 4 7 8 6 1 4 6 2 3 6 12 16 20 21 34 36 43
6 4 19 3 5 2 3 3 7 10 17 8 6 7 4 6 7 5 5 3 9 4 4 4 4 2 5 5 3 6 8 6 4 7 3 3 2 4 12 24 34 29 7 23 36
6 6 28 20 4 4 4 4 9 5 7 5 7 5 4 5 5 6 4 6 15 5 3 6 4 4 9 7 8 5 12 7 4 2 2 2 3 7 19 27 37 41 37 23 13
5 4 8 19 18 5 5 5 4 13 14 8 6 10 7 8 7 6 6 7 13 15 10 7 4 5 4 6 5 9 14 10 3 2 7 3 12 9 13 17 27 34 35 36 33
7 2 3 3 9 11 8 5 10 5 7 13 7 7 5 7 5 6 6 7 7 14 5 5 3 2 0 6 5 10 12 10 6 6 1 9 14 6 7 12 21 27 28 30 31
4 5 6 15 7 13 7 6 7 6 5 5 6 8 10 5 3 4 5 4 1 6 3 4 1 2 4 4 8 8 8 6 6 8 8 7 2 7 5 18 26 26 26 27 30
9 7 2 7 5 5 2 2 5 5 7 7 4 4 7 5 10 10 8 7 6 1 1 3 4 3 3 4 8 5 7 10 5 10 5 6 7 17 6 15 20 21 26 26 25

GFSSW_850_spd_087.txt.gz
Wind_Speed
18 19 19 19 18 17 17 15 14 14 13 12 12 11 10 11 12 15 14 8 16 13 17 20 16 13 14 12 8 6 2 3 3 5 6 7 1 10 7 17 5 4 16 33 36
20 20 19 19 19 18 17 15 13 13 14 13 12 12 12 11 13 12 5 9 19 15 22 23 19 18 8 7 9 5 3 5 2 6 10 14 6 8 5 6 9 20 35 34 35
20 20 20 21 20 18 17 16 13 13 13 13 11 10 10 9 8 2 6 14 19 18 17 15 16 16 5 6 8 7 4 5 2 9 24 18 13 5 2 4 4 32 39 39 36
21 21 21 21 20 19 16 15 14 14 12 11 9 8 6 5 2 2 7 13 18 20 17 18 18 10 5 5 11 4 8 6 8 11 11 12 17 11 10 4 5 28 36 42 39
22 22 22 22 20 18 16 15 14 13 11 8 6 6 4 3 4 3 4 10 18 20 22 21 19 9 5 4 7 4 6 11 12 18 9 11 8 5 7 7 5 31 33 31 36
24 22 21 20 19 17 14 13 13 12 10 6 6 4 2 3 6 5 3 4 9 20 22 23 17 19 3 4 3 4 10 13 18 17 12 9 8 7 9 6 10 28 32 32 31
22 21 20 19 18 16 13 11 12 11 10 6 4 4 7 5 5 6 3 1 2 10 22 24 7 11 1 5 7 15 7 4 11 16 7 12 2 5 13 15 18 30 31 30 30
22 19 19 19 17 15 12 10 10 10 7 4 1 2 6 3 7 11 7 6 4 4 12 18 19 5 3 6 6 2 4 3 3 11 10 8 4 11 18 24 22 29 33 31 34
22 21 19 18 18 13 9 9 9 5 2 0 1 3 4 4 6 7 8 6 6 7 10 7 11 5 2 1 4 6 1 1 2 12 5 9 4 7 17 23 23 27 34 32 33
22 21 20 19 15 10 7 5 4 0 1 3 6 4 1 1 7 8 6 5 8 11 7 7 7 2 3 3 3 1 2 2 2 7 3 8 8 4 15 17 27 29 30 35 37
22 21 20 18 11 4 7 3 3 2 8 6 7 7 11 4 4 6 10 7 11 10 5 6 4 4 6 6 4 3 3 2 4 7 6 15 9 11 17 10 24 27 32 33 38
20 19 18 15 5 4 9 8 9 6 8 11 12 16 13 9 4 7 7 6 8 4 4 5 3 7 1 4 4 2 1 5 6 4 6 3 4 6 12 14 25 30 32 35 34
21 17 15 7 2 4 11 13 10 6 0 7 7 8 6 4 4 6 9 5 5 4 4 5 4 3 4 3 2 3 3 4 6 2 5 8 3 2 3 7 11 19 31 32 34
18 15 12 1 2 3 8 7 6 4 4 5 3 2 5 4 3 7 10 3 1 8 7 3 3 5 4 5 6 5 7 7 4 3 2 3 2 5 8 10 12 17 28 29 33
15 13 7 1 1 5 7 7 4 2 4 2 3 3 5 4 8 4 4 4 4 4 6 6 2 5 5 9 6 9 5 7 5 3 3 3 4 3 8 11 18 27 23 30 30
13 8 4 0 1 5 12 3 2 4 3 2 2 2 4 1 3 5 3 3 3 4 2 5 1 3 6 3 8 7 4 6 4 4 3 4 5 4 6 20 17 23 26 28 35
7 7 7 4 2 7 8 0 5 5 6 8 4 1 4 1 2 4 6 10 5 3 4 4 4 5 7 3 4 5 6 2 2 2 5 5 3 2 9 11 16 21 32 37 37
10 10 7 6 3 6 5 5 9 5 4 4 4 1 5 2 7 7 4 6 7 6 4 3 2 7 7 2 1 3 6 5 5 4 4 6 5 1 6 15 20 19 28 26 35
7 5 9 6 6 9 3 6 0 3 5 7 4 7 7 7 5 6 5 5 6 5 5 2 2 5 4 6 2 3 5 0 6 4 4 2 3 5 22 15 20 22 19 30 38
5 7 14 9 9 9 6 4 3 6 6 5 5 5 7 8 5 5 5 5 5 11 1 1 2 3 6 7 10 7 2 4 4 4 3 4 4 3 17 20 20 22 23 18 37
8 5 11 6 8 8 4 2 3 11 6 6 5 5 2 3 4 3 2 4 5 4 12 2 3 6 3 7 6 7 6 5 3 3 5 3 2 5 10 11 15 25 38 16 32
15 5 18 2 6 3 3 2 4 10 13 7 4 4 4 4 6 4 4 2 6 3 4 5 3 3 3 7 10 16 5 3 4 5 2 3 1 7 8 12 21 29 36 38 20
7 8 23 5 4 3 4 5 10 7 7 5 7 5 6 4 5 4 4 9 10 4 2 3 4 3 4 6 8 7 7 5 3 2 2 1 2 8 13 13 22 30 32 37 36
4 4 8 19 8 6 4 5 3 11 8 7 5 6 7 10 10 5 5 7 11 10 11 8 4 5 5 3 2 3 5 6 4 3 3 2 5 7 12 11 18 21 34 33 35
6 2 3 3 7 6 5 4 4 3 5 11 8 7 3 5 5 5 6 5 7 12 7 5 3 2 3 2 2 1 2 3 1 3 3 4 4 9 10 11 18 15 18 30 30
5 4 3 5 3 7 6 3 2 3 4 3 6 5 7 5 4 1 1 1 1 6 4 4 2 2 2 3 3 2 4 4 2 3 3 4 3 12 15 18 20 24 20 22 24
8 7 3 6 3 4 1 1 2 1 6 5 3 4 4 1 1 3 3 3 3 3 3 3 4 3 2 3 2 3 5 6 6 9 4 5 4 9 11 15 21 24 25 21 21

GFSSW_850_spd_093.txt.gz
Wind_Speed
17 17 16 15 14 14 12 13 13 12 10 10 8 8 8 8 8 10 12 8 14 22 20 21 17 15 13 6 2 2 1 2 1 2 6 8 5 4 4 5 3 6 12 21 30
18 17 17 17 16 14 13 12 12 12 11 10 9 7 7 7 9 9 6 11 19 26 27 24 20 17 6 5 2 2 0 1 3 4 9 9 11 5 2 8 5 14 19 30 31
19 19 18 17 17 15 13 11 10 10 10 10 8 5 4 5 3 2 3 14 22 27 25 23 18 10 6 6 5 4 1 2 3 9 15 9 12 9 7 6 8 21 31 33 31
18 17 17 16 15 14 13 11 9 9 8 8 7 4 3 1 3 1 3 15 24 27 25 21 18 9 5 7 8 3 6 2 2 10 8 8 13 10 8 3 5 24 34 35 32
18 17 16 15 15 15 12 10 9 8 8 6 4 4 2 3 2 2 10 19 23 24 26 20 19 7 5 5 6 7 3 2 9 14 11 11 6 7 7 6 16 28 29 30 29
18 17 16 16 15 16 13 8 8 7 6 6 2 3 2 3 7 7 11 21 22 25 26 18 14 8 5 5 5 4 9 7 10 15 11 10 6 8 9 13 19 27 29 28 26
19 17 16 16 17 16 13 7 5 6 5 4 2 1 4 3 10 11 12 17 19 20 23 18 10 4 6 5 2 2 4 6 7 12 6 8 4 4 12 18 21 25 25 25 23
20 19 16 16 17 15 10 6 3 4 4 3 2 2 2 7 12 13 14 15 14 17 15 17 8 6 1 2 1 3 2 3 3 13 4 10 2 9 16 20 22 25 26 26 24
20 18 16 16 16 11 7 7 2 2 4 3 4 2 3 7 9 14 14 11 12 16 7 15 6 3 2 3 5 1 4 3 4 11 3 10 2 10 18 19 23 24 26 26 26
19 18 15 13 12 7 5 7 6 5 5 2 1 2 4 4 7 16 16 10 10 20 9 8 4 5 2 5 9 7 5 4 4 10 5 10 4 7 15 17 21 24 24 25 26
18 16 12 10 7 7 5 3 3 1 3 4 1 2 2 3 7 13 18 11 17 12 6 9 7 11 11 6 3 7 6 5 2 4 6 6 6 7 13 16 19 24 26 25 25
18 14 9 5 7 10 11 5 6 3 5 3 7 9 7 5 7 12 22 7 12 11 10 7 10 10 7 5 7 4 5 4 2 3 6 3 3 4 11 13 18 23 23 25 24
15 11 6 1 6 5 8 10 9 4 2 3 3 4 3 9 6 13 22 9 14 9 9 12 9 10 7 8 8 5 5 4 3 1 1 1 0 4 1 5 11 16 20 22 24
13 8 3 5 5 3 3 9 8 4 1 2 2 2 5 5 4 16 18 10 5 12 9 9 7 12 9 9 7 9 7 4 3 2 3 3 3 7 6 4 3 9 17 20 24
12 8 4 7 4 2 4 10 5 2 3 6 2 3 6 2 12 4 7 5 9 8 5 5 11 11 9 7 7 3 5 6 3 4 2 4 2 6 5 7 7 8 11 18 20
15 12 8 4 2 4 8 5 3 3 4 2 4 2 5 5 5 2 4 5 5 6 1 4 3 2 2 3 10 10 6 4 3 2 6 3 2 5 6 9 11 10 6 14 20
12 12 10 8 4 7 7 2 2 4 4 7 4 5 8 7 7 7 5 8 2 9 9 4 4 2 5 6 5 7 8 5 6 5 5 3 5 5 7 11 11 14 13 11 13
8 8 10 9 8 6 1 2 7 3 4 3 4 6 5 4 6 7 3 5 10 4 3 5 6 5 10 3 2 11 10 5 11 9 7 0 8 5 7 11 14 15 17 15 14
3 6 16 12 8 3 2 6 3 3 5 7 3 4 3 4 4 4 7 4 7 7 0 4 4 1 7 7 3 5 6 2 5 1 9 5 6 4 11 15 19 21 21 22 21
5 3 20 14 9 4 5 5 2 4 4 2 3 4 4 4 3 4 4 5 4 9 3 2 5 6 4 1 10 3 3 5 2 9 10 4 4 5 12 16 17 23 27 26 25
4 2 18 10 9 10 4 4 3 7 3 6 4 4 6 3 5 4 5 3 6 5 7 2 1 3 1 7 8 2 2 3 1 2 6 7 5 5 9 10 14 21 24 25 28
6 2 15 11 6 3 3 3 4 10 10 7 5 7 5 5 5 5 4 5 11 4 4 4 3 5 4 2 4 7 4 1 5 5 2 0 5 4 9 13 15 19 23 25 30
3 7 13 5 3 4 3 4 6 7 8 6 4 6 5 3 5 5 4 5 12 5 3 1 3 4 2 3 1 3 4 3 1 1 4 6 6 8 12 15 18 18 20 24 28
2 2 9 16 7 3 3 4 3 8 6 6 4 2 3 5 5 5 4 6 6 8 10 5 3 2 2 4 2 1 2 4 2 3 7 2 13 7 11 11 15 18 19 21 23
5 3 3 3 7 7 2 2 3 4 4 10 4 6 3 5 7 4 4 4 8 8 5 3 4 4 6 5 1 1 2 1 1 3 3 14 10 8 9 11 12 13 17 18 22
4 3 6 4 2 2 4 3 3 2 4 4 7 9 4 4 1 6 5 1 1 4 3 2 5 4 3 3 1 1 1 5 3 4 7 14 10 10 10 9 12 14 15 17 18
8 7 4 3 2 0 1 2 2 1 5 4 4 4 9 6 5 7 7 7 4 1 3 2 6 4 4 3 2 4 4 4 6 4 3 10 7 10 9 9 10 10 12 13 15

GFSSW_850_spd_096.txt.gz
Wind_Speed
14 14 13 12 11 12 12 11 10 9 6 7 8 7 8 7 7 10 13 9 14 18 19 17 14 14 11 9 5 3 5 4 5 1 8 16 8 3 3 11 3 6 7 28 30
15 15 14 12 11 11 11 12 10 9 7 6 7 7 7 7 8 12 8 11 17 21 21 22 19 17 11 10 5 6 2 6 5 2 11 16 12 10 8 11 6 10 21 29 29
15 14 13 13 12 10 10 10 10 8 7 6 6 5 5 4 3 3 8 14 20 24 19 16 16 14 10 9 8 4 2 5 8 11 15 13 11 4 9 6 11 18 27 33 30
15 14 12 12 12 11 9 9 9 8 5 5 4 3 3 3 0 3 7 15 21 23 20 17 17 14 10 9 9 6 2 3 7 10 7 10 13 7 5 2 7 16 31 35 31
15 14 13 12 12 12 11 10 8 8 5 4 3 2 4 4 2 4 8 18 24 22 22 20 17 12 10 8 10 7 4 3 6 10 8 12 10 5 7 5 13 24 32 32 29
16 14 13 13 13 13 11 9 6 6 6 3 3 3 4 6 1 2 13 20 19 22 20 17 13 9 7 9 13 8 5 2 7 9 13 8 7 12 10 12 18 28 30 28 26
16 15 14 12 13 13 10 7 5 4 5 3 3 5 4 3 6 11 14 14 17 16 19 16 10 9 9 9 7 6 7 5 7 10 7 11 9 6 16 15 20 26 28 26 24
16 15 13 13 13 11 7 4 4 4 4 3 5 7 3 7 10 13 13 13 12 14 13 12 10 7 11 2 8 10 8 10 8 11 7 10 9 10 20 17 20 24 26 24 22
16 14 12 11 11 8 6 3 0 5 5 6 5 6 8 9 11 13 13 12 12 10 10 10 10 8 10 12 12 10 12 6 8 12 7 8 9 14 20 17 18 22 24 23 22
15 12 10 8 6 4 4 6 7 8 7 5 3 4 8 11 13 14 10 14 12 14 12 12 10 9 11 12 14 16 8 7 9 11 9 10 10 14 16 15 16 20 22 23 23
15 11 7 5 3 3 5 2 1 4 6 4 4 3 15 11 13 16 13 10 13 18 11 17 10 15 17 16 8 11 9 10 6 14 9 10 10 12 14 14 16 17 21 24 25
14 8 4 2 7 9 7 2 4 3 4 6 5 5 6 12 14 17 16 12 14 15 12 11 15 14 12 7 9 12 12 12 9 7 6 5 7 4 15 12 14 18 18 20 24
11 6 2 6 7 4 5 3 6 4 6 6 6 6 9 13 16 20 21 9 15 13 16 14 13 11 13 13 13 13 13 10 10 7 5 6 11 12 6 8 8 14 18 20 22
11 7 4 8 4 2 1 7 8 3 6 7 9 7 9 9 7 18 20 10 9 14 13 10 10 17 15 15 15 14 5 4 8 8 9 13 3 9 10 11 8 8 10 16 17
15 10 5 5 3 1 4 10 7 3 5 4 9 8 9 13 21 11 14 9 12 10 11 8 14 17 15 13 12 5 9 10 8 10 3 15 11 8 10 9 5 11 10 12 17
13 11 8 2 1 4 7 7 2 7 5 6 3 9 13 13 5 13 13 9 1 12 14 8 4 11 12 10 12 5 10 9 8 10 11 11 12 8 5 6 5 4 2 10 16
8 10 7 4 3 7 5 2 6 3 4 4 4 10 12 12 11 9 8 9 8 12 13 10 10 4 2 12 11 13 15 10 11 9 9 11 8 9 7 7 7 10 6 3 8
4 9 9 7 6 4 2 8 1 2 4 2 2 7 10 10 5 6 10 10 5 8 14 12 12 5 1 6 10 18 18 9 12 13 12 6 7 7 8 10 14 13 12 9 6
5 6 7 11 8 2 9 2 5 4 4 3 8 11 10 7 5 5 5 5 5 8 4 9 6 5 4 3 6 19 13 7 6 6 10 12 11 11 7 11 14 18 18 18 15
6 3 7 9 8 0 2 5 3 6 5 2 5 6 12 8 9 5 3 4 3 7 5 2 9 1 3 3 2 6 3 10 8 13 14 11 14 9 6 8 11 17 19 20 20
6 5 8 8 7 2 3 5 5 7 4 5 2 5 5 7 4 4 3 6 5 4 3 2 5 8 6 3 2 7 9 10 8 5 14 10 8 6 8 8 11 15 19 20 20
5 3 9 6 1 2 5 2 1 5 5 4 4 6 5 3 5 4 6 6 6 4 2 4 3 6 8 6 1 2 4 9 10 13 9 7 7 8 9 9 11 14 17 20 22
2 4 7 2 2 6 7 9 10 6 7 3 4 6 2 4 5 6 6 6 4 3 2 3 2 7 8 8 5 3 1 3 7 9 16 12 9 9 11 11 12 14 16 19 21
2 2 6 11 6 5 4 4 5 5 9 6 4 3 5 5 4 9 10 5 7 9 5 3 1 5 3 7 4 6 3 2 8 11 12 10 17 10 11 9 10 13 15 17 20
3 3 3 3 6 6 1 1 4 3 4 5 4 3 2 4 10 7 8 10 7 3 2 3 2 1 4 4 2 0 3 3 7 5 9 16 18 12 11 11 10 10 12 14 16
2 2 3 5 3 1 3 3 5 6 3 7 7 5 1 4 4 9 9 4 2 3 2 2 3 4 3 1 3 7 5 7 6 4 4 19 10 14 13 14 12 11 10 12 14
6 3 2 2 3 3 3 4 6 5 5 6 5 7 10 8 8 8 6 4 4 1 2 3 5 7 8 3 4 8 13 11 7 5 7 11 13 15 13 12 10 9 10 11 11

GFSSW_850_spd_102.txt.gz
Wind_Speed
14 14 14 13 14 14 14 12 10 11 12 12 10 10 11 11 11 12 15 12 12 8 15 10 14 15 16 16 19 17 1 3 3 8 13 7 4 4 6 12 10 5 31 34 30
13 13 13 13 13 13 13 13 12 9 11 11 10 9 10 11 13 18 15 14 18 12 17 16 17 17 17 19 20 6 4 5 6 8 16 14 13 7 4 11 11 28 31 32 29
14 13 12 11 12 12 13 13 12 10 10 9 9 9 7 8 10 9 14 12 15 15 16 15 13 16 19 19 17 13 5 2 8 13 24 20 15 6 6 4 18 32 35 32 28
16 14 12 11 10 10 13 13 12 11 9 7 8 7 5 4 2 1 4 15 13 15 17 16 18 18 17 17 17 5 9 5 18 13 20 17 16 13 9 2 27 30 31 31 27
16 16 14 12 12 11 12 13 12 9 8 6 6 5 5 7 15 6 7 11 16 20 17 18 18 17 16 16 13 6 4 17 16 20 18 15 14 13 7 8 14 27 28 28 25
15 14 14 13 12 12 12 13 11 7 6 5 5 5 5 10 2 8 6 12 18 21 16 18 15 16 19 18 14 8 18 14 21 18 20 17 11 6 3 8 18 25 28 26 24
15 15 13 12 12 11 12 10 8 5 4 4 5 5 8 15 2 3 9 14 17 18 16 16 15 15 8 16 15 9 12 13 23 18 21 22 11 7 7 8 27 30 29 26 24
15 14 12 12 10 9 8 7 5 3 4 4 5 5 9 8 7 8 9 13 16 14 14 13 12 13 18 14 13 18 13 10 25 21 16 15 11 2 9 12 27 32 30 27 24
15 13 11 9 7 6 4 4 1 3 3 5 5 6 10 8 11 11 13 15 16 14 12 11 9 15 16 15 12 13 15 14 15 20 17 1 13 8 12 15 24 32 29 27 24
14 11 9 7 3 3 3 4 6 7 5 6 2 8 16 11 14 14 12 13 15 14 12 9 10 13 15 13 14 18 21 17 16 17 17 15 12 12 17 12 21 30 29 27 24
12 9 5 4 2 3 2 5 3 3 13 12 6 12 8 14 15 14 15 15 15 15 13 17 11 15 19 20 20 21 18 11 7 23 18 13 15 15 16 16 18 26 28 28 27
12 8 3 3 2 2 4 6 6 7 7 20 8 14 8 20 15 15 15 15 17 15 17 11 16 17 20 18 23 23 13 10 13 23 20 16 11 8 10 12 19 25 26 26 26
13 7 3 5 1 3 5 10 6 6 8 17 14 13 7 11 15 19 20 21 16 17 18 17 14 19 17 19 21 21 17 12 12 17 19 16 6 10 8 22 29 21 27 25 25
11 6 3 4 5 8 10 5 6 5 6 15 13 16 15 16 17 19 20 21 11 17 18 19 17 18 17 17 18 17 17 19 22 18 8 13 5 15 19 26 17 26 23 25 23
9 6 2 4 4 9 6 7 8 4 5 12 14 8 12 19 15 16 19 23 17 15 15 18 15 16 17 18 13 18 11 14 19 13 20 19 6 5 3 13 19 28 23 22 27
6 7 3 3 7 4 8 7 5 7 1 6 10 9 14 20 11 20 17 23 17 15 19 15 19 11 11 14 12 21 12 9 6 9 11 21 14 8 3 7 9 25 24 22 22
8 8 7 7 7 6 6 7 6 6 2 6 12 13 15 16 13 14 16 15 13 11 16 17 17 12 15 17 17 15 13 8 10 9 12 20 11 6 14 10 11 14 11 5 12
11 12 11 6 7 7 6 10 6 18 10 13 15 16 14 17 13 12 13 14 19 17 11 13 14 17 13 14 10 13 18 10 14 12 12 18 11 10 19 17 16 8 6 6 12
13 10 10 5 4 5 10 6 5 10 21 5 7 9 12 13 13 14 20 11 18 9 4 14 15 15 6 16 1 16 17 18 15 20 13 9 14 13 18 16 15 8 8 9 8
14 14 21 5 6 6 5 4 14 9 6 8 10 6 6 14 19 9 8 6 11 5 2 13 11 15 10 6 9 14 9 17 14 14 14 11 13 13 16 14 12 12 12 12 13
17 10 12 3 5 10 5 7 3 3 6 7 12 7 6 10 12 5 3 7 4 9 6 16 9 9 15 11 15 11 11 12 17 15 10 11 4 6 17 13 14 14 11 9 11
14 12 5 4 11 10 10 3 2 5 1 4 7 22 7 3 7 3 8 8 3 7 9 12 4 11 13 13 19 16 13 16 12 17 10 7 3 5 11 16 16 15 12 10 10
8 12 2 6 9 6 7 6 8 6 2 3 2 4 7 6 3 6 7 3 3 3 6 10 9 3 8 7 7 8 13 15 12 15 15 5 6 7 16 16 14 16 14 14 12
8 4 7 4 6 7 4 3 5 1 3 5 6 7 5 9 8 5 5 2 2 6 5 7 12 8 5 12 9 17 15 13 13 11 13 8 19 15 15 13 14 16 15 16 16
7 6 7 4 5 7 3 5 1 2 2 4 3 9 10 3 6 5 8 5 4 3 3 4 9 11 4 7 11 14 20 17 10 15 11 17 19 15 13 13 15 16 16 16 16
11 9 1 6 1 7 5 3 2 4 6 2 8 2 8 10 5 8 11 6 6 6 5 2 8 10 10 6 5 10 6 3 5 11 14 18 18 17 22 20 20 16 16 16 15
7 4 9 6 5 6 7 6 5 2 3 6 5 6 4 12 14 15 4 9 9 2 3 4 7 10 11 13 12 10 10 9 8 11 4 14 15 19 17 19 17 15 15 14 13

GFSSW_850_spd_105.txt.gz
Wind_Speed
14 13 12 12 11 10 10 11 11 11 13 10 9 10 11 10 12 15 18 9 12 7 9 8 9 13 15 17 18 5 3 7 2 9 2 6 10 7 11 30 31 17 31 35 42
14 14 14 13 12 11 10 9 10 11 10 11 9 9 10 11 12 20 11 13 15 9 12 13 13 13 17 18 14 5 3 4 8 2 9 7 13 14 9 16 18 33 31 34 33
15 14 13 14 14 13 12 11 9 10 10 9 8 8 8 10 10 7 4 13 11 12 12 13 15 16 19 20 18 8 6 15 25 12 17 15 12 5 12 12 37 37 36 32 34
16 16 15 13 12 12 13 13 13 10 9 8 7 6 6 4 1 4 3 9 8 13 16 16 19 18 10 11 21 9 18 10 12 20 19 10 8 8 19 9 25 39 35 30 35
16 15 14 14 13 12 12 13 12 10 8 7 5 5 4 3 12 4 8 8 13 15 20 16 19 20 11 13 18 8 12 18 23 26 19 20 12 10 17 14 30 35 31 28 28
17 15 14 12 12 12 11 12 10 7 6 5 5 4 4 5 4 6 8 8 16 18 21 16 14 16 17 18 9 9 21 8 25 25 20 18 15 8 16 13 29 32 29 29 26
16 15 13 12 12 11 11 9 7 3 3 4 5 5 8 14 1 5 7 10 15 20 14 12 17 17 16 9 18 15 7 8 20 24 16 26 6 6 15 11 18 28 29 26 25
17 15 13 11 9 9 8 7 4 2 2 3 4 5 9 2 4 8 3 5 12 17 14 11 15 16 12 15 20 7 10 7 7 20 18 7 6 5 11 7 14 21 28 26 26
16 13 11 9 6 5 5 4 1 2 3 3 3 4 9 7 10 10 10 11 13 11 12 13 13 6 13 6 7 7 8 10 15 18 11 7 7 11 14 6 20 28 28 27 24
17 13 9 6 4 2 2 4 3 4 2 4 6 6 13 14 11 13 14 16 16 14 14 9 4 2 5 3 7 7 7 7 15 14 11 9 6 13 14 13 34 28 28 27 29
18 13 9 3 2 1 2 5 3 2 8 10 11 9 6 9 13 15 13 12 16 18 7 7 3 7 12 13 16 12 10 10 11 10 10 6 8 12 7 6 16 21 26 27 26
17 13 7 2 2 1 3 6 12 11 8 17 19 23 17 15 14 13 16 12 14 6 8 3 9 13 16 17 18 15 3 7 10 7 12 13 6 4 10 9 18 11 28 28 28
16 13 5 2 2 4 8 7 6 10 9 21 20 15 6 20 15 14 16 16 8 7 10 10 12 18 17 15 17 12 7 16 8 8 8 10 4 2 3 7 16 21 9 33 32
12 11 4 4 8 7 17 5 11 14 3 5 13 10 10 7 8 20 19 19 7 11 12 10 20 15 15 11 12 9 1 24 23 12 6 14 4 4 6 2 7 18 11 23 34
8 8 6 10 10 7 12 7 12 6 3 13 11 14 18 12 5 16 19 20 14 8 8 10 13 14 13 15 12 10 22 24 12 6 6 16 4 3 9 8 8 17 19 15 35
10 10 8 10 14 6 13 10 8 2 3 7 7 7 6 13 18 18 20 17 20 13 11 13 21 11 8 14 13 9 5 13 5 5 3 14 5 4 9 8 6 22 29 31 30
12 13 13 12 13 8 9 10 2 1 14 6 11 8 8 9 13 15 10 8 7 4 7 11 15 10 13 5 8 7 3 2 2 3 11 17 6 1 16 16 13 18 35 26 28
14 15 15 11 3 6 13 5 1 2 8 16 7 6 7 9 10 13 8 7 11 10 9 6 8 13 6 6 8 5 7 5 4 6 6 10 6 6 17 23 29 25 5 6 16
15 15 16 6 5 3 3 5 2 4 5 6 15 5 9 6 5 7 8 8 5 7 4 4 9 9 9 9 5 6 4 9 3 6 3 4 8 8 11 10 12 10 16 17 12
20 16 22 10 11 6 1 6 6 13 15 11 5 7 2 4 5 9 14 4 2 8 5 4 4 6 4 4 3 3 5 5 3 2 2 4 6 7 12 10 9 10 15 20 11
14 5 7 12 13 10 4 5 7 15 6 3 5 7 7 5 5 13 7 8 7 10 15 5 5 8 6 2 5 1 4 2 1 1 4 5 2 3 9 8 11 13 12 14 20
5 3 8 4 5 8 1 4 7 5 1 4 4 3 4 8 5 11 8 6 12 7 6 4 2 3 6 8 4 5 7 4 4 8 3 5 3 3 10 15 16 15 15 16 20
6 11 9 8 3 3 5 4 9 9 6 8 4 6 6 5 5 6 4 4 5 4 3 5 5 6 7 2 4 2 6 6 4 3 4 5 5 3 19 18 15 17 15 19 23
6 4 5 6 12 2 4 4 8 4 4 8 6 6 3 2 1 7 5 5 2 5 2 3 7 4 5 8 4 6 8 9 2 2 5 4 13 10 13 13 17 17 17 21 25
3 5 5 3 8 6 8 6 3 4 2 1 2 5 8 3 6 6 9 7 4 2 2 4 3 12 14 7 8 7 14 11 4 5 5 15 17 14 13 13 19 19 22 23 23
6 6 11 6 4 7 2 6 6 6 9 4 1 5 7 6 3 8 17 2 2 4 0 3 5 9 9 10 8 6 11 4 5 12 10 16 11 13 20 22 21 19 21 23 23
18 15 10 6 4 4 5 6 10 4 2 10 12 8 13 8 5 5 2 15 10 5 4 3 4 1 5 10 9 6 5 7 6 6 15 12 9 19 15 19 19 18 22 24 23

GFSSW_850_spd_108.txt.gz
Wind_Speed
15 15 13 13 12 12 11 10 9 10 9 9 9 9 9 10 11 13 17 7 16 6 11 10 8 14 10 7 10 9 3 1 5 5 4 4 21 14 18 31 24 6 34 35 40
14 14 15 13 13 11 11 9 10 9 10 10 9 9 9 10 12 16 8 9 14 13 10 13 13 17 7 8 8 5 2 5 6 3 6 13 11 18 20 25 16 29 31 41 41
14 13 13 13 12 12 11 10 9 10 9 9 8 7 8 8 9 0 1 13 18 14 9 15 11 14 9 9 9 10 6 7 8 16 14 16 17 13 23 6 34 36 42 40 41
14 13 13 12 11 10 11 11 10 10 9 8 7 7 6 5 3 3 5 5 15 16 13 18 14 8 5 7 13 3 3 6 2 6 16 8 11 10 14 20 35 38 39 42 40
15 13 12 12 11 12 10 10 12 10 8 6 5 5 5 5 9 2 3 7 13 15 16 18 14 11 6 4 9 6 9 6 7 12 14 13 12 10 17 30 32 34 34 38 39
17 14 12 12 11 10 10 11 9 9 6 5 5 4 6 3 0 1 4 5 13 15 18 21 12 7 9 10 5 14 14 12 12 9 12 12 16 8 20 22 27 32 33 38 37
17 14 12 11 10 9 9 8 8 5 4 5 5 5 10 10 5 1 7 5 10 14 20 21 15 9 5 8 5 21 6 4 9 6 4 24 3 11 19 21 33 29 29 33 38
17 13 11 9 8 7 6 6 5 3 2 4 5 5 8 7 10 6 1 6 12 14 20 16 10 16 17 7 5 6 4 5 2 5 12 0 4 11 17 20 24 27 25 22 41
18 14 10 8 7 5 4 4 3 0 2 3 2 3 7 9 13 8 9 7 12 15 19 11 10 12 3 3 4 1 6 6 5 14 4 2 3 4 16 20 21 22 25 19 39
19 15 10 7 5 4 3 5 4 1 3 4 4 5 6 7 11 13 11 9 12 11 10 10 6 2 4 4 5 4 4 3 8 16 11 4 4 10 13 22 22 22 19 23 35
18 16 10 5 5 2 3 5 3 3 8 8 4 8 10 4 9 15 17 14 10 7 3 3 4 5 10 5 6 2 8 3 7 9 9 4 6 9 10 18 24 25 21 23 34
15 15 9 4 3 2 7 7 5 7 9 17 18 24 21 7 9 13 16 16 12 5 2 6 5 10 7 7 7 5 7 4 11 8 3 5 7 5 8 17 28 27 12 26 30
16 15 10 6 4 5 8 5 7 15 4 12 12 13 13 12 14 14 15 7 5 3 4 6 11 8 5 9 8 9 6 6 7 10 12 6 3 2 1 21 22 27 12 7 41
12 12 9 7 7 7 7 3 9 15 4 6 3 4 7 21 6 17 16 11 2 8 5 6 17 10 7 10 7 9 6 12 18 6 5 6 3 5 7 9 24 26 18 6 34
11 11 10 9 10 13 9 13 15 3 3 5 5 2 11 11 4 14 21 16 8 4 6 9 3 7 8 12 9 11 7 14 15 4 7 5 3 3 13 10 13 23 20 9 13
12 10 11 11 10 5 14 15 8 5 3 3 10 7 3 8 8 6 23 14 9 3 2 8 20 6 11 12 12 11 14 10 5 4 1 9 4 4 10 13 13 20 21 15 10
13 14 12 14 9 7 15 15 5 3 4 4 4 3 8 6 3 6 7 5 4 2 5 7 7 5 7 8 3 7 6 2 4 3 6 10 5 5 8 10 14 20 33 22 12
13 15 14 9 7 12 15 4 4 2 4 3 2 6 7 5 3 7 8 4 4 4 1 3 8 3 4 7 8 4 7 6 4 4 5 5 6 1 3 5 13 10 7 10 17
18 15 14 10 7 10 3 4 6 4 4 5 7 7 5 4 5 6 6 3 4 3 7 3 5 5 3 5 8 5 2 3 5 2 4 5 3 5 5 6 6 5 7 4 2
17 11 12 12 8 7 4 4 3 5 4 4 4 5 5 8 6 5 5 2 8 5 4 0 4 3 7 3 3 8 4 4 3 4 4 2 8 7 10 9 7 9 6 6 2
10 7 12 12 12 3 2 6 5 13 9 1 3 6 6 4 4 4 3 4 5 8 8 2 2 8 0 2 4 3 3 5 3 4 5 4 0 5 13 12 10 8 10 14 14
4 2 9 7 4 2 3 4 2 6 2 4 4 3 5 2 3 3 3 3 13 11 5 2 3 1 4 9 4 4 4 5 4 4 3 4 3 7 13 15 16 9 7 11 12
10 6 2 7 2 3 4 2 2 6 6 4 2 2 4 4 3 4 3 10 13 5 1 3 4 4 10 8 9 5 3 5 3 3 1 5 4 8 15 16 22 11 10 14 12
4 3 5 4 2 4 3 3 3 6 5 5 2 2 4 1 2 2 3 6 11 1 1 5 3 5 5 6 5 8 6 3 5 4 3 2 13 11 13 10 20 17 16 15 15
3 3 5 3 5 4 5 3 4 4 8 6 7 6 3 3 3 3 5 7 1 3 5 5 4 4 4 9 10 7 5 11 5 7 5 14 15 17 15 14 20 20 20 20 17
7 6 9 7 10 5 5 5 8 3 5 4 8 11 10 5 3 3 2 4 2 6 3 3 2 3 2 13 12 5 9 10 11 10 11 14 14 18 24 25 24 21 21 19 19
12 7 5 7 8 5 3 4 5 5 12 16 9 7 9 6 3 3 2 8 2 4 4 4 3 3 3 5 8 5 6 3 5 6 20 11 10 22 19 23 25 23 22 23 21

GFSSW_850_spd_111.txt.gz
Wind_Speed
16 14 13 12 11 10 8 8 9 10 9 8 9 9 10 11 10 12 15 7 13 10 18 17 13 10 10 7 7 5 4 1 3 8 3 12 11 11 13 31 14 2 25 34 32
14 14 12 13 12 11 9 8 8 9 11 9 8 9 10 10 12 15 6 11 19 14 21 17 15 15 6 5 7 4 3 9 8 6 11 12 3 12 15 20 21 29 25 34 32
14 12 12 12 12 12 10 8 8 9 10 10 8 7 8 8 10 3 5 15 19 18 15 14 13 14 3 4 5 5 4 6 8 11 23 16 10 13 24 12 33 35 36 36 33
15 14 12 11 11 11 11 10 9 8 9 10 7 6 6 4 3 5 3 14 22 18 17 17 12 8 3 4 9 2 10 3 1 17 13 17 24 11 18 12 27 37 37 37 35
15 13 12 10 11 10 11 9 10 9 7 8 7 6 4 5 6 5 4 14 24 22 21 20 17 7 3 4 5 5 4 5 2 18 19 15 16 12 20 26 30 36 37 38 36
16 12 11 10 9 9 10 10 9 8 6 4 7 6 5 4 3 5 2 11 19 24 22 22 15 13 5 5 5 3 7 9 7 11 10 10 12 16 16 31 37 37 37 39 35
18 15 10 9 8 8 9 8 8 6 4 4 5 7 8 7 8 5 1 7 13 19 22 24 13 8 4 7 6 14 5 7 5 4 5 17 5 13 24 34 37 35 37 34 34
19 15 12 9 7 6 7 7 6 3 2 3 4 6 8 6 11 8 5 11 14 14 14 15 15 5 4 4 2 4 5 3 4 7 10 4 4 8 24 26 33 33 31 34 35
19 16 12 8 6 5 5 6 4 1 1 2 2 4 6 7 15 7 9 5 13 14 12 12 4 4 2 4 5 6 1 2 3 7 9 3 2 5 18 24 20 27 29 34 30
16 16 11 7 5 4 3 6 5 3 1 2 5 3 3 1 12 11 9 6 9 12 8 6 6 3 3 4 4 3 2 4 4 5 4 7 2 4 19 28 28 10 29 33 34
16 15 11 6 4 2 4 5 5 3 7 9 3 6 6 10 8 13 11 13 5 7 5 4 4 5 6 5 4 1 2 3 4 4 4 6 4 9 13 22 19 16 18 29 36
14 14 11 6 3 4 6 5 8 5 9 16 17 17 13 5 2 9 12 10 5 3 3 6 3 6 4 7 4 4 2 3 4 3 4 3 4 1 2 9 28 28 9 23 26
14 11 9 7 7 6 10 8 15 24 3 7 7 7 3 9 5 10 13 11 4 2 3 5 4 6 4 1 2 3 4 5 5 8 9 11 1 4 2 10 23 28 14 7 27
12 11 10 9 5 5 4 11 19 13 4 5 4 3 8 6 2 13 16 9 2 8 5 4 4 3 4 4 6 3 8 9 12 4 5 1 1 5 4 5 21 33 26 8 24
11 10 8 8 6 10 7 14 17 2 3 3 3 2 11 15 7 9 14 10 6 4 6 6 2 3 5 8 7 8 5 7 6 4 6 0 4 4 10 9 15 25 33 16 7
11 12 11 9 8 7 8 16 3 5 2 6 2 2 7 4 2 7 10 9 2 4 1 7 8 5 8 6 8 8 9 10 6 3 1 8 6 4 13 14 17 25 26 22 4
12 11 11 13 10 8 14 12 4 3 5 6 3 2 3 5 2 5 7 5 5 4 4 6 4 4 6 3 2 5 5 3 3 2 5 5 4 2 9 11 20 27 38 32 12
14 12 12 11 8 10 11 4 3 2 4 5 4 2 4 2 1 2 5 3 2 2 3 2 6 5 4 8 8 9 9 6 6 5 3 1 4 3 5 12 15 22 28 28 19
15 11 11 7 7 4 2 4 5 4 3 6 3 7 7 6 4 4 2 3 2 3 5 4 5 3 4 4 8 5 4 6 7 1 3 3 3 5 9 10 17 19 18 19 23
16 8 9 10 7 2 4 4 4 4 2 3 3 4 3 7 5 5 2 2 1 2 6 2 3 1 6 1 3 8 6 2 3 5 3 1 3 5 9 11 12 12 16 13 14
10 3 6 11 10 2 2 5 5 7 5 1 2 3 2 4 3 2 1 2 2 3 8 2 1 6 3 4 1 4 2 6 6 2 5 3 3 3 5 10 10 13 15 13 14
5 3 8 9 3 1 2 5 1 5 5 3 3 3 2 3 3 2 2 4 3 4 4 2 3 3 5 6 5 1 1 3 5 3 3 4 1 9 11 10 16 16 17 13 12
8 2 4 13 2 3 4 1 4 5 5 3 2 1 3 2 4 2 2 4 3 2 4 2 2 3 7 7 7 6 5 3 4 2 3 6 2 1 7 10 12 15 15 12 10
3 3 4 4 0 5 3 2 2 9 7 5 2 3 2 4 6 3 5 3 1 2 3 9 3 4 5 5 3 6 5 2 3 3 6 3 9 7 8 7 10 13 14 14 13
5 2 4 3 4 3 4 2 5 4 4 15 8 7 2 3 3 4 3 4 5 4 4 4 5 4 4 5 2 4 5 6 6 5 6 11 19 16 13 10 14 15 15 12 14
5 4 4 2 4 3 6 5 5 4 5 4 7 5 9 5 2 4 2 1 3 3 3 3 2 1 1 5 8 5 10 8 5 9 8 18 9 8 20 21 19 20 17 13 14
7 5 3 8 4 4 2 3 2 7 9 5 7 4 7 4 7 7 2 3 1 3 2 3 3 3 1 3 5 6 8 7 2 4 17 10 10 23 16 21 22 23 23 21 18

GFSSW_850_spd_114.txt.gz
Wind_Speed
14 13 12 10 9 7 8 8 9 9 7 8 9 9 9 9 10 12 15 8 14 18 21 18 15 13 12 8 4 4 3 1 3 2 3 7 6 9 6 17 5 2 24 30 32
14 13 12 11 11 8 7 8 8 8 8 7 8 9 9 8 11 16 7 12 17 18 23 22 19 16 7 5 5 3 3 8 7 12 8 8 14 10 10 7 13 27 25 31 30
14 13 12 10 10 10 8 7 8 9 8 8 8 8 8 7 7 1 7 17 19 17 21 20 17 15 4 6 5 5 4 6 9 16 19 10 12 13 15 2 23 34 35 32 30
18 15 12 11 10 9 8 8 7 8 10 8 6 6 7 4 4 5 3 18 24 21 22 17 20 10 4 4 7 3 8 6 8 15 20 7 16 13 4 2 29 37 37 34 29
18 16 13 11 10 9 7 8 8 9 8 9 6 3 5 5 2 3 2 17 27 23 20 20 21 8 5 4 7 4 3 10 5 20 17 15 13 10 8 15 25 34 33 32 28
18 15 13 11 10 8 7 6 7 8 7 5 6 6 4 2 3 5 4 17 25 24 21 20 15 9 2 3 5 1 5 9 9 16 11 14 10 20 17 20 27 32 32 30 28
18 17 13 10 8 7 6 6 5 5 5 3 4 5 6 6 3 8 6 12 21 20 21 18 12 7 1 2 1 8 5 6 6 8 6 26 8 14 13 21 24 29 31 29 28
17 17 13 10 7 6 5 5 5 3 1 1 2 5 5 8 7 8 10 16 16 18 13 17 19 1 2 4 3 4 3 5 2 5 13 2 5 16 17 27 26 25 27 29 30
16 16 12 8 5 4 5 7 6 3 1 1 2 3 4 10 12 8 8 11 15 14 10 12 10 2 1 4 4 6 2 2 2 4 6 3 4 8 20 30 24 26 23 25 29
14 15 12 8 5 4 4 7 6 4 1 0 4 2 2 5 13 9 10 4 12 14 10 8 5 3 3 4 4 4 2 1 3 4 2 2 3 7 23 24 22 28 23 23 27
13 12 9 5 4 5 7 5 6 2 9 8 5 6 2 5 11 10 10 11 15 15 5 5 5 6 6 5 5 3 2 1 2 6 4 3 4 9 18 21 16 19 25 21 31
13 11 9 7 5 7 6 3 7 9 8 11 13 16 14 7 7 13 15 8 6 5 6 5 4 7 7 4 4 2 1 1 2 2 4 5 5 1 12 22 27 14 13 25 26
13 11 10 7 9 4 6 3 11 17 2 6 4 6 2 11 7 12 19 7 4 3 4 6 2 10 6 4 4 2 5 4 3 6 6 4 3 4 3 12 24 20 13 8 23
12 10 8 9 6 6 3 11 18 7 4 4 3 2 8 6 3 12 16 7 2 5 6 3 2 4 4 4 5 3 6 6 10 4 3 2 4 4 8 6 17 29 25 11 8
12 11 8 7 9 7 4 13 14 2 4 2 2 2 9 7 12 6 16 7 5 4 5 5 2 2 2 6 8 5 3 8 6 5 4 2 2 2 9 10 12 26 28 18 6
12 12 9 9 9 5 4 14 2 5 3 4 2 4 4 2 2 8 6 7 5 4 3 5 2 5 7 5 9 8 9 8 5 4 1 4 3 3 6 12 13 22 31 29 13
11 13 11 9 4 8 9 8 5 3 3 5 3 3 3 1 2 3 5 4 5 5 2 4 4 3 5 4 2 5 5 3 3 1 5 2 4 5 5 5 18 25 31 35 22
11 11 11 6 8 5 6 4 3 2 3 4 3 4 5 6 4 4 4 3 2 5 2 5 4 6 4 8 9 8 8 5 5 5 3 3 4 3 2 3 15 28 37 31 27
12 11 9 3 4 2 1 4 5 4 3 4 3 6 6 4 3 3 3 5 3 5 5 3 5 4 5 4 7 6 4 5 7 3 4 3 1 2 5 4 13 22 30 29 32
15 6 2 5 5 2 4 3 3 3 2 1 4 2 3 5 3 4 2 1 3 2 3 4 1 2 5 1 3 6 5 3 2 6 4 3 3 4 7 8 8 12 22 29 37
6 2 3 10 6 1 2 4 4 4 2 4 2 4 3 2 3 1 1 0 1 3 2 5 3 6 1 4 1 3 0 5 5 3 6 4 5 1 6 8 10 12 18 28 31
2 3 4 12 4 2 0 3 3 4 0 3 4 3 2 3 3 1 4 3 2 2 1 1 5 1 4 3 3 2 2 4 5 4 2 3 3 3 6 9 14 13 17 18 22
3 5 3 8 3 2 4 2 6 6 4 2 3 3 2 3 3 1 2 1 3 2 5 4 2 3 8 6 5 5 4 3 2 3 5 6 4 1 11 14 13 15 15 13 14
2 3 3 5 1 3 3 0 4 7 5 5 4 4 3 5 2 1 2 2 1 3 7 5 2 5 5 4 3 5 6 2 4 3 5 4 8 7 10 9 12 15 15 14 10
4 2 1 1 3 3 3 0 4 3 5 13 6 6 1 3 5 3 3 3 4 3 4 4 3 2 3 3 2 1 6 8 5 3 5 7 10 17 14 12 18 15 13 11 9
3 3 1 3 1 2 3 4 4 2 3 3 6 3 6 4 1 3 3 4 2 5 3 3 0 0 1 1 5 3 6 7 5 3 3 8 1 7 15 18 18 18 17 13 10
6 5 1 7 3 4 1 2 2 2 7 4 1 3 4 2 4 5 3 2 2 2 2 3 4 3 3 4 3 4 5 5 4 1 5 5 5 16 11 16 18 17 18 18 17

GFSSW_850_spd_117.txt.gz
Wind_Speed
13 11 10 9 7 8 8 8 7 6 6 7 7 7 8 9 10 12 14 8 13 22 21 18 14 13 10 4 2 3 4 2 1 3 3 7 5 6 8 17 7 1 17 22 24
15 14 12 9 8 7 7 8 7 7 7 6 7 7 7 9 10 15 6 11 17 25 25 22 19 16 4 3 2 2 3 6 10 4 3 7 11 10 10 8 9 18 19 26 24
16 14 12 10 8 7 7 6 8 6 6 9 5 6 5 6 7 2 6 15 19 23 23 20 16 11 3 3 2 2 2 8 16 9 7 11 11 6 16 3 10 31 29 25 24
17 15 12 10 9 7 6 7 7 8 7 5 8 5 4 1 2 3 3 17 21 22 24 21 18 8 4 5 6 2 4 13 7 13 11 11 12 9 8 2 17 25 29 26 23
17 15 13 10 7 6 6 6 7 7 8 5 4 6 5 3 3 3 7 18 20 24 24 20 19 8 6 4 5 4 2 9 8 14 14 11 13 8 7 9 22 23 23 22 20
16 16 13 10 7 5 4 5 5 6 5 4 4 4 5 4 5 4 9 20 23 25 22 18 13 7 6 3 6 4 4 7 4 15 13 14 9 8 8 10 22 23 22 20 18
15 15 13 10 7 5 4 4 4 4 2 2 3 5 6 2 6 6 7 23 27 21 21 18 12 3 4 5 1 10 10 10 13 15 7 24 7 9 12 12 21 22 20 18 16
14 13 10 7 5 5 5 5 3 2 1 2 4 4 3 5 9 7 10 21 20 18 14 14 12 3 1 2 4 4 5 7 6 10 11 8 15 18 12 17 21 21 19 18 17
13 13 11 7 5 4 5 6 5 4 3 2 2 2 1 8 10 12 13 14 16 12 11 14 10 3 3 6 5 2 4 4 8 4 10 4 6 20 19 22 24 22 20 18 16
13 12 10 6 5 6 6 6 4 2 4 2 1 0 3 5 12 14 16 10 11 14 7 7 3 4 3 6 8 7 5 3 5 9 13 8 4 16 23 25 21 23 18 19 19
12 11 9 7 6 6 8 3 5 2 5 4 2 2 3 7 10 13 16 20 13 9 5 5 6 12 10 4 5 7 6 5 4 9 9 5 9 16 24 26 21 26 18 19 20
10 10 9 7 5 6 3 1 3 6 6 5 10 11 9 4 6 15 20 6 17 13 5 6 11 6 4 6 6 4 5 4 6 5 2 8 12 14 21 25 25 24 21 18 14
9 9 9 7 6 1 2 2 9 12 3 3 2 3 4 13 7 15 20 11 17 12 11 12 4 7 8 6 7 4 4 6 3 6 3 12 9 12 14 13 16 23 25 15 14
9 9 9 10 3 5 2 7 13 4 1 2 2 4 12 10 6 18 19 6 4 13 8 8 6 10 7 6 5 8 7 7 10 7 3 2 4 8 14 15 21 22 25 24 11
11 10 9 6 7 4 2 11 8 1 2 3 3 7 9 4 17 11 17 4 8 9 6 5 10 9 7 6 6 1 3 10 7 3 3 6 3 5 13 15 20 28 28 25 22
12 11 9 7 5 3 3 10 1 2 3 2 2 4 7 5 4 7 10 2 5 6 3 5 1 3 3 3 10 9 10 9 6 2 4 6 7 6 11 20 20 29 30 28 21
13 11 8 6 1 3 6 5 2 1 2 3 3 2 7 3 5 8 8 5 3 7 10 7 7 3 3 6 7 4 11 4 3 4 3 2 6 4 11 8 20 27 35 31 26
11 8 7 4 2 1 4 1 1 1 2 1 2 5 4 3 4 3 7 6 3 3 4 8 7 8 7 10 7 15 12 7 13 6 6 5 6 2 4 7 11 26 33 32 27
10 6 2 5 5 3 1 0 0 1 1 1 3 4 2 2 2 2 2 7 5 7 2 5 4 3 6 4 10 7 9 4 3 1 5 3 3 5 3 5 11 21 27 31 26
9 3 6 10 8 3 1 1 2 2 2 0 3 2 2 2 2 2 2 3 4 1 2 6 3 2 3 4 2 7 6 7 3 8 7 4 4 4 6 7 11 18 28 31 27
4 5 7 13 5 2 1 1 2 3 1 3 3 4 4 2 2 2 1 2 2 3 4 3 2 4 3 2 3 4 5 2 3 3 9 4 4 2 7 10 11 17 22 27 28
4 3 9 8 1 2 2 1 4 2 5 5 4 4 3 3 3 2 3 1 2 2 2 2 1 1 3 3 2 1 1 4 7 7 1 4 4 3 5 10 12 12 14 19 22
4 5 7 2 1 1 2 2 7 6 6 5 5 5 3 2 3 2 1 3 0 1 2 4 1 2 4 4 3 3 3 1 1 1 8 9 3 1 11 13 11 12 13 14 15
3 3 4 1 3 2 1 2 3 6 5 5 4 1 2 4 5 2 3 3 2 3 5 2 2 3 6 2 1 0 4 2 5 6 6 7 6 9 13 14 15 15 14 10 10
4 3 2 2 2 2 1 1 3 3 4 9 4 5 2 2 2 3 3 2 3 1 2 1 1 1 5 5 4 5 6 3 6 2 8 7 11 15 18 16 19 15 14 12 10
3 2 3 3 0 4 3 2 4 3 3 5 6 8 7 4 3 2 3 3 1 2 2 1 3 1 4 2 3 2 6 4 5 3 6 3 7 4 18 19 18 17 16 12 10
4 5 3 4 2 1 1 1 4 3 5 6 1 1 6 5 3 3 2 2 2 1 2 0 4 3 3 4 4 6 6 9 6 4 5 3 3 10 15 20 20 18 16 14 12

GFSSW_850_spd_123.txt.gz
Wind_Speed
11 10 8 7 7 8 7 7 6 7 6 6 7 7 7 7 9 10 9 9 13 11 16 11 12 11 11 6 5 6 2 3 12 15 10 14 9 6 9 13 11 5 23 24 23
13 12 9 7 7 7 8 7 7 6 7 6 6 6 6 6 8 15 13 14 13 14 15 15 14 12 16 11 6 10 3 6 9 12 14 13 9 10 12 11 10 21 24 24 21
13 13 10 8 7 7 8 7 7 6 7 6 6 5 6 4 8 10 16 14 15 16 14 13 10 12 14 9 7 7 3 10 1 4 10 9 10 7 10 11 17 23 28 23 22
12 13 11 9 7 6 7 7 7 6 6 7 6 5 4 5 2 4 8 14 17 17 15 15 13 15 16 4 7 4 12 15 9 5 13 11 3 11 7 13 17 21 25 23 21
13 13 11 9 7 6 6 7 7 7 6 6 6 5 5 6 6 5 7 13 19 20 18 17 16 16 14 8 10 8 14 10 16 10 14 14 13 8 8 7 19 22 22 21 19
12 13 12 8 6 5 5 5 6 6 6 5 6 6 4 13 2 3 8 16 17 19 18 17 12 14 11 7 5 12 15 11 9 14 10 13 6 4 4 15 22 22 21 19 17
12 12 10 7 5 4 4 4 4 4 3 3 4 6 9 3 2 6 10 14 16 16 17 17 11 12 9 7 4 15 10 10 14 12 15 20 6 8 6 15 20 20 19 18 17
11 11 9 7 4 4 5 6 4 1 1 4 5 5 7 5 5 10 13 14 15 13 13 14 10 15 15 3 11 15 13 9 11 14 12 7 13 5 15 16 20 20 20 18 17
10 10 9 6 4 5 5 4 5 4 3 4 3 5 7 5 9 12 15 17 16 13 11 9 11 16 13 10 14 13 11 11 13 15 11 8 8 16 21 19 21 19 20 19 18
9 9 8 5 4 5 6 3 0 1 3 3 5 7 10 13 15 13 14 16 18 14 11 13 13 13 12 14 13 9 14 14 15 15 16 16 10 18 22 18 16 13 20 18 19
7 7 7 5 4 5 6 6 2 4 10 9 11 6 9 16 14 14 13 18 16 16 14 18 13 16 18 20 9 9 8 6 4 22 19 13 11 18 15 13 13 13 17 21 19
6 6 6 4 4 5 3 4 8 8 8 7 6 4 4 14 17 14 17 15 15 16 18 13 17 18 17 12 7 6 16 13 21 16 12 13 12 16 19 19 18 7 17 21 26
6 6 6 5 3 3 4 7 7 9 8 8 10 11 11 13 15 18 20 14 16 18 18 15 15 17 12 6 11 15 16 5 1 13 8 15 11 14 18 21 25 19 28 16 11
8 6 5 3 1 3 5 3 6 7 6 8 11 7 11 16 13 16 18 11 11 18 15 15 8 11 10 14 15 12 5 15 22 16 8 17 5 16 17 21 26 33 31 19 16
10 7 5 4 4 5 3 5 8 4 1 8 9 9 14 21 22 16 16 13 15 15 10 15 14 9 13 16 12 5 10 10 3 13 6 8 6 5 22 20 27 36 36 24 36
10 8 6 4 7 7 6 8 7 6 3 7 7 9 14 15 12 18 15 11 12 13 14 9 6 11 17 14 6 5 8 10 8 9 11 20 13 12 19 23 24 28 35 31 33
10 7 6 6 2 5 7 9 4 3 7 8 14 13 17 14 14 16 15 15 9 13 13 8 9 10 9 11 9 12 14 8 7 6 10 2 6 11 5 18 25 30 32 34 35
8 5 6 8 7 8 9 12 9 5 3 6 7 16 7 14 16 16 14 14 16 16 15 11 15 18 13 15 12 17 17 11 14 12 13 16 6 12 20 13 20 29 29 33 36
3 3 5 5 9 7 11 10 8 8 2 8 7 12 8 4 4 13 13 10 7 11 10 14 14 21 13 16 14 14 16 21 18 15 12 3 1 8 14 14 16 25 31 29 34
5 6 6 8 9 7 11 4 9 4 2 5 5 12 8 12 9 10 11 10 11 8 11 3 7 8 12 13 16 18 8 15 11 16 17 11 12 2 12 14 14 15 26 30 31
9 8 6 6 6 11 6 11 7 6 6 5 13 14 6 9 3 9 14 6 3 10 11 13 13 8 15 12 14 12 13 9 14 13 13 12 5 8 16 14 14 16 20 31 34
9 5 9 6 12 10 7 5 4 8 2 2 6 6 2 3 7 7 8 9 5 4 10 11 7 14 16 18 17 10 18 15 10 12 13 17 5 12 5 8 11 11 17 30 33
8 13 9 5 6 7 9 7 11 5 4 3 3 5 5 2 4 4 8 6 3 8 11 2 9 4 6 12 10 11 12 16 19 16 17 13 5 8 7 9 10 12 17 25 30
5 5 8 10 9 12 8 6 8 1 5 4 1 2 5 4 3 3 8 5 3 4 7 7 14 14 7 8 15 18 20 10 16 11 12 13 18 9 11 12 13 11 19 21 24
8 5 3 7 7 4 2 3 7 9 4 1 2 5 5 2 4 2 1 9 7 4 5 6 13 11 7 7 12 12 7 16 14 17 16 12 13 5 14 16 18 18 13 17 19
8 2 9 5 1 7 4 5 8 6 6 5 3 1 2 7 7 3 5 4 5 8 7 5 10 10 12 12 7 10 10 8 11 14 17 18 2 11 16 22 17 19 15 15 15
4 5 8 8 9 11 7 4 8 6 5 7 7 8 4 9 8 7 6 7 5 7 4 4 9 4 13 14 7 12 13 11 12 7 8 9 11 4 4 12 13 16 17 17 16